Wetterdaten: Dienstag, 06.09.2016
Datum Zeit Temp. A. Temp. A. max Feuchte A. Luftdruck Regen Wind Richtung Richtung Sonnenschein ET UV Solar Taupunkt Windben
06.09.2016 00:00 13,6 C 13,6 C 81 % 1023,0 hPa 0,0 mm 4,4 km/h (1 Bft) W 259 0 min 0,000 mm 0,0 UV-I 0 W/m 10,4 C 6,4 km/h (2 Bft)
06.09.2016 00:01 13,6 C 13,6 C 82 % 1023,0 hPa 0,0 mm 2,4 km/h (1 Bft) W 273 0 min 0,000 mm 0,0 UV-I 0 W/m 10,6 C 4,8 km/h (1 Bft)
06.09.2016 00:02 13,5 C 13,6 C 82 % 1023,0 hPa 0,0 mm 4,0 km/h (1 Bft) W-SW 251 0 min 0,000 mm 0,0 UV-I 0 W/m 10,5 C 6,4 km/h (2 Bft)
06.09.2016 00:03 13,5 C 13,6 C 82 % 1023,0 hPa 0,0 mm 5,2 km/h (1 Bft) W-SW 255 0 min 0,000 mm 0,0 UV-I 0 W/m 10,5 C 9,7 km/h (2 Bft)
06.09.2016 00:04 13,5 C 13,6 C 81 % 1023,0 hPa 0,0 mm 2,2 km/h (1 Bft) W-SW 254 0 min 0,000 mm 0,0 UV-I 0 W/m 10,3 C 4,8 km/h (1 Bft)
06.09.2016 00:05 13,6 C 13,6 C 81 % 1023,1 hPa 0,0 mm 0,9 km/h (0 Bft) W-SW 254 0 min 0,000 mm 0,0 UV-I 0 W/m 10,4 C 3,2 km/h (1 Bft)
06.09.2016 00:06 13,6 C 13,6 C 81 % 1023,0 hPa 0,0 mm 5,1 km/h (1 Bft) SW 234 0 min 0,000 mm 0,0 UV-I 0 W/m 10,4 C 8,0 km/h (2 Bft)
06.09.2016 00:07 13,5 C 13,6 C 81 % 1023,0 hPa 0,0 mm 5,0 km/h (1 Bft) W 259 0 min 0,000 mm 0,0 UV-I 0 W/m 10,3 C 9,7 km/h (2 Bft)
06.09.2016 00:08 13,6 C 13,6 C 81 % 1023,0 hPa 0,0 mm 3,8 km/h (1 Bft) SW 236 0 min 0,000 mm 0,0 UV-I 0 W/m 10,4 C 6,4 km/h (2 Bft)
06.09.2016 00:09 13,6 C 13,6 C 81 % 1023,1 hPa 0,0 mm 4,0 km/h (1 Bft) W-SW 250 0 min 0,000 mm 0,0 UV-I 0 W/m 10,4 C 6,4 km/h (2 Bft)
06.09.2016 00:10 13,6 C 13,6 C 82 % 1023,1 hPa 0,0 mm 4,8 km/h (1 Bft) W 269 0 min 0,000 mm 0,0 UV-I 0 W/m 10,6 C 9,7 km/h (2 Bft)
06.09.2016 00:11 13,6 C 13,6 C 82 % 1023,1 hPa 0,0 mm 3,4 km/h (1 Bft) W 264 0 min 0,000 mm 0,0 UV-I 0 W/m 10,6 C 4,8 km/h (1 Bft)
06.09.2016 00:12 13,6 C 13,6 C 82 % 1023,1 hPa 0,0 mm 4,9 km/h (1 Bft) W 277 0 min 0,000 mm 0,0 UV-I 0 W/m 10,6 C 8,0 km/h (2 Bft)
06.09.2016 00:13 13,6 C 13,6 C 82 % 1023,0 hPa 0,0 mm 4,0 km/h (1 Bft) W 277 0 min 0,000 mm 0,0 UV-I 0 W/m 10,6 C 6,4 km/h (2 Bft)
06.09.2016 00:14 13,6 C 13,6 C 82 % 1023,0 hPa 0,0 mm 7,6 km/h (2 Bft) W 260 0 min 0,000 mm 0,0 UV-I 0 W/m 10,6 C 12,9 km/h (3 Bft)
06.09.2016 00:15 13,6 C 13,6 C 82 % 1023,1 hPa 0,0 mm 8,7 km/h (2 Bft) W-SW 258 0 min 0,000 mm 0,0 UV-I 0 W/m 10,6 C 14,5 km/h (3 Bft)
06.09.2016 00:16 13,6 C 13,6 C 82 % 1023,1 hPa 0,0 mm 9,5 km/h (2 Bft) W 263 0 min 0,000 mm 0,0 UV-I 0 W/m 10,6 C 12,9 km/h (3 Bft)
06.09.2016 00:17 13,6 C 13,6 C 82 % 1023,0 hPa 0,0 mm 7,8 km/h (2 Bft) W 263 0 min 0,000 mm 0,0 UV-I 0 W/m 10,6 C 14,5 km/h (3 Bft)
06.09.2016 00:18 13,6 C 13,6 C 82 % 1023,0 hPa 0,0 mm 5,5 km/h (1 Bft) W-SW 243 0 min 0,000 mm 0,0 UV-I 0 W/m 10,6 C 11,3 km/h (2 Bft)
06.09.2016 00:19 13,6 C 13,6 C 82 % 1023,0 hPa 0,0 mm 7,5 km/h (2 Bft) W-SW 239 0 min 0,000 mm 0,0 UV-I 0 W/m 10,6 C 12,9 km/h (3 Bft)
06.09.2016 00:20 13,6 C 13,6 C 82 % 1023,0 hPa 0,0 mm 3,8 km/h (1 Bft) W-SW 243 0 min 0,000 mm 0,0 UV-I 0 W/m 10,6 C 4,8 km/h (1 Bft)
06.09.2016 00:21 13,6 C 13,6 C 81 % 1023,0 hPa 0,0 mm 3,9 km/h (1 Bft) W-SW 252 0 min 0,000 mm 0,0 UV-I 0 W/m 10,4 C 6,4 km/h (2 Bft)
06.09.2016 00:22 13,6 C 13,6 C 81 % 1023,0 hPa 0,0 mm 3,4 km/h (1 Bft) W-SW 250 0 min 0,000 mm 0,0 UV-I 0 W/m 10,4 C 6,4 km/h (2 Bft)
06.09.2016 00:23 13,6 C 13,6 C 81 % 1023,0 hPa 0,0 mm 2,5 km/h (1 Bft) SW 226 0 min 0,000 mm 0,0 UV-I 0 W/m 10,4 C 4,8 km/h (1 Bft)
06.09.2016 00:24 13,6 C 13,7 C 81 % 1023,0 hPa 0,0 mm 5,1 km/h (1 Bft) W-SW 254 0 min 0,000 mm 0,0 UV-I 0 W/m 10,4 C 6,4 km/h (2 Bft)
06.09.2016 00:25 13,7 C 13,7 C 81 % 1023,0 hPa 0,0 mm 4,2 km/h (1 Bft) W-SW 255 0 min 0,000 mm 0,0 UV-I 0 W/m 10,5 C 6,4 km/h (2 Bft)
06.09.2016 00:26 13,7 C 13,7 C 81 % 1023,0 hPa 0,0 mm 4,7 km/h (1 Bft) W-SW 253 0 min 0,000 mm 0,0 UV-I 0 W/m 10,5 C 6,4 km/h (2 Bft)
06.09.2016 00:27 13,7 C 13,7 C 81 % 1023,0 hPa 0,0 mm 3,2 km/h (1 Bft) W-SW 254 0 min 0,000 mm 0,0 UV-I 0 W/m 10,5 C 6,4 km/h (2 Bft)
06.09.2016 00:28 13,7 C 13,7 C 81 % 1023,0 hPa 0,0 mm 5,6 km/h (1 Bft) SW 219 0 min 0,000 mm 0,0 UV-I 0 W/m 10,5 C 9,7 km/h (2 Bft)
06.09.2016 00:29 13,7 C 13,7 C 81 % 1023,0 hPa 0,0 mm 2,1 km/h (1 Bft) S-SW 209 0 min 0,000 mm 0,0 UV-I 0 W/m 10,5 C 4,8 km/h (1 Bft)
06.09.2016 00:30 13,7 C 13,7 C 81 % 1023,0 hPa 0,0 mm 2,8 km/h (1 Bft) W-SW 256 0 min 0,000 mm 0,0 UV-I 0 W/m 10,5 C 8,0 km/h (2 Bft)
06.09.2016 00:31 13,7 C 13,7 C 81 % 1023,0 hPa 0,0 mm 4,2 km/h (1 Bft) W 269 0 min 0,000 mm 0,0 UV-I 0 W/m 10,5 C 6,4 km/h (2 Bft)
06.09.2016 00:32 13,7 C 13,7 C 81 % 1023,0 hPa 0,0 mm 7,1 km/h (2 Bft) W 262 0 min 0,000 mm 0,0 UV-I 0 W/m 10,5 C 11,3 km/h (2 Bft)
06.09.2016 00:33 13,7 C 13,7 C 81 % 1023,0 hPa 0,0 mm 4,0 km/h (1 Bft) W-SW 244 0 min 0,000 mm 0,0 UV-I 0 W/m 10,5 C 6,4 km/h (2 Bft)
06.09.2016 00:34 13,7 C 13,7 C 82 % 1023,1 hPa 0,0 mm 3,9 km/h (1 Bft) W-SW 248 0 min 0,000 mm 0,0 UV-I 0 W/m 10,7 C 6,4 km/h (2 Bft)
06.09.2016 00:35 13,7 C 13,7 C 81 % 1023,0 hPa 0,0 mm 5,0 km/h (1 Bft) W-SW 244 0 min 0,000 mm 0,0 UV-I 0 W/m 10,5 C 9,7 km/h (2 Bft)
06.09.2016 00:36 13,7 C 13,7 C 82 % 1023,0 hPa 0,0 mm 5,8 km/h (2 Bft) SW 236 0 min 0,000 mm 0,0 UV-I 0 W/m 10,7 C 11,3 km/h (2 Bft)
06.09.2016 00:37 13,7 C 13,7 C 81 % 1023,1 hPa 0,0 mm 4,1 km/h (1 Bft) W-SW 252 0 min 0,000 mm 0,0 UV-I 0 W/m 10,5 C 6,4 km/h (2 Bft)
06.09.2016 00:38 13,7 C 13,7 C 81 % 1023,0 hPa 0,0 mm 1,5 km/h (1 Bft) W-NW 284 0 min 0,000 mm 0,0 UV-I 0 W/m 10,5 C 3,2 km/h (1 Bft)
06.09.2016 00:39 13,7 C 13,7 C 81 % 1023,0 hPa 0,0 mm 4,0 km/h (1 Bft) W-SW 250 0 min 0,000 mm 0,0 UV-I 0 W/m 10,5 C 8,0 km/h (2 Bft)
06.09.2016 00:40 13,7 C 13,7 C 81 % 1023,0 hPa 0,0 mm 3,5 km/h (1 Bft) SW 232 0 min 0,000 mm 0,0 UV-I 0 W/m 10,5 C 8,0 km/h (2 Bft)
06.09.2016 00:41 13,7 C 13,7 C 81 % 1023,0 hPa 0,0 mm 6,2 km/h (2 Bft) SW 235 0 min 0,000 mm 0,0 UV-I 0 W/m 10,5 C 11,3 km/h (2 Bft)
06.09.2016 00:42 13,7 C 13,7 C 82 % 1023,1 hPa 0,0 mm 6,6 km/h (2 Bft) W 261 0 min 0,000 mm 0,0 UV-I 0 W/m 10,7 C 11,3 km/h (2 Bft)
06.09.2016 00:43 13,6 C 13,7 C 82 % 1023,1 hPa 0,0 mm 4,5 km/h (1 Bft) SW 234 0 min 0,000 mm 0,0 UV-I 0 W/m 10,6 C 11,3 km/h (2 Bft)
06.09.2016 00:44 13,6 C 13,6 C 82 % 1023,1 hPa 0,0 mm 4,8 km/h (1 Bft) W-SW 254 0 min 0,000 mm 0,0 UV-I 0 W/m 10,6 C 6,4 km/h (2 Bft)
06.09.2016 00:45 13,6 C 13,6 C 82 % 1023,1 hPa 0,0 mm 4,7 km/h (1 Bft) W-SW 242 0 min 0,000 mm 0,0 UV-I 0 W/m 10,6 C 6,4 km/h (2 Bft)
06.09.2016 00:46 13,6 C 13,6 C 82 % 1023,1 hPa 0,0 mm 5,5 km/h (1 Bft) W-SW 248 0 min 0,000 mm 0,0 UV-I 0 W/m 10,6 C 8,0 km/h (2 Bft)
06.09.2016 00:47 13,6 C 13,6 C 82 % 1023,1 hPa 0,0 mm 6,2 km/h (2 Bft) W-SW 244 0 min 0,000 mm 0,0 UV-I 0 W/m 10,6 C 11,3 km/h (2 Bft)
06.09.2016 00:48 13,6 C 13,6 C 82 % 1023,1 hPa 0,0 mm 4,1 km/h (1 Bft) W-SW 250 0 min 0,000 mm 0,0 UV-I 0 W/m 10,6 C 6,4 km/h (2 Bft)
06.09.2016 00:49 13,6 C 13,6 C 82 % 1023,2 hPa 0,0 mm 4,6 km/h (1 Bft) W 265 0 min 0,000 mm 0,0 UV-I 0 W/m 10,6 C 9,7 km/h (2 Bft)
06.09.2016 00:50 13,5 C 13,6 C 83 % 1023,2 hPa 0,0 mm 6,1 km/h (2 Bft) SW 215 0 min 0,000 mm 0,0 UV-I 0 W/m 10,7 C 8,0 km/h (2 Bft)
06.09.2016 00:51 13,5 C 13,6 C 83 % 1023,2 hPa 0,0 mm 9,8 km/h (2 Bft) W-SW 254 0 min 0,000 mm 0,0 UV-I 0 W/m 10,7 C 12,9 km/h (3 Bft)
06.09.2016 00:52 13,6 C 13,6 C 82 % 1023,2 hPa 0,0 mm 8,0 km/h (2 Bft) W-SW 251 0 min 0,000 mm 0,0 UV-I 0 W/m 10,6 C 14,5 km/h (3 Bft)
06.09.2016 00:53 13,6 C 13,6 C 82 % 1023,2 hPa 0,0 mm 4,4 km/h (1 Bft) W 271 0 min 0,000 mm 0,0 UV-I 0 W/m 10,6 C 6,4 km/h (2 Bft)
06.09.2016 00:54 13,6 C 13,6 C 82 % 1023,2 hPa 0,0 mm 8,9 km/h (2 Bft) W-SW 243 0 min 0,000 mm 0,0 UV-I 0 W/m 10,6 C 12,9 km/h (3 Bft)
06.09.2016 00:55 13,6 C 13,6 C 82 % 1023,2 hPa 0,0 mm 3,9 km/h (1 Bft) SW 214 0 min 0,000 mm 0,0 UV-I 0 W/m 10,6 C 8,0 km/h (2 Bft)
06.09.2016 00:56 13,6 C 13,6 C 82 % 1023,2 hPa 0,0 mm 3,9 km/h (1 Bft) W-SW 258 0 min 0,000 mm 0,0 UV-I 0 W/m 10,6 C 12,9 km/h (3 Bft)
06.09.2016 00:57 13,6 C 13,6 C 82 % 1023,2 hPa 0,0 mm 6,3 km/h (2 Bft) SW 227 0 min 0,000 mm 0,0 UV-I 0 W/m 10,6 C 11,3 km/h (2 Bft)
06.09.2016 00:58 13,6 C 13,6 C 82 % 1023,2 hPa 0,0 mm 8,9 km/h (2 Bft) W-SW 253 0 min 0,000 mm 0,0 UV-I 0 W/m 10,6 C 16,1 km/h (3 Bft)
06.09.2016 00:59 13,6 C 13,7 C 83 % 1023,2 hPa 0,0 mm 6,4 km/h (2 Bft) SW 215 0 min 0,000 mm 0,0 UV-I 0 W/m 10,8 C 12,9 km/h (3 Bft)
06.09.2016 01:00 13,6 C 13,7 C 82 % 1023,2 hPa 0,0 mm 6,2 km/h (2 Bft) W-SW 238 0 min 0,000 mm 0,0 UV-I 0 W/m 10,6 C 11,3 km/h (2 Bft)
06.09.2016 01:01 13,6 C 13,7 C 82 % 1023,2 hPa 0,0 mm 3,2 km/h (1 Bft) W-NW 284 0 min 0,025 mm 0,0 UV-I 0 W/m 10,6 C 4,8 km/h (1 Bft)
06.09.2016 01:02 13,6 C 13,6 C 83 % 1023,2 hPa 0,0 mm 3,8 km/h (1 Bft) W-SW 246 0 min 0,000 mm 0,0 UV-I 0 W/m 10,8 C 6,4 km/h (2 Bft)
06.09.2016 01:03 13,6 C 13,6 C 83 % 1023,1 hPa 0,0 mm 6,4 km/h (2 Bft) W-SW 250 0 min 0,000 mm 0,0 UV-I 0 W/m 10,8 C 9,7 km/h (2 Bft)
06.09.2016 01:04 13,6 C 13,6 C 83 % 1023,1 hPa 0,0 mm 7,3 km/h (2 Bft) W 265 0 min 0,000 mm 0,0 UV-I 0 W/m 10,8 C 17,7 km/h (3 Bft)
06.09.2016 01:05 13,6 C 13,6 C 83 % 1023,2 hPa 0,0 mm 4,7 km/h (1 Bft) W 263 0 min 0,000 mm 0,0 UV-I 0 W/m 10,8 C 8,0 km/h (2 Bft)
06.09.2016 01:06 13,6 C 13,6 C 83 % 1023,2 hPa 0,0 mm 5,3 km/h (1 Bft) W-SW 258 0 min 0,000 mm 0,0 UV-I 0 W/m 10,8 C 9,7 km/h (2 Bft)
06.09.2016 01:07 13,6 C 13,6 C 83 % 1023,2 hPa 0,0 mm 5,8 km/h (2 Bft) SW 224 0 min 0,000 mm 0,0 UV-I 0 W/m 10,8 C 11,3 km/h (2 Bft)
06.09.2016 01:08 13,6 C 13,6 C 83 % 1023,2 hPa 0,0 mm 5,3 km/h (1 Bft) W 266 0 min 0,000 mm 0,0 UV-I 0 W/m 10,8 C 8,0 km/h (2 Bft)
06.09.2016 01:09 13,6 C 13,6 C 83 % 1023,2 hPa 0,0 mm 2,7 km/h (1 Bft) W-NW 290 0 min 0,000 mm 0,0 UV-I 0 W/m 10,8 C 4,8 km/h (1 Bft)
06.09.2016 01:10 13,6 C 13,6 C 83 % 1023,2 hPa 0,0 mm 2,3 km/h (1 Bft) W-NW 290 0 min 0,000 mm 0,0 UV-I 0 W/m 10,8 C 3,2 km/h (1 Bft)
06.09.2016 01:11 13,6 C 13,6 C 83 % 1023,2 hPa 0,0 mm 4,1 km/h (1 Bft) W 272 0 min 0,000 mm 0,0 UV-I 0 W/m 10,8 C 9,7 km/h (2 Bft)
06.09.2016 01:12 13,6 C 13,6 C 83 % 1023,2 hPa 0,0 mm 4,4 km/h (1 Bft) W-SW 254 0 min 0,000 mm 0,0 UV-I 0 W/m 10,8 C 6,4 km/h (2 Bft)
06.09.2016 01:13 13,6 C 13,6 C 83 % 1023,3 hPa 0,0 mm 4,6 km/h (1 Bft) W 276 0 min 0,000 mm 0,0 UV-I 0 W/m 10,8 C 6,4 km/h (2 Bft)
06.09.2016 01:14 13,5 C 13,6 C 83 % 1023,3 hPa 0,0 mm 6,0 km/h (2 Bft) W 274 0 min 0,000 mm 0,0 UV-I 0 W/m 10,7 C 8,0 km/h (2 Bft)
06.09.2016 01:15 13,5 C 13,6 C 83 % 1023,2 hPa 0,0 mm 4,0 km/h (1 Bft) W 275 0 min 0,000 mm 0,0 UV-I 0 W/m 10,7 C 6,4 km/h (2 Bft)
06.09.2016 01:16 13,5 C 13,5 C 84 % 1023,2 hPa 0,0 mm 3,5 km/h (1 Bft) W-SW 254 0 min 0,000 mm 0,0 UV-I 0 W/m 10,8 C 4,8 km/h (1 Bft)
06.09.2016 01:17 13,4 C 13,5 C 84 % 1023,2 hPa 0,0 mm 3,4 km/h (1 Bft) W-NW 283 0 min 0,000 mm 0,0 UV-I 0 W/m 10,8 C 6,4 km/h (2 Bft)
06.09.2016 01:18 13,4 C 13,5 C 84 % 1023,2 hPa 0,0 mm 3,7 km/h (1 Bft) W-SW 250 0 min 0,000 mm 0,0 UV-I 0 W/m 10,8 C 4,8 km/h (1 Bft)
06.09.2016 01:19 13,4 C 13,4 C 84 % 1023,2 hPa 0,0 mm 4,1 km/h (1 Bft) W-SW 250 0 min 0,000 mm 0,0 UV-I 0 W/m 10,8 C 4,8 km/h (1 Bft)
06.09.2016 01:20 13,4 C 13,5 C 85 % 1023,2 hPa 0,0 mm 3,3 km/h (1 Bft) W-SW 257 0 min 0,000 mm 0,0 UV-I 0 W/m 10,9 C 6,4 km/h (2 Bft)
06.09.2016 01:21 13,4 C 13,4 C 85 % 1023,3 hPa 0,0 mm 2,7 km/h (1 Bft) W-SW 257 0 min 0,000 mm 0,0 UV-I 0 W/m 10,9 C 4,8 km/h (1 Bft)
06.09.2016 01:22 13,4 C 13,4 C 85 % 1023,3 hPa 0,0 mm 3,9 km/h (1 Bft) W-NW 288 0 min 0,000 mm 0,0 UV-I 0 W/m 10,9 C 6,4 km/h (2 Bft)
06.09.2016 01:23 13,4 C 13,4 C 85 % 1023,2 hPa 0,0 mm 4,1 km/h (1 Bft) W-SW 252 0 min 0,000 mm 0,0 UV-I 0 W/m 10,9 C 6,4 km/h (2 Bft)
06.09.2016 01:24 13,3 C 13,4 C 85 % 1023,2 hPa 0,0 mm 8,6 km/h (2 Bft) W 277 0 min 0,000 mm 0,0 UV-I 0 W/m 10,8 C 12,9 km/h (3 Bft)
06.09.2016 01:25 13,3 C 13,3 C 86 % 1023,3 hPa 0,0 mm 6,8 km/h (2 Bft) W-SW 251 0 min 0,000 mm 0,0 UV-I 0 W/m 11,0 C 12,9 km/h (3 Bft)
06.09.2016 01:26 13,3 C 13,3 C 85 % 1023,2 hPa 0,0 mm 5,6 km/h (1 Bft) W 265 0 min 0,000 mm 0,0 UV-I 0 W/m 10,8 C 9,7 km/h (2 Bft)
06.09.2016 01:27 13,3 C 13,3 C 85 % 1023,3 hPa 0,0 mm 5,2 km/h (1 Bft) W-SW 241 0 min 0,000 mm 0,0 UV-I 0 W/m 10,8 C 8,0 km/h (2 Bft)
06.09.2016 01:28 13,3 C 13,3 C 86 % 1023,3 hPa 0,0 mm 5,6 km/h (1 Bft) W 269 0 min 0,000 mm 0,0 UV-I 0 W/m 11,0 C 9,7 km/h (2 Bft)
06.09.2016 01:29 13,3 C 13,3 C 85 % 1023,3 hPa 0,0 mm 5,5 km/h (1 Bft) W 265 0 min 0,000 mm 0,0 UV-I 0 W/m 10,8 C 11,3 km/h (2 Bft)
06.09.2016 01:30 13,3 C 13,3 C 86 % 1023,3 hPa 0,0 mm 4,8 km/h (1 Bft) W 262 0 min 0,000 mm 0,0 UV-I 0 W/m 11,0 C 9,7 km/h (2 Bft)
06.09.2016 01:31 13,3 C 13,3 C 85 % 1023,3 hPa 0,0 mm 5,4 km/h (1 Bft) W-SW 252 0 min 0,000 mm 0,0 UV-I 0 W/m 10,8 C 8,0 km/h (2 Bft)
06.09.2016 01:32 13,3 C 13,3 C 86 % 1023,3 hPa 0,0 mm 5,5 km/h (1 Bft) W-SW 253 0 min 0,000 mm 0,0 UV-I 0 W/m 11,0 C 8,0 km/h (2 Bft)
06.09.2016 01:33 13,3 C 13,3 C 85 % 1023,3 hPa 0,0 mm 5,1 km/h (1 Bft) W-SW 247 0 min 0,000 mm 0,0 UV-I 0 W/m 10,8 C 6,4 km/h (2 Bft)
06.09.2016 01:34 13,3 C 13,3 C 86 % 1023,3 hPa 0,0 mm 2,4 km/h (1 Bft) W-SW 237 0 min 0,000 mm 0,0 UV-I 0 W/m 11,0 C 6,4 km/h (2 Bft)
06.09.2016 01:35 13,3 C 13,3 C 85 % 1023,2 hPa 0,0 mm 3,5 km/h (1 Bft) SW 232 0 min 0,000 mm 0,0 UV-I 0 W/m 10,8 C 4,8 km/h (1 Bft)
06.09.2016 01:36 13,3 C 13,3 C 85 % 1023,3 hPa 0,0 mm 5,1 km/h (1 Bft) W 274 0 min 0,000 mm 0,0 UV-I 0 W/m 10,8 C 11,3 km/h (2 Bft)
06.09.2016 01:37 13,3 C 13,3 C 86 % 1023,3 hPa 0,0 mm 4,5 km/h (1 Bft) W-SW 248 0 min 0,000 mm 0,0 UV-I 0 W/m 11,0 C 6,4 km/h (2 Bft)
06.09.2016 01:38 13,3 C 13,3 C 86 % 1023,3 hPa 0,0 mm 7,2 km/h (2 Bft) W 277 0 min 0,000 mm 0,0 UV-I 0 W/m 11,0 C 11,3 km/h (2 Bft)
06.09.2016 01:39 13,3 C 13,3 C 86 % 1023,3 hPa 0,0 mm 5,1 km/h (1 Bft) W 267 0 min 0,000 mm 0,0 UV-I 0 W/m 11,0 C 9,7 km/h (2 Bft)
06.09.2016 01:40 13,3 C 13,3 C 86 % 1023,3 hPa 0,0 mm 8,5 km/h (2 Bft) W-SW 249 0 min 0,000 mm 0,0 UV-I 0 W/m 11,0 C 12,9 km/h (3 Bft)
06.09.2016 01:41 13,3 C 13,3 C 86 % 1023,3 hPa 0,0 mm 6,4 km/h (2 Bft) W-SW 255 0 min 0,000 mm 0,0 UV-I 0 W/m 11,0 C 9,7 km/h (2 Bft)
06.09.2016 01:42 13,3 C 13,3 C 86 % 1023,3 hPa 0,0 mm 5,5 km/h (1 Bft) W-SW 251 0 min 0,000 mm 0,0 UV-I 0 W/m 11,0 C 8,0 km/h (2 Bft)
06.09.2016 01:43 13,3 C 13,3 C 86 % 1023,3 hPa 0,0 mm 5,7 km/h (1 Bft) W 261 0 min 0,000 mm 0,0 UV-I 0 W/m 11,0 C 11,3 km/h (2 Bft)
06.09.2016 01:44 13,3 C 13,3 C 86 % 1023,3 hPa 0,0 mm 4,3 km/h (1 Bft) SW 234 0 min 0,000 mm 0,0 UV-I 0 W/m 11,0 C 8,0 km/h (2 Bft)
06.09.2016 01:45 13,3 C 13,3 C 86 % 1023,3 hPa 0,0 mm 3,4 km/h (1 Bft) W 265 0 min 0,000 mm 0,0 UV-I 0 W/m 11,0 C 4,8 km/h (1 Bft)
06.09.2016 01:46 13,2 C 13,3 C 86 % 1023,3 hPa 0,0 mm 6,3 km/h (2 Bft) W 271 0 min 0,000 mm 0,0 UV-I 0 W/m 10,9 C 9,7 km/h (2 Bft)
06.09.2016 01:47 13,2 C 13,2 C 86 % 1023,3 hPa 0,0 mm 3,6 km/h (1 Bft) W 259 0 min 0,000 mm 0,0 UV-I 0 W/m 10,9 C 4,8 km/h (1 Bft)
06.09.2016 01:48 13,2 C 13,2 C 86 % 1023,3 hPa 0,0 mm 4,6 km/h (1 Bft) W-SW 248 0 min 0,000 mm 0,0 UV-I 0 W/m 10,9 C 11,3 km/h (2 Bft)
06.09.2016 01:49 13,2 C 13,2 C 86 % 1023,3 hPa 0,0 mm 4,9 km/h (1 Bft) W-SW 250 0 min 0,000 mm 0,0 UV-I 0 W/m 10,9 C 8,0 km/h (2 Bft)
06.09.2016 01:50 13,2 C 13,2 C 87 % 1023,3 hPa 0,0 mm 4,5 km/h (1 Bft) W-SW 250 0 min 0,000 mm 0,0 UV-I 0 W/m 11,1 C 8,0 km/h (2 Bft)
06.09.2016 01:51 13,2 C 13,2 C 87 % 1023,3 hPa 0,0 mm 9,5 km/h (2 Bft) W 276 0 min 0,000 mm 0,0 UV-I 0 W/m 11,1 C 14,5 km/h (3 Bft)
06.09.2016 01:52 13,2 C 13,2 C 87 % 1023,3 hPa 0,0 mm 7,3 km/h (2 Bft) W-SW 242 0 min 0,000 mm 0,0 UV-I 0 W/m 11,1 C 11,3 km/h (2 Bft)
06.09.2016 01:53 13,2 C 13,2 C 87 % 1023,3 hPa 0,0 mm 5,6 km/h (1 Bft) W-NW 283 0 min 0,000 mm 0,0 UV-I 0 W/m 11,1 C 11,3 km/h (2 Bft)
06.09.2016 01:54 13,2 C 13,2 C 87 % 1023,3 hPa 0,0 mm 6,4 km/h (2 Bft) S-SW 212 0 min 0,000 mm 0,0 UV-I 0 W/m 11,1 C 11,3 km/h (2 Bft)
06.09.2016 01:55 13,1 C 13,2 C 87 % 1023,2 hPa 0,0 mm 3,8 km/h (1 Bft) W 263 0 min 0,000 mm 0,0 UV-I 0 W/m 11,0 C 6,4 km/h (2 Bft)
06.09.2016 01:56 13,1 C 13,1 C 87 % 1023,3 hPa 0,0 mm 6,7 km/h (2 Bft) SW 219 0 min 0,000 mm 0,0 UV-I 0 W/m 11,0 C 12,9 km/h (3 Bft)
06.09.2016 01:57 13,1 C 13,1 C 87 % 1023,2 hPa 0,0 mm 3,0 km/h (1 Bft) SW 223 0 min 0,000 mm 0,0 UV-I 0 W/m 11,0 C 8,0 km/h (2 Bft)
06.09.2016 01:58 13,1 C 13,1 C 87 % 1023,2 hPa 0,0 mm 5,4 km/h (1 Bft) W-SW 257 0 min 0,000 mm 0,0 UV-I 0 W/m 11,0 C 9,7 km/h (2 Bft)
06.09.2016 01:59 13,1 C 13,1 C 87 % 1023,3 hPa 0,0 mm 5,3 km/h (1 Bft) W-SW 256 0 min 0,000 mm 0,0 UV-I 0 W/m 11,0 C 9,7 km/h (2 Bft)
06.09.2016 02:00 13,1 C 13,1 C 87 % 1023,3 hPa 0,0 mm 10,5 km/h (2 Bft) W-SW 258 0 min 0,000 mm 0,0 UV-I 0 W/m 11,0 C 16,1 km/h (3 Bft)
06.09.2016 02:01 13,1 C 13,1 C 87 % 1023,3 hPa 0,0 mm 4,8 km/h (1 Bft) W-SW 246 0 min 0,025 mm 0,0 UV-I 0 W/m 11,0 C 9,7 km/h (2 Bft)
06.09.2016 02:02 13,1 C 13,1 C 87 % 1023,3 hPa 0,0 mm 1,6 km/h (1 Bft) SW 223 0 min 0,001 mm 0,0 UV-I 0 W/m 11,0 C 3,2 km/h (1 Bft)
06.09.2016 02:03 13,1 C 13,1 C 87 % 1023,3 hPa 0,0 mm 3,6 km/h (1 Bft) SW 226 0 min 0,000 mm 0,0 UV-I 0 W/m 11,0 C 6,4 km/h (2 Bft)
06.09.2016 02:04 13,1 C 13,1 C 87 % 1023,3 hPa 0,0 mm 4,1 km/h (1 Bft) W-SW 241 0 min 0,000 mm 0,0 UV-I 0 W/m 11,0 C 4,8 km/h (1 Bft)
06.09.2016 02:05 13,1 C 13,1 C 87 % 1023,3 hPa 0,0 mm 2,5 km/h (1 Bft) S 186 0 min 0,000 mm 0,0 UV-I 0 W/m 11,0 C 4,8 km/h (1 Bft)
06.09.2016 02:06 13,1 C 13,1 C 87 % 1023,3 hPa 0,0 mm 3,9 km/h (1 Bft) W 265 0 min 0,000 mm 0,0 UV-I 0 W/m 11,0 C 6,4 km/h (2 Bft)
06.09.2016 02:07 13,1 C 13,1 C 87 % 1023,3 hPa 0,0 mm 4,0 km/h (1 Bft) W 265 0 min 0,000 mm 0,0 UV-I 0 W/m 11,0 C 6,4 km/h (2 Bft)
06.09.2016 02:08 13,1 C 13,2 C 87 % 1023,3 hPa 0,0 mm 7,8 km/h (2 Bft) SW 234 0 min 0,000 mm 0,0 UV-I 0 W/m 11,0 C 12,9 km/h (3 Bft)
06.09.2016 02:09 13,1 C 13,2 C 87 % 1023,3 hPa 0,0 mm 4,8 km/h (1 Bft) SW 225 0 min 0,000 mm 0,0 UV-I 0 W/m 11,0 C 6,4 km/h (2 Bft)
06.09.2016 02:10 13,1 C 13,2 C 87 % 1023,4 hPa 0,0 mm 6,9 km/h (2 Bft) S-SW 208 0 min 0,000 mm 0,0 UV-I 0 W/m 11,0 C 12,9 km/h (3 Bft)
06.09.2016 02:11 13,1 C 13,1 C 87 % 1023,4 hPa 0,0 mm 3,1 km/h (1 Bft) SW 227 0 min 0,000 mm 0,0 UV-I 0 W/m 11,0 C 8,0 km/h (2 Bft)
06.09.2016 02:12 13,1 C 13,1 C 87 % 1023,4 hPa 0,0 mm 5,6 km/h (1 Bft) W-SW 248 0 min 0,000 mm 0,0 UV-I 0 W/m 11,0 C 8,0 km/h (2 Bft)
06.09.2016 02:13 13,1 C 13,1 C 87 % 1023,4 hPa 0,0 mm 5,5 km/h (1 Bft) W-SW 256 0 min 0,000 mm 0,0 UV-I 0 W/m 11,0 C 8,0 km/h (2 Bft)
06.09.2016 02:14 13,1 C 13,1 C 87 % 1023,4 hPa 0,0 mm 3,2 km/h (1 Bft) W 259 0 min 0,000 mm 0,0 UV-I 0 W/m 11,0 C 9,7 km/h (2 Bft)
06.09.2016 02:15 13,1 C 13,1 C 87 % 1023,4 hPa 0,0 mm 3,2 km/h (1 Bft) W 259 0 min 0,000 mm 0,0 UV-I 0 W/m 11,0 C 6,4 km/h (2 Bft)
06.09.2016 02:16 13,1 C 13,1 C 87 % 1023,5 hPa 0,0 mm 3,6 km/h (1 Bft) W-SW 249 0 min 0,000 mm 0,0 UV-I 0 W/m 11,0 C 6,4 km/h (2 Bft)
06.09.2016 02:17 13,1 C 13,1 C 87 % 1023,4 hPa 0,0 mm 1,7 km/h (1 Bft) SW 229 0 min 0,000 mm 0,0 UV-I 0 W/m 11,0 C 4,8 km/h (1 Bft)
06.09.2016 02:18 13,1 C 13,1 C 87 % 1023,3 hPa 0,0 mm 2,4 km/h (1 Bft) S 181 0 min 0,000 mm 0,0 UV-I 0 W/m 11,0 C 4,8 km/h (1 Bft)
06.09.2016 02:19 13,1 C 13,1 C 87 % 1023,5 hPa 0,0 mm 4,8 km/h (1 Bft) W-SW 245 0 min 0,000 mm 0,0 UV-I 0 W/m 11,0 C 9,7 km/h (2 Bft)
06.09.2016 02:20 13,1 C 13,1 C 87 % 1023,4 hPa 0,0 mm 3,6 km/h (1 Bft) W-SW 252 0 min 0,000 mm 0,0 UV-I 0 W/m 11,0 C 6,4 km/h (2 Bft)
06.09.2016 02:21 13,1 C 13,1 C 87 % 1023,4 hPa 0,0 mm 6,2 km/h (2 Bft) W 260 0 min 0,000 mm 0,0 UV-I 0 W/m 11,0 C 11,3 km/h (2 Bft)
06.09.2016 02:22 13,2 C 13,2 C 88 % 1023,4 hPa 0,0 mm 3,8 km/h (1 Bft) SW 232 0 min 0,000 mm 0,0 UV-I 0 W/m 11,3 C 6,4 km/h (2 Bft)
06.09.2016 02:23 13,2 C 13,2 C 87 % 1023,4 hPa 0,0 mm 4,8 km/h (1 Bft) W 261 0 min 0,000 mm 0,0 UV-I 0 W/m 11,1 C 9,7 km/h (2 Bft)
06.09.2016 02:24 13,1 C 13,2 C 88 % 1023,4 hPa 0,0 mm 5,9 km/h (2 Bft) W-SW 250 0 min 0,000 mm 0,0 UV-I 0 W/m 11,2 C 9,7 km/h (2 Bft)
06.09.2016 02:25 13,2 C 13,2 C 88 % 1023,3 hPa 0,0 mm 5,8 km/h (2 Bft) S 180 0 min 0,000 mm 0,0 UV-I 0 W/m 11,3 C 8,0 km/h (2 Bft)
06.09.2016 02:26 13,1 C 13,2 C 87 % 1023,3 hPa 0,0 mm 3,5 km/h (1 Bft) SW 229 0 min 0,000 mm 0,0 UV-I 0 W/m 11,0 C 8,0 km/h (2 Bft)
06.09.2016 02:27 13,2 C 13,2 C 88 % 1023,3 hPa 0,0 mm 6,2 km/h (2 Bft) SW 236 0 min 0,000 mm 0,0 UV-I 0 W/m 11,3 C 9,7 km/h (2 Bft)
06.09.2016 02:28 13,1 C 13,2 C 88 % 1023,3 hPa 0,0 mm 3,8 km/h (1 Bft) W 263 0 min 0,000 mm 0,0 UV-I 0 W/m 11,2 C 4,8 km/h (1 Bft)
06.09.2016 02:29 13,2 C 13,2 C 88 % 1023,4 hPa 0,0 mm 5,2 km/h (1 Bft) SW 236 0 min 0,000 mm 0,0 UV-I 0 W/m 11,3 C 9,7 km/h (2 Bft)
06.09.2016 02:30 13,2 C 13,2 C 87 % 1023,4 hPa 0,0 mm 2,3 km/h (1 Bft) W 260 0 min 0,000 mm 0,0 UV-I 0 W/m 11,1 C 4,8 km/h (1 Bft)
06.09.2016 02:31 13,2 C 13,2 C 88 % 1023,4 hPa 0,0 mm 4,6 km/h (1 Bft) SW 228 0 min 0,000 mm 0,0 UV-I 0 W/m 11,3 C 6,4 km/h (2 Bft)
06.09.2016 02:32 13,2 C 13,2 C 88 % 1023,5 hPa 0,0 mm 3,6 km/h (1 Bft) W-SW 255 0 min 0,000 mm 0,0 UV-I 0 W/m 11,3 C 6,4 km/h (2 Bft)
06.09.2016 02:33 13,2 C 13,2 C 88 % 1023,4 hPa 0,0 mm 4,0 km/h (1 Bft) W-SW 257 0 min 0,000 mm 0,0 UV-I 0 W/m 11,3 C 6,4 km/h (2 Bft)
06.09.2016 02:34 13,2 C 13,2 C 88 % 1023,4 hPa 0,0 mm 3,4 km/h (1 Bft) W 264 0 min 0,000 mm 0,0 UV-I 0 W/m 11,3 C 4,8 km/h (1 Bft)
06.09.2016 02:35 13,2 C 13,2 C 88 % 1023,4 hPa 0,0 mm 3,7 km/h (1 Bft) W 265 0 min 0,000 mm 0,0 UV-I 0 W/m 11,3 C 4,8 km/h (1 Bft)
06.09.2016 02:36 13,1 C 13,2 C 88 % 1023,5 hPa 0,0 mm 2,0 km/h (1 Bft) W 265 0 min 0,000 mm 0,0 UV-I 0 W/m 11,2 C 3,2 km/h (1 Bft)
06.09.2016 02:37 13,2 C 13,2 C 88 % 1023,5 hPa 0,0 mm 3,2 km/h (1 Bft) W 266 0 min 0,000 mm 0,0 UV-I 0 W/m 11,3 C 4,8 km/h (1 Bft)
06.09.2016 02:38 13,2 C 13,2 C 88 % 1023,5 hPa 0,0 mm 0,9 km/h (0 Bft) W 266 0 min 0,000 mm 0,0 UV-I 0 W/m 11,3 C 1,6 km/h (1 Bft)
06.09.2016 02:39 13,2 C 13,2 C 88 % 1023,5 hPa 0,0 mm 1,2 km/h (1 Bft) W 266 0 min 0,000 mm 0,0 UV-I 0 W/m 11,3 C 3,2 km/h (1 Bft)
06.09.2016 02:40 13,2 C 13,2 C 88 % 1023,5 hPa 0,0 mm 3,2 km/h (1 Bft) W 268 0 min 0,000 mm 0,0 UV-I 0 W/m 11,3 C 4,8 km/h (1 Bft)
06.09.2016 02:41 13,2 C 13,2 C 88 % 1023,5 hPa 0,0 mm 3,8 km/h (1 Bft) W 265 0 min 0,000 mm 0,0 UV-I 0 W/m 11,3 C 4,8 km/h (1 Bft)
06.09.2016 02:42 13,2 C 13,2 C 88 % 1023,5 hPa 0,0 mm 2,5 km/h (1 Bft) W-SW 256 0 min 0,000 mm 0,0 UV-I 0 W/m 11,3 C 4,8 km/h (1 Bft)
06.09.2016 02:43 13,2 C 13,2 C 88 % 1023,5 hPa 0,0 mm 1,9 km/h (1 Bft) W-SW 258 0 min 0,000 mm 0,0 UV-I 0 W/m 11,3 C 4,8 km/h (1 Bft)
06.09.2016 02:44 13,2 C 13,2 C 88 % 1023,5 hPa 0,0 mm 2,9 km/h (1 Bft) W 259 0 min 0,000 mm 0,0 UV-I 0 W/m 11,3 C 4,8 km/h (1 Bft)
06.09.2016 02:45 13,2 C 13,2 C 88 % 1023,5 hPa 0,0 mm 3,5 km/h (1 Bft) W-SW 254 0 min 0,000 mm 0,0 UV-I 0 W/m 11,3 C 4,8 km/h (1 Bft)
06.09.2016 02:46 13,2 C 13,2 C 88 % 1023,5 hPa 0,0 mm 2,7 km/h (1 Bft) W-SW 254 0 min 0,000 mm 0,0 UV-I 0 W/m 11,3 C 4,8 km/h (1 Bft)
06.09.2016 02:47 13,2 C 13,2 C 88 % 1023,5 hPa 0,0 mm 3,2 km/h (1 Bft) W 264 0 min 0,000 mm 0,0 UV-I 0 W/m 11,3 C 4,8 km/h (1 Bft)
06.09.2016 02:48 13,2 C 13,2 C 88 % 1023,6 hPa 0,0 mm 2,1 km/h (1 Bft) W 263 0 min 0,000 mm 0,0 UV-I 0 W/m 11,3 C 4,8 km/h (1 Bft)
06.09.2016 02:49 13,2 C 13,2 C 88 % 1023,5 hPa 0,0 mm 2,7 km/h (1 Bft) SW 221 0 min 0,000 mm 0,0 UV-I 0 W/m 11,3 C 6,4 km/h (2 Bft)
06.09.2016 02:50 13,2 C 13,2 C 88 % 1023,5 hPa 0,0 mm 3,8 km/h (1 Bft) SW 214 0 min 0,000 mm 0,0 UV-I 0 W/m 11,3 C 8,0 km/h (2 Bft)
06.09.2016 02:51 13,2 C 13,2 C 87 % 1023,5 hPa 0,0 mm 4,2 km/h (1 Bft) SW 221 0 min 0,000 mm 0,0 UV-I 0 W/m 11,1 C 9,7 km/h (2 Bft)
06.09.2016 02:52 13,2 C 13,3 C 88 % 1023,5 hPa 0,0 mm 5,4 km/h (1 Bft) W-SW 245 0 min 0,000 mm 0,0 UV-I 0 W/m 11,3 C 9,7 km/h (2 Bft)
06.09.2016 02:53 13,3 C 13,3 C 88 % 1023,5 hPa 0,0 mm 4,7 km/h (1 Bft) W-SW 252 0 min 0,000 mm 0,0 UV-I 0 W/m 11,4 C 6,4 km/h (2 Bft)
06.09.2016 02:54 13,3 C 13,3 C 88 % 1023,5 hPa 0,0 mm 5,0 km/h (1 Bft) W-NW 284 0 min 0,000 mm 0,0 UV-I 0 W/m 11,4 C 6,4 km/h (2 Bft)
06.09.2016 02:55 13,3 C 13,3 C 87 % 1023,5 hPa 0,0 mm 4,7 km/h (1 Bft) W-SW 258 0 min 0,000 mm 0,0 UV-I 0 W/m 11,2 C 6,4 km/h (2 Bft)
06.09.2016 02:56 13,3 C 13,3 C 88 % 1023,6 hPa 0,0 mm 3,9 km/h (1 Bft) W 281 0 min 0,000 mm 0,0 UV-I 0 W/m 11,4 C 6,4 km/h (2 Bft)
06.09.2016 02:57 13,3 C 13,3 C 87 % 1023,6 hPa 0,0 mm 3,7 km/h (1 Bft) W 268 0 min 0,000 mm 0,0 UV-I 0 W/m 11,2 C 6,4 km/h (2 Bft)
06.09.2016 02:58 13,3 C 13,3 C 87 % 1023,5 hPa 0,0 mm 3,4 km/h (1 Bft) W 277 0 min 0,000 mm 0,0 UV-I 0 W/m 11,2 C 4,8 km/h (1 Bft)
06.09.2016 02:59 13,3 C 13,3 C 88 % 1023,6 hPa 0,0 mm 3,0 km/h (1 Bft) W-SW 251 0 min 0,000 mm 0,0 UV-I 0 W/m 11,4 C 4,8 km/h (1 Bft)
06.09.2016 03:00 13,3 C 13,3 C 88 % 1023,6 hPa 0,0 mm 4,2 km/h (1 Bft) W-SW 244 0 min 0,000 mm 0,0 UV-I 0 W/m 11,4 C 6,4 km/h (2 Bft)
06.09.2016 03:01 13,2 C 13,3 C 88 % 1023,5 hPa 0,0 mm 7,4 km/h (2 Bft) W-SW 258 0 min 0,025 mm 0,0 UV-I 0 W/m 11,3 C 12,9 km/h (3 Bft)
06.09.2016 03:02 13,2 C 13,2 C 88 % 1023,5 hPa 0,0 mm 5,1 km/h (1 Bft) W-SW 241 0 min 0,000 mm 0,0 UV-I 0 W/m 11,3 C 9,7 km/h (2 Bft)
06.09.2016 03:03 13,2 C 13,2 C 88 % 1023,5 hPa 0,0 mm 8,7 km/h (2 Bft) W 263 0 min 0,000 mm 0,0 UV-I 0 W/m 11,3 C 12,9 km/h (3 Bft)
06.09.2016 03:04 13,2 C 13,2 C 88 % 1023,5 hPa 0,0 mm 5,2 km/h (1 Bft) W-SW 243 0 min 0,000 mm 0,0 UV-I 0 W/m 11,3 C 6,4 km/h (2 Bft)
06.09.2016 03:05 13,2 C 13,2 C 88 % 1023,6 hPa 0,0 mm 5,1 km/h (1 Bft) SW 236 0 min 0,000 mm 0,0 UV-I 0 W/m 11,3 C 6,4 km/h (2 Bft)
06.09.2016 03:06 13,2 C 13,2 C 88 % 1023,6 hPa 0,0 mm 3,5 km/h (1 Bft) W 263 0 min 0,000 mm 0,0 UV-I 0 W/m 11,3 C 9,7 km/h (2 Bft)
06.09.2016 03:07 13,2 C 13,3 C 88 % 1023,6 hPa 0,0 mm 7,1 km/h (2 Bft) W 271 0 min 0,000 mm 0,0 UV-I 0 W/m 11,3 C 9,7 km/h (2 Bft)
06.09.2016 03:08 13,3 C 13,3 C 88 % 1023,6 hPa 0,0 mm 6,3 km/h (2 Bft) W 265 0 min 0,000 mm 0,0 UV-I 0 W/m 11,4 C 9,7 km/h (2 Bft)
06.09.2016 03:09 13,3 C 13,3 C 88 % 1023,6 hPa 0,0 mm 5,5 km/h (1 Bft) W 259 0 min 0,000 mm 0,0 UV-I 0 W/m 11,4 C 6,4 km/h (2 Bft)
06.09.2016 03:10 13,3 C 13,3 C 87 % 1023,6 hPa 0,0 mm 5,4 km/h (1 Bft) W-NW 291 0 min 0,000 mm 0,0 UV-I 0 W/m 11,2 C 11,3 km/h (2 Bft)
06.09.2016 03:11 13,3 C 13,3 C 88 % 1023,6 hPa 0,0 mm 5,6 km/h (1 Bft) W 268 0 min 0,000 mm 0,0 UV-I 0 W/m 11,4 C 11,3 km/h (2 Bft)
06.09.2016 03:12 13,3 C 13,3 C 88 % 1023,6 hPa 0,0 mm 6,4 km/h (2 Bft) W 265 0 min 0,000 mm 0,0 UV-I 0 W/m 11,4 C 11,3 km/h (2 Bft)
06.09.2016 03:13 13,2 C 13,3 C 88 % 1023,6 hPa 0,0 mm 1,7 km/h (1 Bft) W 265 0 min 0,000 mm 0,0 UV-I 0 W/m 11,3 C 3,2 km/h (1 Bft)
06.09.2016 03:14 13,2 C 13,2 C 88 % 1023,6 hPa 0,0 mm 2,9 km/h (1 Bft) SW 234 0 min 0,000 mm 0,0 UV-I 0 W/m 11,3 C 6,4 km/h (2 Bft)
06.09.2016 03:15 13,2 C 13,2 C 88 % 1023,6 hPa 0,0 mm 6,8 km/h (2 Bft) SW 217 0 min 0,000 mm 0,0 UV-I 0 W/m 11,3 C 9,7 km/h (2 Bft)
06.09.2016 03:16 13,2 C 13,2 C 88 % 1023,6 hPa 0,0 mm 7,8 km/h (2 Bft) SW 225 0 min 0,000 mm 0,0 UV-I 0 W/m 11,3 C 12,9 km/h (3 Bft)
06.09.2016 03:17 13,1 C 13,2 C 88 % 1023,6 hPa 0,0 mm 4,3 km/h (1 Bft) W 278 0 min 0,000 mm 0,0 UV-I 0 W/m 11,2 C 8,0 km/h (2 Bft)
06.09.2016 03:18 13,1 C 13,2 C 88 % 1023,6 hPa 0,0 mm 3,4 km/h (1 Bft) W-SW 256 0 min 0,000 mm 0,0 UV-I 0 W/m 11,2 C 6,4 km/h (2 Bft)
06.09.2016 03:19 13,1 C 13,2 C 88 % 1023,6 hPa 0,0 mm 4,0 km/h (1 Bft) W-SW 247 0 min 0,000 mm 0,0 UV-I 0 W/m 11,2 C 8,0 km/h (2 Bft)
06.09.2016 03:20 13,1 C 13,1 C 88 % 1023,6 hPa 0,0 mm 4,2 km/h (1 Bft) W 269 0 min 0,000 mm 0,0 UV-I 0 W/m 11,2 C 6,4 km/h (2 Bft)
06.09.2016 03:21 13,1 C 13,1 C 88 % 1023,6 hPa 0,0 mm 5,6 km/h (1 Bft) W-SW 244 0 min 0,000 mm 0,0 UV-I 0 W/m 11,2 C 8,0 km/h (2 Bft)
06.09.2016 03:22 13,1 C 13,1 C 88 % 1023,6 hPa 0,0 mm 5,0 km/h (1 Bft) W-SW 246 0 min 0,000 mm 0,0 UV-I 0 W/m 11,2 C 8,0 km/h (2 Bft)
06.09.2016 03:23 13,1 C 13,1 C 88 % 1023,6 hPa 0,0 mm 2,0 km/h (1 Bft) W-SW 254 0 min 0,000 mm 0,0 UV-I 0 W/m 11,2 C 3,2 km/h (1 Bft)
06.09.2016 03:24 13,1 C 13,1 C 88 % 1023,5 hPa 0,0 mm 3,3 km/h (1 Bft) W-SW 257 0 min 0,000 mm 0,0 UV-I 0 W/m 11,2 C 4,8 km/h (1 Bft)
06.09.2016 03:25 13,0 C 13,1 C 89 % 1023,5 hPa 0,0 mm 2,9 km/h (1 Bft) W-SW 240 0 min 0,000 mm 0,0 UV-I 0 W/m 11,2 C 4,8 km/h (1 Bft)
06.09.2016 03:26 13,0 C 13,1 C 88 % 1023,5 hPa 0,0 mm 2,1 km/h (1 Bft) SW 228 0 min 0,000 mm 0,0 UV-I 0 W/m 11,1 C 6,4 km/h (2 Bft)
06.09.2016 03:27 12,9 C 13,0 C 89 % 1023,6 hPa 0,0 mm 4,1 km/h (1 Bft) W-SW 256 0 min 0,000 mm 0,0 UV-I 0 W/m 11,1 C 6,4 km/h (2 Bft)
06.09.2016 03:28 12,9 C 13,0 C 89 % 1023,5 hPa 0,0 mm 5,0 km/h (1 Bft) W-SW 257 0 min 0,000 mm 0,0 UV-I 0 W/m 11,1 C 6,4 km/h (2 Bft)
06.09.2016 03:29 12,9 C 12,9 C 89 % 1023,5 hPa 0,0 mm 3,1 km/h (1 Bft) W-SW 250 0 min 0,000 mm 0,0 UV-I 0 W/m 11,1 C 4,8 km/h (1 Bft)
06.09.2016 03:30 12,9 C 12,9 C 89 % 1023,5 hPa 0,0 mm 1,8 km/h (1 Bft) W-SW 250 0 min 0,000 mm 0,0 UV-I 0 W/m 11,1 C 3,2 km/h (1 Bft)
06.09.2016 03:31 12,9 C 12,9 C 89 % 1023,5 hPa 0,0 mm 4,0 km/h (1 Bft) W-SW 246 0 min 0,000 mm 0,0 UV-I 0 W/m 11,1 C 6,4 km/h (2 Bft)
06.09.2016 03:32 12,9 C 12,9 C 89 % 1023,5 hPa 0,0 mm 3,9 km/h (1 Bft) W-SW 258 0 min 0,000 mm 0,0 UV-I 0 W/m 11,1 C 9,7 km/h (2 Bft)
06.09.2016 03:33 12,9 C 12,9 C 89 % 1023,5 hPa 0,0 mm 5,2 km/h (1 Bft) W-SW 257 0 min 0,000 mm 0,0 UV-I 0 W/m 11,1 C 11,3 km/h (2 Bft)
06.09.2016 03:34 12,9 C 12,9 C 89 % 1023,4 hPa 0,0 mm 6,2 km/h (2 Bft) W 261 0 min 0,000 mm 0,0 UV-I 0 W/m 11,1 C 9,7 km/h (2 Bft)
06.09.2016 03:35 12,9 C 12,9 C 89 % 1023,4 hPa 0,0 mm 3,9 km/h (1 Bft) S-SW 200 0 min 0,000 mm 0,0 UV-I 0 W/m 11,1 C 6,4 km/h (2 Bft)
06.09.2016 03:36 12,9 C 12,9 C 89 % 1023,5 hPa 0,0 mm 3,5 km/h (1 Bft) W-SW 243 0 min 0,000 mm 0,0 UV-I 0 W/m 11,1 C 4,8 km/h (1 Bft)
06.09.2016 03:37 12,9 C 12,9 C 89 % 1023,4 hPa 0,0 mm 3,2 km/h (1 Bft) W-SW 250 0 min 0,000 mm 0,0 UV-I 0 W/m 11,1 C 6,4 km/h (2 Bft)
06.09.2016 03:38 12,9 C 12,9 C 89 % 1023,4 hPa 0,0 mm 3,4 km/h (1 Bft) W-SW 257 0 min 0,000 mm 0,0 UV-I 0 W/m 11,1 C 4,8 km/h (1 Bft)
06.09.2016 03:39 12,9 C 12,9 C 89 % 1023,5 hPa 0,0 mm 1,6 km/h (1 Bft) W-SW 255 0 min 0,000 mm 0,0 UV-I 0 W/m 11,1 C 3,2 km/h (1 Bft)
06.09.2016 03:40 12,9 C 12,9 C 89 % 1023,4 hPa 0,0 mm 3,2 km/h (1 Bft) W-SW 240 0 min 0,000 mm 0,0 UV-I 0 W/m 11,1 C 8,0 km/h (2 Bft)
06.09.2016 03:41 12,9 C 12,9 C 89 % 1023,4 hPa 0,0 mm 1,3 km/h (1 Bft) W-SW 240 0 min 0,000 mm 0,0 UV-I 0 W/m 11,1 C 3,2 km/h (1 Bft)
06.09.2016 03:42 12,9 C 12,9 C 89 % 1023,4 hPa 0,0 mm 1,0 km/h (0 Bft) SW 236 0 min 0,000 mm 0,0 UV-I 0 W/m 11,1 C 4,8 km/h (1 Bft)
06.09.2016 03:43 12,9 C 12,9 C 89 % 1023,5 hPa 0,0 mm 2,5 km/h (1 Bft) SW 227 0 min 0,000 mm 0,0 UV-I 0 W/m 11,1 C 4,8 km/h (1 Bft)
06.09.2016 03:44 12,9 C 12,9 C 89 % 1023,5 hPa 0,0 mm 3,0 km/h (1 Bft) W-SW 256 0 min 0,000 mm 0,0 UV-I 0 W/m 11,1 C 6,4 km/h (2 Bft)
06.09.2016 03:45 12,9 C 12,9 C 89 % 1023,5 hPa 0,0 mm 5,0 km/h (1 Bft) W-SW 244 0 min 0,000 mm 0,0 UV-I 0 W/m 11,1 C 8,0 km/h (2 Bft)
06.09.2016 03:46 12,9 C 12,9 C 89 % 1023,5 hPa 0,0 mm 4,8 km/h (1 Bft) W 273 0 min 0,000 mm 0,0 UV-I 0 W/m 11,1 C 11,3 km/h (2 Bft)
06.09.2016 03:47 12,9 C 12,9 C 89 % 1023,5 hPa 0,0 mm 5,7 km/h (1 Bft) W-SW 257 0 min 0,000 mm 0,0 UV-I 0 W/m 11,1 C 9,7 km/h (2 Bft)
06.09.2016 03:48 12,9 C 12,9 C 89 % 1023,5 hPa 0,0 mm 2,6 km/h (1 Bft) SW 224 0 min 0,000 mm 0,0 UV-I 0 W/m 11,1 C 4,8 km/h (1 Bft)
06.09.2016 03:49 12,8 C 12,9 C 89 % 1023,6 hPa 0,0 mm 4,4 km/h (1 Bft) W-SW 257 0 min 0,000 mm 0,0 UV-I 0 W/m 11,0 C 8,0 km/h (2 Bft)
06.09.2016 03:50 12,9 C 12,9 C 89 % 1023,5 hPa 0,0 mm 3,0 km/h (1 Bft) SW 215 0 min 0,000 mm 0,0 UV-I 0 W/m 11,1 C 4,8 km/h (1 Bft)
06.09.2016 03:51 12,9 C 12,9 C 89 % 1023,5 hPa 0,0 mm 3,2 km/h (1 Bft) SW 225 0 min 0,000 mm 0,0 UV-I 0 W/m 11,1 C 4,8 km/h (1 Bft)
06.09.2016 03:52 12,9 C 12,9 C 89 % 1023,5 hPa 0,0 mm 4,7 km/h (1 Bft) W 267 0 min 0,000 mm 0,0 UV-I 0 W/m 11,1 C 9,7 km/h (2 Bft)
06.09.2016 03:53 12,8 C 12,9 C 89 % 1023,6 hPa 0,0 mm 3,8 km/h (1 Bft) W-NW 282 0 min 0,000 mm 0,0 UV-I 0 W/m 11,0 C 9,7 km/h (2 Bft)
06.09.2016 03:54 12,8 C 12,8 C 89 % 1023,5 hPa 0,0 mm 2,5 km/h (1 Bft) W 274 0 min 0,000 mm 0,0 UV-I 0 W/m 11,0 C 4,8 km/h (1 Bft)
06.09.2016 03:55 12,8 C 12,8 C 89 % 1023,6 hPa 0,0 mm 2,5 km/h (1 Bft) W-NW 290 0 min 0,000 mm 0,0 UV-I 0 W/m 11,0 C 4,8 km/h (1 Bft)
06.09.2016 03:56 12,8 C 12,8 C 90 % 1023,6 hPa 0,0 mm 6,0 km/h (2 Bft) NW 308 0 min 0,000 mm 0,0 UV-I 0 W/m 11,2 C 9,7 km/h (2 Bft)
06.09.2016 03:57 12,8 C 12,8 C 89 % 1023,6 hPa 0,0 mm 3,4 km/h (1 Bft) W-NW 299 0 min 0,000 mm 0,0 UV-I 0 W/m 11,0 C 6,4 km/h (2 Bft)
06.09.2016 03:58 12,8 C 12,8 C 90 % 1023,6 hPa 0,0 mm 3,1 km/h (1 Bft) W-NW 300 0 min 0,000 mm 0,0 UV-I 0 W/m 11,2 C 4,8 km/h (1 Bft)
06.09.2016 03:59 12,8 C 12,8 C 90 % 1023,6 hPa 0,0 mm 2,5 km/h (1 Bft) W-NW 286 0 min 0,000 mm 0,0 UV-I 0 W/m 11,2 C 4,8 km/h (1 Bft)
06.09.2016 04:00 12,8 C 12,8 C 90 % 1023,6 hPa 0,0 mm 0,1 km/h (0 Bft) W-NW 286 0 min 0,000 mm 0,0 UV-I 0 W/m 11,2 C 1,6 km/h (1 Bft)
06.09.2016 04:01 12,8 C 12,8 C 90 % 1023,6 hPa 0,0 mm 0,0 km/h (0 Bft) W-NW 286 0 min 0,000 mm 0,0 UV-I 0 W/m 11,2 C 0,0 km/h (0 Bft)
06.09.2016 04:02 12,8 C 12,8 C 90 % 1023,6 hPa 0,0 mm 0,0 km/h (0 Bft) W-NW 286 0 min 0,000 mm 0,0 UV-I 0 W/m 11,2 C 0,0 km/h (0 Bft)
06.09.2016 04:03 12,7 C 12,8 C 90 % 1023,7 hPa 0,0 mm 0,0 km/h (0 Bft) W-NW 286 0 min 0,000 mm 0,0 UV-I 0 W/m 11,1 C 0,0 km/h (0 Bft)
06.09.2016 04:04 12,7 C 12,7 C 90 % 1023,7 hPa 0,0 mm 0,0 km/h (0 Bft) W-NW 286 0 min 0,000 mm 0,0 UV-I 0 W/m 11,1 C 0,0 km/h (0 Bft)
06.09.2016 04:05 12,6 C 12,7 C 90 % 1023,7 hPa 0,0 mm 0,0 km/h (0 Bft) W-NW 286 0 min 0,000 mm 0,0 UV-I 0 W/m 11,0 C 0,0 km/h (0 Bft)
06.09.2016 04:06 12,6 C 12,6 C 90 % 1023,7 hPa 0,0 mm 0,0 km/h (0 Bft) S-SW 212 0 min 0,000 mm 0,0 UV-I 0 W/m 11,0 C 0,0 km/h (0 Bft)
06.09.2016 04:07 12,6 C 12,6 C 90 % 1023,7 hPa 0,0 mm 0,0 km/h (0 Bft) S 186 0 min 0,000 mm 0,0 UV-I 0 W/m 11,0 C 0,0 km/h (0 Bft)
06.09.2016 04:08 12,6 C 12,6 C 90 % 1023,7 hPa 0,0 mm 0,0 km/h (0 Bft) S 186 0 min 0,000 mm 0,0 UV-I 0 W/m 11,0 C 0,0 km/h (0 Bft)
06.09.2016 04:09 12,6 C 12,7 C 90 % 1023,7 hPa 0,0 mm 0,0 km/h (0 Bft) S-SW 207 0 min 0,000 mm 0,0 UV-I 0 W/m 11,0 C 0,0 km/h (0 Bft)
06.09.2016 04:10 12,7 C 12,7 C 90 % 1023,7 hPa 0,0 mm 0,0 km/h (0 Bft) S-SW 207 0 min 0,000 mm 0,0 UV-I 0 W/m 11,1 C 0,0 km/h (0 Bft)
06.09.2016 04:11 12,7 C 12,7 C 90 % 1023,7 hPa 0,0 mm 0,0 km/h (0 Bft) S-SW 207 0 min 0,000 mm 0,0 UV-I 0 W/m 11,1 C 0,0 km/h (0 Bft)
06.09.2016 04:12 12,7 C 12,7 C 90 % 1023,7 hPa 0,0 mm 0,0 km/h (0 Bft) W 266 0 min 0,000 mm 0,0 UV-I 0 W/m 11,1 C 0,0 km/h (0 Bft)
06.09.2016 04:13 12,8 C 12,8 C 90 % 1023,7 hPa 0,0 mm 0,0 km/h (0 Bft) W 266 0 min 0,000 mm 0,0 UV-I 0 W/m 11,2 C 0,0 km/h (0 Bft)
06.09.2016 04:14 12,8 C 12,8 C 90 % 1023,7 hPa 0,0 mm 0,0 km/h (0 Bft) W 266 0 min 0,000 mm 0,0 UV-I 0 W/m 11,2 C 0,0 km/h (0 Bft)
06.09.2016 04:15 12,8 C 12,8 C 90 % 1023,7 hPa 0,0 mm 0,0 km/h (0 Bft) W 266 0 min 0,000 mm 0,0 UV-I 0 W/m 11,2 C 0,0 km/h (0 Bft)
06.09.2016 04:16 12,8 C 12,9 C 90 % 1023,8 hPa 0,0 mm 0,0 km/h (0 Bft) W 273 0 min 0,000 mm 0,0 UV-I 0 W/m 11,2 C 0,0 km/h (0 Bft)
06.09.2016 04:17 12,8 C 12,8 C 90 % 1023,7 hPa 0,0 mm 0,0 km/h (0 Bft) W 273 0 min 0,000 mm 0,0 UV-I 0 W/m 11,2 C 0,0 km/h (0 Bft)
06.09.2016 04:18 12,8 C 12,8 C 90 % 1023,7 hPa 0,0 mm 0,0 km/h (0 Bft) W 273 0 min 0,000 mm 0,0 UV-I 0 W/m 11,2 C 0,0 km/h (0 Bft)
06.09.2016 04:19 12,8 C 12,9 C 90 % 1023,7 hPa 0,0 mm 0,0 km/h (0 Bft) W 273 0 min 0,000 mm 0,0 UV-I 0 W/m 11,2 C 0,0 km/h (0 Bft)
06.09.2016 04:20 12,8 C 12,8 C 90 % 1023,7 hPa 0,0 mm 0,0 km/h (0 Bft) W 273 0 min 0,000 mm 0,0 UV-I 0 W/m 11,2 C 0,0 km/h (0 Bft)
06.09.2016 04:21 12,8 C 12,9 C 90 % 1023,7 hPa 0,0 mm 0,0 km/h (0 Bft) W 273 0 min 0,000 mm 0,0 UV-I 0 W/m 11,2 C 0,0 km/h (0 Bft)
06.09.2016 04:22 12,8 C 12,9 C 90 % 1023,7 hPa 0,0 mm 0,0 km/h (0 Bft) W 273 0 min 0,000 mm 0,0 UV-I 0 W/m 11,2 C 0,0 km/h (0 Bft)
06.09.2016 04:23 12,9 C 12,9 C 90 % 1023,7 hPa 0,0 mm 0,0 km/h (0 Bft) SW 223 0 min 0,000 mm 0,0 UV-I 0 W/m 11,3 C 0,0 km/h (0 Bft)
06.09.2016 04:24 12,9 C 12,9 C 89 % 1023,7 hPa 0,0 mm 0,0 km/h (0 Bft) W-SW 248 0 min 0,000 mm 0,0 UV-I 0 W/m 11,1 C 0,0 km/h (0 Bft)
06.09.2016 04:25 12,9 C 12,9 C 89 % 1023,6 hPa 0,0 mm 6,2 km/h (2 Bft) W-SW 257 0 min 0,000 mm 0,0 UV-I 0 W/m 11,1 C 11,3 km/h (2 Bft)
06.09.2016 04:26 12,9 C 12,9 C 89 % 1023,6 hPa 0,0 mm 3,8 km/h (1 Bft) S-SW 195 0 min 0,000 mm 0,0 UV-I 0 W/m 11,1 C 6,4 km/h (2 Bft)
06.09.2016 04:27 12,9 C 12,9 C 89 % 1023,6 hPa 0,0 mm 3,0 km/h (1 Bft) SW 229 0 min 0,000 mm 0,0 UV-I 0 W/m 11,1 C 6,4 km/h (2 Bft)
06.09.2016 04:28 13,0 C 13,0 C 89 % 1023,6 hPa 0,0 mm 4,0 km/h (1 Bft) S 173 0 min 0,000 mm 0,0 UV-I 0 W/m 11,2 C 11,3 km/h (2 Bft)
06.09.2016 04:29 13,1 C 13,1 C 88 % 1023,6 hPa 0,0 mm 4,1 km/h (1 Bft) SW 228 0 min 0,000 mm 0,0 UV-I 0 W/m 11,2 C 8,0 km/h (2 Bft)
06.09.2016 04:30 13,1 C 13,1 C 88 % 1023,6 hPa 0,0 mm 3,7 km/h (1 Bft) S-SW 200 0 min 0,000 mm 0,0 UV-I 0 W/m 11,2 C 6,4 km/h (2 Bft)
06.09.2016 04:31 13,1 C 13,1 C 88 % 1023,6 hPa 0,0 mm 4,4 km/h (1 Bft) S-SO 167 0 min 0,000 mm 0,0 UV-I 0 W/m 11,2 C 6,4 km/h (2 Bft)
06.09.2016 04:32 13,1 C 13,1 C 88 % 1023,6 hPa 0,0 mm 4,5 km/h (1 Bft) S-SW 211 0 min 0,000 mm 0,0 UV-I 0 W/m 11,2 C 6,4 km/h (2 Bft)
06.09.2016 04:33 13,1 C 13,1 C 88 % 1023,6 hPa 0,0 mm 2,3 km/h (1 Bft) S-SW 210 0 min 0,000 mm 0,0 UV-I 0 W/m 11,2 C 3,2 km/h (1 Bft)
06.09.2016 04:34 13,1 C 13,1 C 88 % 1023,6 hPa 0,0 mm 2,5 km/h (1 Bft) S 189 0 min 0,000 mm 0,0 UV-I 0 W/m 11,2 C 6,4 km/h (2 Bft)
06.09.2016 04:35 13,1 C 13,1 C 88 % 1023,6 hPa 0,0 mm 2,3 km/h (1 Bft) S 182 0 min 0,000 mm 0,0 UV-I 0 W/m 11,2 C 4,8 km/h (1 Bft)
06.09.2016 04:36 13,1 C 13,1 C 89 % 1023,6 hPa 0,0 mm 4,0 km/h (1 Bft) W 274 0 min 0,000 mm 0,0 UV-I 0 W/m 11,3 C 11,3 km/h (2 Bft)
06.09.2016 04:37 13,1 C 13,1 C 89 % 1023,6 hPa 0,0 mm 4,2 km/h (1 Bft) W-SW 245 0 min 0,000 mm 0,0 UV-I 0 W/m 11,3 C 6,4 km/h (2 Bft)
06.09.2016 04:38 13,1 C 13,1 C 89 % 1023,7 hPa 0,0 mm 2,7 km/h (1 Bft) W-SW 247 0 min 0,000 mm 0,0 UV-I 0 W/m 11,3 C 4,8 km/h (1 Bft)
06.09.2016 04:39 13,1 C 13,1 C 89 % 1023,7 hPa 0,0 mm 3,7 km/h (1 Bft) W 263 0 min 0,000 mm 0,0 UV-I 0 W/m 11,3 C 6,4 km/h (2 Bft)
06.09.2016 04:40 13,0 C 13,1 C 89 % 1023,7 hPa 0,0 mm 3,4 km/h (1 Bft) W-SW 244 0 min 0,000 mm 0,0 UV-I 0 W/m 11,2 C 4,8 km/h (1 Bft)
06.09.2016 04:41 13,0 C 13,1 C 89 % 1023,7 hPa 0,0 mm 2,5 km/h (1 Bft) W-SW 244 0 min 0,000 mm 0,0 UV-I 0 W/m 11,2 C 4,8 km/h (1 Bft)
06.09.2016 04:42 13,0 C 13,1 C 89 % 1023,7 hPa 0,0 mm 1,1 km/h (1 Bft) W-SW 244 0 min 0,000 mm 0,0 UV-I 0 W/m 11,2 C 3,2 km/h (1 Bft)
06.09.2016 04:43 13,0 C 13,0 C 89 % 1023,7 hPa 0,0 mm 4,1 km/h (1 Bft) W-SW 244 0 min 0,000 mm 0,0 UV-I 0 W/m 11,2 C 6,4 km/h (2 Bft)
06.09.2016 04:44 13,0 C 13,0 C 89 % 1023,7 hPa 0,0 mm 2,8 km/h (1 Bft) W-SW 240 0 min 0,000 mm 0,0 UV-I 0 W/m 11,2 C 4,8 km/h (1 Bft)
06.09.2016 04:45 13,0 C 13,0 C 89 % 1023,7 hPa 0,0 mm 4,6 km/h (1 Bft) W-SW 240 0 min 0,000 mm 0,0 UV-I 0 W/m 11,2 C 6,4 km/h (2 Bft)
06.09.2016 04:46 13,0 C 13,1 C 89 % 1023,7 hPa 0,0 mm 1,4 km/h (1 Bft) W-SW 242 0 min 0,000 mm 0,0 UV-I 0 W/m 11,2 C 3,2 km/h (1 Bft)
06.09.2016 04:47 13,0 C 13,0 C 89 % 1023,7 hPa 0,0 mm 2,1 km/h (1 Bft) SW 221 0 min 0,000 mm 0,0 UV-I 0 W/m 11,2 C 3,2 km/h (1 Bft)
06.09.2016 04:48 13,0 C 13,0 C 89 % 1023,7 hPa 0,0 mm 2,4 km/h (1 Bft) SW 221 0 min 0,000 mm 0,0 UV-I 0 W/m 11,2 C 3,2 km/h (1 Bft)
06.09.2016 04:49 12,9 C 13,0 C 89 % 1023,8 hPa 0,0 mm 2,6 km/h (1 Bft) W-SW 247 0 min 0,000 mm 0,0 UV-I 0 W/m 11,1 C 4,8 km/h (1 Bft)
06.09.2016 04:50 13,0 C 13,0 C 89 % 1023,8 hPa 0,0 mm 1,9 km/h (1 Bft) S-SW 204 0 min 0,000 mm 0,0 UV-I 0 W/m 11,2 C 3,2 km/h (1 Bft)
06.09.2016 04:51 13,0 C 13,0 C 89 % 1023,7 hPa 0,0 mm 2,4 km/h (1 Bft) S-SW 204 0 min 0,000 mm 0,0 UV-I 0 W/m 11,2 C 4,8 km/h (1 Bft)
06.09.2016 04:52 13,0 C 13,0 C 89 % 1023,8 hPa 0,0 mm 2,1 km/h (1 Bft) S-SW 205 0 min 0,000 mm 0,0 UV-I 0 W/m 11,2 C 3,2 km/h (1 Bft)
06.09.2016 04:53 13,0 C 13,0 C 89 % 1023,8 hPa 0,0 mm 0,9 km/h (0 Bft) S-SW 211 0 min 0,000 mm 0,0 UV-I 0 W/m 11,2 C 3,2 km/h (1 Bft)
06.09.2016 04:54 13,0 C 13,1 C 89 % 1023,7 hPa 0,0 mm 3,9 km/h (1 Bft) W 275 0 min 0,000 mm 0,0 UV-I 0 W/m 11,2 C 4,8 km/h (1 Bft)
06.09.2016 04:55 13,0 C 13,1 C 89 % 1023,8 hPa 0,0 mm 3,1 km/h (1 Bft) W 274 0 min 0,000 mm 0,0 UV-I 0 W/m 11,2 C 4,8 km/h (1 Bft)
06.09.2016 04:56 13,0 C 13,1 C 89 % 1023,7 hPa 0,0 mm 0,9 km/h (0 Bft) W 274 0 min 0,000 mm 0,0 UV-I 0 W/m 11,2 C 3,2 km/h (1 Bft)
06.09.2016 04:57 13,0 C 13,0 C 89 % 1023,8 hPa 0,0 mm 1,4 km/h (1 Bft) W 274 0 min 0,000 mm 0,0 UV-I 0 W/m 11,2 C 3,2 km/h (1 Bft)
06.09.2016 04:58 13,0 C 13,0 C 89 % 1023,8 hPa 0,0 mm 1,7 km/h (1 Bft) W 275 0 min 0,000 mm 0,0 UV-I 0 W/m 11,2 C 3,2 km/h (1 Bft)
06.09.2016 04:59 12,9 C 13,0 C 89 % 1023,8 hPa 0,0 mm 2,4 km/h (1 Bft) W 275 0 min 0,000 mm 0,0 UV-I 0 W/m 11,1 C 3,2 km/h (1 Bft)
06.09.2016 05:00 13,0 C 13,0 C 89 % 1023,8 hPa 0,0 mm 0,9 km/h (0 Bft) W 275 0 min 0,000 mm 0,0 UV-I 0 W/m 11,2 C 1,6 km/h (1 Bft)
06.09.2016 05:01 12,9 C 13,0 C 89 % 1023,8 hPa 0,0 mm 2,5 km/h (1 Bft) W-SW 256 0 min 0,000 mm 0,0 UV-I 0 W/m 11,1 C 4,8 km/h (1 Bft)
06.09.2016 05:02 12,9 C 13,0 C 89 % 1023,8 hPa 0,0 mm 1,7 km/h (1 Bft) SW 232 0 min 0,000 mm 0,0 UV-I 0 W/m 11,1 C 4,8 km/h (1 Bft)
06.09.2016 05:03 12,9 C 12,9 C 89 % 1023,9 hPa 0,0 mm 0,3 km/h (0 Bft) SW 232 0 min 0,000 mm 0,0 UV-I 0 W/m 11,1 C 1,6 km/h (1 Bft)
06.09.2016 05:04 12,9 C 12,9 C 89 % 1023,9 hPa 0,0 mm 0,0 km/h (0 Bft) SW 232 0 min 0,000 mm 0,0 UV-I 0 W/m 11,1 C 0,0 km/h (0 Bft)
06.09.2016 05:05 12,9 C 12,9 C 90 % 1023,9 hPa 0,0 mm 1,7 km/h (1 Bft) W 267 0 min 0,000 mm 0,0 UV-I 0 W/m 11,3 C 3,2 km/h (1 Bft)
06.09.2016 05:06 12,8 C 12,9 C 90 % 1023,9 hPa 0,0 mm 0,7 km/h (0 Bft) W 260 0 min 0,000 mm 0,0 UV-I 0 W/m 11,2 C 3,2 km/h (1 Bft)
06.09.2016 05:07 12,8 C 12,8 C 90 % 1023,9 hPa 0,0 mm 0,8 km/h (0 Bft) W 260 0 min 0,000 mm 0,0 UV-I 0 W/m 11,2 C 3,2 km/h (1 Bft)
06.09.2016 05:08 12,8 C 12,8 C 90 % 1023,9 hPa 0,0 mm 2,7 km/h (1 Bft) W 261 0 min 0,000 mm 0,0 UV-I 0 W/m 11,2 C 4,8 km/h (1 Bft)
06.09.2016 05:09 12,8 C 12,8 C 90 % 1023,7 hPa 0,0 mm 2,3 km/h (1 Bft) W 261 0 min 0,000 mm 0,0 UV-I 0 W/m 11,2 C 3,2 km/h (1 Bft)
06.09.2016 05:10 12,8 C 12,8 C 90 % 1023,8 hPa 0,0 mm 3,8 km/h (1 Bft) W 264 0 min 0,000 mm 0,0 UV-I 0 W/m 11,2 C 6,4 km/h (2 Bft)
06.09.2016 05:11 12,8 C 12,8 C 90 % 1023,8 hPa 0,0 mm 4,3 km/h (1 Bft) W-SW 242 0 min 0,000 mm 0,0 UV-I 0 W/m 11,2 C 6,4 km/h (2 Bft)
06.09.2016 05:12 12,8 C 12,8 C 90 % 1023,7 hPa 0,0 mm 3,5 km/h (1 Bft) W-SW 240 0 min 0,000 mm 0,0 UV-I 0 W/m 11,2 C 6,4 km/h (2 Bft)
06.09.2016 05:13 12,8 C 12,8 C 90 % 1023,7 hPa 0,0 mm 1,9 km/h (1 Bft) W-SW 240 0 min 0,000 mm 0,0 UV-I 0 W/m 11,2 C 3,2 km/h (1 Bft)
06.09.2016 05:14 12,8 C 12,8 C 90 % 1023,7 hPa 0,0 mm 0,9 km/h (0 Bft) W-SW 240 0 min 0,000 mm 0,0 UV-I 0 W/m 11,2 C 3,2 km/h (1 Bft)
06.09.2016 05:15 12,8 C 12,8 C 90 % 1023,7 hPa 0,0 mm 1,0 km/h (0 Bft) W-SW 240 0 min 0,000 mm 0,0 UV-I 0 W/m 11,2 C 3,2 km/h (1 Bft)
06.09.2016 05:16 12,8 C 12,8 C 90 % 1023,7 hPa 0,0 mm 3,8 km/h (1 Bft) S-SW 196 0 min 0,000 mm 0,0 UV-I 0 W/m 11,2 C 4,8 km/h (1 Bft)
06.09.2016 05:17 12,8 C 12,8 C 89 % 1023,6 hPa 0,0 mm 4,2 km/h (1 Bft) S 180 0 min 0,000 mm 0,0 UV-I 0 W/m 11,0 C 6,4 km/h (2 Bft)
06.09.2016 05:18 12,8 C 12,8 C 89 % 1023,7 hPa 0,0 mm 2,5 km/h (1 Bft) S 180 0 min 0,000 mm 0,0 UV-I 0 W/m 11,0 C 4,8 km/h (1 Bft)
06.09.2016 05:19 12,8 C 12,8 C 89 % 1023,7 hPa 0,0 mm 2,1 km/h (1 Bft) S 180 0 min 0,000 mm 0,0 UV-I 0 W/m 11,0 C 6,4 km/h (2 Bft)
06.09.2016 05:20 12,8 C 12,8 C 89 % 1023,7 hPa 0,0 mm 2,1 km/h (1 Bft) S-SW 196 0 min 0,000 mm 0,0 UV-I 0 W/m 11,0 C 3,2 km/h (1 Bft)
06.09.2016 05:21 12,8 C 12,8 C 89 % 1023,7 hPa 0,0 mm 0,5 km/h (0 Bft) S-SW 196 0 min 0,000 mm 0,0 UV-I 0 W/m 11,0 C 1,6 km/h (1 Bft)
06.09.2016 05:22 12,8 C 12,8 C 90 % 1023,8 hPa 0,0 mm 1,7 km/h (1 Bft) S 185 0 min 0,000 mm 0,0 UV-I 0 W/m 11,2 C 3,2 km/h (1 Bft)
06.09.2016 05:23 12,8 C 12,8 C 90 % 1023,8 hPa 0,0 mm 2,7 km/h (1 Bft) S 185 0 min 0,000 mm 0,0 UV-I 0 W/m 11,2 C 4,8 km/h (1 Bft)
06.09.2016 05:24 12,8 C 12,8 C 90 % 1023,8 hPa 0,0 mm 1,8 km/h (1 Bft) S 186 0 min 0,000 mm 0,0 UV-I 0 W/m 11,2 C 3,2 km/h (1 Bft)
06.09.2016 05:25 12,8 C 12,8 C 89 % 1023,8 hPa 0,0 mm 3,4 km/h (1 Bft) S-SW 208 0 min 0,000 mm 0,0 UV-I 0 W/m 11,0 C 4,8 km/h (1 Bft)
06.09.2016 05:26 12,8 C 12,8 C 89 % 1023,8 hPa 0,0 mm 1,6 km/h (1 Bft) SO 139 0 min 0,000 mm 0,0 UV-I 0 W/m 11,0 C 4,8 km/h (1 Bft)
06.09.2016 05:27 12,8 C 12,8 C 89 % 1023,7 hPa 0,0 mm 2,0 km/h (1 Bft) S 184 0 min 0,000 mm 0,0 UV-I 0 W/m 11,0 C 4,8 km/h (1 Bft)
06.09.2016 05:28 12,8 C 12,8 C 89 % 1023,8 hPa 0,0 mm 2,3 km/h (1 Bft) SW 234 0 min 0,000 mm 0,0 UV-I 0 W/m 11,0 C 4,8 km/h (1 Bft)
06.09.2016 05:29 12,8 C 12,9 C 89 % 1023,8 hPa 0,0 mm 4,0 km/h (1 Bft) W-SW 246 0 min 0,000 mm 0,0 UV-I 0 W/m 11,0 C 6,4 km/h (2 Bft)
06.09.2016 05:30 12,8 C 12,8 C 90 % 1023,8 hPa 0,0 mm 2,5 km/h (1 Bft) W-SW 238 0 min 0,000 mm 0,0 UV-I 0 W/m 11,2 C 6,4 km/h (2 Bft)
06.09.2016 05:31 12,8 C 12,8 C 90 % 1023,7 hPa 0,0 mm 1,9 km/h (1 Bft) SW 226 0 min 0,000 mm 0,0 UV-I 0 W/m 11,2 C 3,2 km/h (1 Bft)
06.09.2016 05:32 12,8 C 12,8 C 89 % 1023,7 hPa 0,0 mm 2,1 km/h (1 Bft) S 179 0 min 0,000 mm 0,0 UV-I 0 W/m 11,0 C 4,8 km/h (1 Bft)
06.09.2016 05:33 12,8 C 12,8 C 89 % 1023,8 hPa 0,0 mm 1,0 km/h (0 Bft) S 179 0 min 0,000 mm 0,0 UV-I 0 W/m 11,0 C 1,6 km/h (1 Bft)
06.09.2016 05:34 12,8 C 12,8 C 90 % 1023,8 hPa 0,0 mm 0,9 km/h (0 Bft) W 264 0 min 0,000 mm 0,0 UV-I 0 W/m 11,2 C 4,8 km/h (1 Bft)
06.09.2016 05:35 12,8 C 12,8 C 90 % 1023,8 hPa 0,0 mm 4,3 km/h (1 Bft) W-SW 250 0 min 0,000 mm 0,0 UV-I 0 W/m 11,2 C 6,4 km/h (2 Bft)
06.09.2016 05:36 12,8 C 12,8 C 90 % 1023,7 hPa 0,0 mm 1,5 km/h (1 Bft) SW 221 0 min 0,000 mm 0,0 UV-I 0 W/m 11,2 C 3,2 km/h (1 Bft)
06.09.2016 05:37 12,8 C 12,8 C 90 % 1023,7 hPa 0,0 mm 1,3 km/h (1 Bft) SW 221 0 min 0,000 mm 0,0 UV-I 0 W/m 11,2 C 1,6 km/h (1 Bft)
06.09.2016 05:38 12,8 C 12,8 C 90 % 1023,8 hPa 0,0 mm 3,0 km/h (1 Bft) W-SW 252 0 min 0,000 mm 0,0 UV-I 0 W/m 11,2 C 4,8 km/h (1 Bft)
06.09.2016 05:39 12,8 C 12,8 C 90 % 1023,7 hPa 0,0 mm 1,7 km/h (1 Bft) W-SW 252 0 min 0,000 mm 0,0 UV-I 0 W/m 11,2 C 3,2 km/h (1 Bft)
06.09.2016 05:40 12,8 C 12,8 C 90 % 1023,7 hPa 0,0 mm 2,7 km/h (1 Bft) W 261 0 min 0,000 mm 0,0 UV-I 0 W/m 11,2 C 4,8 km/h (1 Bft)
06.09.2016 05:41 12,8 C 12,8 C 90 % 1023,7 hPa 0,0 mm 4,4 km/h (1 Bft) W-SW 246 0 min 0,000 mm 0,0 UV-I 0 W/m 11,2 C 6,4 km/h (2 Bft)
06.09.2016 05:42 12,8 C 12,8 C 90 % 1023,7 hPa 0,0 mm 2,7 km/h (1 Bft) S-SW 212 0 min 0,000 mm 0,0 UV-I 0 W/m 11,2 C 4,8 km/h (1 Bft)
06.09.2016 05:43 12,8 C 12,8 C 90 % 1023,7 hPa 0,0 mm 2,6 km/h (1 Bft) W-SW 237 0 min 0,000 mm 0,0 UV-I 0 W/m 11,2 C 4,8 km/h (1 Bft)
06.09.2016 05:44 12,8 C 12,8 C 90 % 1023,7 hPa 0,0 mm 5,2 km/h (1 Bft) W 273 0 min 0,000 mm 0,0 UV-I 0 W/m 11,2 C 9,7 km/h (2 Bft)
06.09.2016 05:45 12,8 C 12,8 C 90 % 1023,7 hPa 0,0 mm 4,2 km/h (1 Bft) W 260 0 min 0,000 mm 0,0 UV-I 0 W/m 11,2 C 6,4 km/h (2 Bft)
06.09.2016 05:46 12,8 C 12,8 C 90 % 1023,7 hPa 0,0 mm 3,4 km/h (1 Bft) W-NW 292 0 min 0,000 mm 0,0 UV-I 0 W/m 11,2 C 4,8 km/h (1 Bft)
06.09.2016 05:47 12,8 C 12,9 C 90 % 1023,7 hPa 0,0 mm 3,0 km/h (1 Bft) W-NW 292 0 min 0,000 mm 0,0 UV-I 0 W/m 11,2 C 4,8 km/h (1 Bft)
06.09.2016 05:48 12,8 C 12,9 C 90 % 1023,7 hPa 0,0 mm 1,8 km/h (1 Bft) W-NW 292 0 min 0,000 mm 0,0 UV-I 0 W/m 11,2 C 3,2 km/h (1 Bft)
06.09.2016 05:49 12,8 C 12,9 C 90 % 1023,7 hPa 0,0 mm 3,2 km/h (1 Bft) W-NW 291 0 min 0,000 mm 0,0 UV-I 0 W/m 11,2 C 4,8 km/h (1 Bft)
06.09.2016 05:50 12,8 C 12,8 C 90 % 1023,7 hPa 0,0 mm 2,1 km/h (1 Bft) W-NW 291 0 min 0,000 mm 0,0 UV-I 0 W/m 11,2 C 3,2 km/h (1 Bft)
06.09.2016 05:51 12,8 C 12,8 C 90 % 1023,7 hPa 0,0 mm 0,9 km/h (0 Bft) W-NW 291 0 min 0,000 mm 0,0 UV-I 0 W/m 11,2 C 1,6 km/h (1 Bft)
06.09.2016 05:52 12,8 C 12,8 C 90 % 1023,7 hPa 0,0 mm 0,2 km/h (0 Bft) W-NW 291 0 min 0,000 mm 0,0 UV-I 0 W/m 11,2 C 1,6 km/h (1 Bft)
06.09.2016 05:53 12,7 C 12,8 C 90 % 1023,7 hPa 0,0 mm 0,6 km/h (0 Bft) W-NW 291 0 min 0,000 mm 0,0 UV-I 0 W/m 11,1 C 1,6 km/h (1 Bft)
06.09.2016 05:54 12,7 C 12,8 C 90 % 1023,7 hPa 0,0 mm 1,2 km/h (1 Bft) W-NW 291 0 min 0,000 mm 0,0 UV-I 0 W/m 11,1 C 3,2 km/h (1 Bft)
06.09.2016 05:55 12,7 C 12,7 C 90 % 1023,7 hPa 0,0 mm 0,6 km/h (0 Bft) W-NW 291 0 min 0,000 mm 0,0 UV-I 0 W/m 11,1 C 1,6 km/h (1 Bft)
06.09.2016 05:56 12,7 C 12,7 C 90 % 1023,7 hPa 0,0 mm 0,0 km/h (0 Bft) W-NW 291 0 min 0,000 mm 0,0 UV-I 0 W/m 11,1 C 0,0 km/h (0 Bft)
06.09.2016 05:57 12,7 C 12,7 C 90 % 1023,7 hPa 0,0 mm 0,0 km/h (0 Bft) W-NW 291 0 min 0,000 mm 0,0 UV-I 0 W/m 11,1 C 0,0 km/h (0 Bft)
06.09.2016 05:58 12,7 C 12,7 C 90 % 1023,7 hPa 0,0 mm 0,0 km/h (0 Bft) W-NW 291 0 min 0,000 mm 0,0 UV-I 0 W/m 11,1 C 0,0 km/h (0 Bft)
06.09.2016 05:59 12,7 C 12,7 C 90 % 1023,7 hPa 0,0 mm 0,0 km/h (0 Bft) W-NW 291 0 min 0,000 mm 0,0 UV-I 0 W/m 11,1 C 0,0 km/h (0 Bft)
06.09.2016 06:00 12,6 C 12,7 C 91 % 1023,7 hPa 0,0 mm 0,0 km/h (0 Bft) W-NW 291 0 min 0,000 mm 0,0 UV-I 0 W/m 11,2 C 0,0 km/h (0 Bft)
06.09.2016 06:01 12,6 C 12,6 C 91 % 1023,7 hPa 0,0 mm 0,1 km/h (0 Bft) W-NW 291 0 min 0,000 mm 0,0 UV-I 0 W/m 11,2 C 1,6 km/h (1 Bft)
06.09.2016 06:02 12,6 C 12,6 C 91 % 1023,7 hPa 0,0 mm 0,1 km/h (0 Bft) W-NW 291 0 min 0,000 mm 0,0 UV-I 0 W/m 11,2 C 1,6 km/h (1 Bft)
06.09.2016 06:03 12,6 C 12,6 C 91 % 1023,8 hPa 0,0 mm 1,0 km/h (0 Bft) W-NW 291 0 min 0,000 mm 0,0 UV-I 0 W/m 11,2 C 1,6 km/h (1 Bft)
06.09.2016 06:04 12,6 C 12,6 C 91 % 1023,7 hPa 0,0 mm 2,7 km/h (1 Bft) W 269 0 min 0,000 mm 0,0 UV-I 0 W/m 11,2 C 4,8 km/h (1 Bft)
06.09.2016 06:05 12,6 C 12,6 C 91 % 1023,8 hPa 0,0 mm 2,3 km/h (1 Bft) W-SW 237 0 min 0,000 mm 0,0 UV-I 0 W/m 11,2 C 4,8 km/h (1 Bft)
06.09.2016 06:06 12,6 C 12,6 C 91 % 1023,8 hPa 0,0 mm 2,6 km/h (1 Bft) W 261 0 min 0,000 mm 0,0 UV-I 0 W/m 11,2 C 4,8 km/h (1 Bft)
06.09.2016 06:07 12,6 C 12,6 C 91 % 1023,8 hPa 0,0 mm 2,3 km/h (1 Bft) SW 217 0 min 0,000 mm 0,0 UV-I 0 W/m 11,2 C 3,2 km/h (1 Bft)
06.09.2016 06:08 12,6 C 12,6 C 91 % 1023,7 hPa 0,0 mm 2,5 km/h (1 Bft) S-SW 194 0 min 0,000 mm 0,0 UV-I 0 W/m 11,2 C 4,8 km/h (1 Bft)
06.09.2016 06:09 12,6 C 12,6 C 91 % 1023,7 hPa 0,0 mm 1,2 km/h (1 Bft) S-SW 194 0 min 0,000 mm 0,0 UV-I 0 W/m 11,2 C 3,2 km/h (1 Bft)
06.09.2016 06:10 12,6 C 12,6 C 91 % 1023,7 hPa 0,0 mm 0,2 km/h (0 Bft) S-SW 195 0 min 0,000 mm 0,0 UV-I 0 W/m 11,2 C 1,6 km/h (1 Bft)
06.09.2016 06:11 12,7 C 12,7 C 91 % 1023,8 hPa 0,0 mm 1,4 km/h (1 Bft) S-SW 195 0 min 0,000 mm 0,0 UV-I 0 W/m 11,3 C 3,2 km/h (1 Bft)
06.09.2016 06:12 12,6 C 12,7 C 91 % 1023,7 hPa 0,0 mm 1,1 km/h (1 Bft) S-SW 210 0 min 0,000 mm 0,0 UV-I 0 W/m 11,2 C 3,2 km/h (1 Bft)
06.09.2016 06:13 12,6 C 12,7 C 91 % 1023,8 hPa 0,0 mm 2,1 km/h (1 Bft) S-SW 213 0 min 0,000 mm 0,0 UV-I 0 W/m 11,2 C 3,2 km/h (1 Bft)
06.09.2016 06:14 12,7 C 12,7 C 91 % 1023,7 hPa 0,0 mm 2,1 km/h (1 Bft) W 272 0 min 0,000 mm 0,0 UV-I 0 W/m 11,3 C 4,8 km/h (1 Bft)
06.09.2016 06:15 12,7 C 12,7 C 92 % 1023,8 hPa 0,0 mm 1,6 km/h (1 Bft) W 272 0 min 0,000 mm 0,0 UV-I 0 W/m 11,4 C 3,2 km/h (1 Bft)
06.09.2016 06:16 12,6 C 12,7 C 91 % 1023,8 hPa 0,0 mm 1,1 km/h (1 Bft) W 272 0 min 0,000 mm 0,0 UV-I 0 W/m 11,2 C 3,2 km/h (1 Bft)
06.09.2016 06:17 12,6 C 12,6 C 92 % 1023,8 hPa 0,0 mm 3,4 km/h (1 Bft) W 269 0 min 0,000 mm 0,0 UV-I 0 W/m 11,3 C 4,8 km/h (1 Bft)
06.09.2016 06:18 12,6 C 12,6 C 92 % 1023,8 hPa 0,0 mm 3,4 km/h (1 Bft) W-SW 247 0 min 0,000 mm 0,0 UV-I 0 W/m 11,3 C 4,8 km/h (1 Bft)
06.09.2016 06:19 12,6 C 12,6 C 92 % 1023,7 hPa 0,0 mm 2,2 km/h (1 Bft) W-SW 247 0 min 0,000 mm 0,0 UV-I 0 W/m 11,3 C 3,2 km/h (1 Bft)
06.09.2016 06:20 12,6 C 12,6 C 92 % 1023,8 hPa 0,2 mm 3,1 km/h (1 Bft) W 279 0 min 0,000 mm 0,0 UV-I 0 W/m 11,3 C 4,8 km/h (1 Bft)
06.09.2016 06:21 12,5 C 12,6 C 92 % 1023,8 hPa 0,0 mm 3,9 km/h (1 Bft) W 279 0 min 0,000 mm 0,0 UV-I 0 W/m 11,2 C 6,4 km/h (2 Bft)
06.09.2016 06:22 12,5 C 12,5 C 92 % 1023,8 hPa 0,0 mm 5,2 km/h (1 Bft) W 263 0 min 0,000 mm 0,0 UV-I 0 W/m 11,2 C 9,7 km/h (2 Bft)
06.09.2016 06:23 12,5 C 12,6 C 92 % 1023,8 hPa 0,0 mm 3,9 km/h (1 Bft) W-NW 282 0 min 0,000 mm 0,0 UV-I 0 W/m 11,2 C 4,8 km/h (1 Bft)
06.09.2016 06:24 12,5 C 12,5 C 92 % 1023,8 hPa 0,0 mm 3,6 km/h (1 Bft) W-NW 295 0 min 0,000 mm 0,0 UV-I 0 W/m 11,2 C 6,4 km/h (2 Bft)
06.09.2016 06:25 12,5 C 12,5 C 92 % 1023,8 hPa 0,0 mm 4,5 km/h (1 Bft) W 271 0 min 0,000 mm 0,0 UV-I 0 W/m 11,2 C 6,4 km/h (2 Bft)
06.09.2016 06:26 12,5 C 12,5 C 92 % 1023,8 hPa 0,0 mm 3,4 km/h (1 Bft) W 267 0 min 0,000 mm 0,0 UV-I 0 W/m 11,2 C 6,4 km/h (2 Bft)
06.09.2016 06:27 12,5 C 12,5 C 92 % 1023,8 hPa 0,2 mm 2,9 km/h (1 Bft) W 266 0 min 0,000 mm 0,0 UV-I 0 W/m 11,2 C 4,8 km/h (1 Bft)
06.09.2016 06:28 12,5 C 12,5 C 92 % 1023,9 hPa 0,0 mm 2,9 km/h (1 Bft) W 280 0 min 0,000 mm 0,0 UV-I 0 W/m 11,2 C 4,8 km/h (1 Bft)
06.09.2016 06:29 12,5 C 12,5 C 92 % 1023,9 hPa 0,0 mm 2,0 km/h (1 Bft) W 281 0 min 0,000 mm 0,0 UV-I 0 W/m 11,2 C 3,2 km/h (1 Bft)
06.09.2016 06:30 12,5 C 12,5 C 92 % 1023,9 hPa 0,0 mm 2,4 km/h (1 Bft) W 281 0 min 0,000 mm 0,0 UV-I 0 W/m 11,2 C 3,2 km/h (1 Bft)
06.09.2016 06:31 12,5 C 12,5 C 93 % 1023,9 hPa 0,2 mm 2,4 km/h (1 Bft) NW 304 0 min 0,000 mm 0,0 UV-I 0 W/m 11,4 C 4,8 km/h (1 Bft)
06.09.2016 06:32 12,4 C 12,5 C 93 % 1023,9 hPa 0,0 mm 2,7 km/h (1 Bft) W-NW 288 0 min 0,000 mm 0,0 UV-I 0 W/m 11,3 C 4,8 km/h (1 Bft)
06.09.2016 06:33 12,4 C 12,4 C 93 % 1023,8 hPa 0,0 mm 3,6 km/h (1 Bft) W 281 0 min 0,000 mm 0,0 UV-I 0 W/m 11,3 C 4,8 km/h (1 Bft)
06.09.2016 06:34 12,4 C 12,4 C 93 % 1023,9 hPa 0,0 mm 2,5 km/h (1 Bft) W 280 0 min 0,000 mm 0,0 UV-I 0 W/m 11,3 C 4,8 km/h (1 Bft)
06.09.2016 06:35 12,4 C 12,4 C 93 % 1023,8 hPa 0,0 mm 1,7 km/h (1 Bft) W 280 0 min 0,000 mm 0,0 UV-I 0 W/m 11,3 C 3,2 km/h (1 Bft)
06.09.2016 06:36 12,4 C 12,4 C 93 % 1023,8 hPa 0,0 mm 2,9 km/h (1 Bft) W-SW 242 0 min 0,000 mm 0,0 UV-I 0 W/m 11,3 C 4,8 km/h (1 Bft)
06.09.2016 06:37 12,3 C 12,4 C 93 % 1023,9 hPa 0,0 mm 2,7 km/h (1 Bft) W-SW 254 0 min 0,000 mm 0,0 UV-I 0 W/m 11,2 C 4,8 km/h (1 Bft)
06.09.2016 06:38 12,4 C 12,4 C 93 % 1023,9 hPa 0,0 mm 3,6 km/h (1 Bft) W-SW 254 0 min 0,000 mm 0,0 UV-I 0 W/m 11,3 C 4,8 km/h (1 Bft)
06.09.2016 06:39 12,3 C 12,4 C 93 % 1023,9 hPa 0,0 mm 3,7 km/h (1 Bft) W-SW 252 0 min 0,000 mm 0,0 UV-I 0 W/m 11,2 C 4,8 km/h (1 Bft)
06.09.2016 06:40 12,3 C 12,3 C 93 % 1023,9 hPa 0,0 mm 3,1 km/h (1 Bft) W-SW 252 0 min 0,000 mm 0,0 UV-I 0 W/m 11,2 C 4,8 km/h (1 Bft)
06.09.2016 06:41 12,3 C 12,3 C 93 % 1023,9 hPa 0,0 mm 0,1 km/h (0 Bft) W-SW 252 0 min 0,000 mm 0,0 UV-I 0 W/m 11,2 C 1,6 km/h (1 Bft)
06.09.2016 06:42 12,3 C 12,3 C 93 % 1023,9 hPa 0,0 mm 0,3 km/h (0 Bft) W-SW 252 0 min 0,000 mm 0,0 UV-I 0 W/m 11,2 C 1,6 km/h (1 Bft)
06.09.2016 06:43 12,3 C 12,3 C 94 % 1023,9 hPa 0,0 mm 0,2 km/h (0 Bft) W-SW 252 0 min 0,000 mm 0,0 UV-I 0 W/m 11,4 C 1,6 km/h (1 Bft)
06.09.2016 06:44 12,3 C 12,3 C 94 % 1023,9 hPa 0,0 mm 0,7 km/h (0 Bft) W-SW 252 0 min 0,000 mm 0,0 UV-I 0 W/m 11,4 C 1,6 km/h (1 Bft)
06.09.2016 06:45 12,3 C 12,3 C 94 % 1024,0 hPa 0,0 mm 1,8 km/h (1 Bft) W-SW 252 0 min 0,000 mm 0,0 UV-I 0 W/m 11,4 C 3,2 km/h (1 Bft)
06.09.2016 06:46 12,3 C 12,3 C 94 % 1024,0 hPa 0,0 mm 0,1 km/h (0 Bft) W-SW 252 0 min 0,000 mm 0,0 UV-I 0 W/m 11,4 C 1,6 km/h (1 Bft)
06.09.2016 06:47 12,3 C 12,3 C 94 % 1024,0 hPa 0,0 mm 1,6 km/h (1 Bft) W-SW 252 0 min 0,000 mm 0,0 UV-I 0 W/m 11,4 C 3,2 km/h (1 Bft)
06.09.2016 06:48 12,3 C 12,3 C 94 % 1024,0 hPa 0,0 mm 0,3 km/h (0 Bft) W-SW 252 0 min 0,000 mm 0,0 UV-I 0 W/m 11,4 C 1,6 km/h (1 Bft)
06.09.2016 06:49 12,3 C 12,3 C 94 % 1023,9 hPa 0,0 mm 0,3 km/h (0 Bft) W-SW 252 0 min 0,000 mm 0,0 UV-I 0 W/m 11,4 C 1,6 km/h (1 Bft)
06.09.2016 06:50 12,3 C 12,3 C 94 % 1023,9 hPa 0,0 mm 1,8 km/h (1 Bft) W-SW 252 0 min 0,000 mm 0,0 UV-I 0 W/m 11,4 C 3,2 km/h (1 Bft)
06.09.2016 06:51 12,3 C 12,3 C 94 % 1024,0 hPa 0,0 mm 0,4 km/h (0 Bft) W-SW 252 0 min 0,000 mm 0,0 UV-I 0 W/m 11,4 C 3,2 km/h (1 Bft)
06.09.2016 06:52 12,3 C 12,3 C 94 % 1024,0 hPa 0,0 mm 0,2 km/h (0 Bft) W-SW 252 0 min 0,000 mm 0,0 UV-I 0 W/m 11,4 C 1,6 km/h (1 Bft)
06.09.2016 06:53 12,3 C 12,3 C 94 % 1024,0 hPa 0,0 mm 1,9 km/h (1 Bft) W-SW 252 0 min 0,000 mm 0,0 UV-I 0 W/m 11,4 C 3,2 km/h (1 Bft)
06.09.2016 06:54 12,3 C 12,3 C 94 % 1023,9 hPa 0,0 mm 1,4 km/h (1 Bft) W-SW 252 0 min 0,000 mm 0,0 UV-I 0 W/m 11,4 C 3,2 km/h (1 Bft)
06.09.2016 06:55 12,3 C 12,3 C 94 % 1024,0 hPa 0,0 mm 2,2 km/h (1 Bft) W-SW 251 0 min 0,000 mm 0,0 UV-I 0 W/m 11,4 C 3,2 km/h (1 Bft)
06.09.2016 06:56 12,3 C 12,3 C 94 % 1023,9 hPa 0,0 mm 2,1 km/h (1 Bft) W-SW 249 0 min 0,000 mm 0,0 UV-I 0 W/m 11,4 C 4,8 km/h (1 Bft)
06.09.2016 06:57 12,3 C 12,3 C 94 % 1023,9 hPa 0,0 mm 0,9 km/h (0 Bft) W-SW 249 0 min 0,000 mm 0,0 UV-I 5 W/m 11,4 C 3,2 km/h (1 Bft)
06.09.2016 06:58 12,3 C 12,3 C 94 % 1024,0 hPa 0,0 mm 2,1 km/h (1 Bft) W 263 0 min 0,000 mm 0,0 UV-I 5 W/m 11,4 C 3,2 km/h (1 Bft)
06.09.2016 06:59 12,3 C 12,3 C 94 % 1024,0 hPa 0,0 mm 1,7 km/h (1 Bft) W 263 0 min 0,000 mm 0,0 UV-I 0 W/m 11,4 C 3,2 km/h (1 Bft)
06.09.2016 07:00 12,3 C 12,3 C 94 % 1024,1 hPa 0,0 mm 0,6 km/h (0 Bft) W 263 0 min 0,000 mm 0,0 UV-I 0 W/m 11,4 C 3,2 km/h (1 Bft)
06.09.2016 07:01 12,3 C 12,3 C 94 % 1024,1 hPa 0,0 mm 0,5 km/h (0 Bft) W 263 0 min 0,000 mm 0,0 UV-I 5 W/m 11,4 C 1,6 km/h (1 Bft)
06.09.2016 07:02 12,3 C 12,3 C 94 % 1024,1 hPa 0,0 mm 1,4 km/h (1 Bft) W 263 0 min 0,000 mm 0,0 UV-I 5 W/m 11,4 C 1,6 km/h (1 Bft)
06.09.2016 07:03 12,3 C 12,3 C 94 % 1024,1 hPa 0,0 mm 1,0 km/h (0 Bft) W 263 0 min 0,000 mm 0,0 UV-I 5 W/m 11,4 C 1,6 km/h (1 Bft)
06.09.2016 07:04 12,3 C 12,3 C 94 % 1024,1 hPa 0,0 mm 0,4 km/h (0 Bft) W 263 0 min 0,000 mm 0,0 UV-I 5 W/m 11,4 C 1,6 km/h (1 Bft)
06.09.2016 07:05 12,3 C 12,3 C 94 % 1024,1 hPa 0,0 mm 0,8 km/h (0 Bft) W 263 0 min 0,000 mm 0,0 UV-I 5 W/m 11,4 C 1,6 km/h (1 Bft)
06.09.2016 07:06 12,3 C 12,3 C 94 % 1024,1 hPa 0,2 mm 0,5 km/h (0 Bft) W 263 0 min 0,000 mm 0,0 UV-I 5 W/m 11,4 C 1,6 km/h (1 Bft)
06.09.2016 07:07 12,3 C 12,3 C 94 % 1024,1 hPa 0,0 mm 1,8 km/h (1 Bft) W 263 0 min 0,000 mm 0,0 UV-I 0 W/m 11,4 C 3,2 km/h (1 Bft)
06.09.2016 07:08 12,3 C 12,3 C 94 % 1024,2 hPa 0,0 mm 2,1 km/h (1 Bft) W 263 0 min 0,000 mm 0,0 UV-I 0 W/m 11,4 C 3,2 km/h (1 Bft)
06.09.2016 07:09 12,3 C 12,3 C 94 % 1024,2 hPa 0,0 mm 1,7 km/h (1 Bft) W 263 0 min 0,000 mm 0,0 UV-I 5 W/m 11,4 C 3,2 km/h (1 Bft)
06.09.2016 07:10 12,3 C 12,3 C 94 % 1024,2 hPa 0,0 mm 1,9 km/h (1 Bft) W 263 0 min 0,000 mm 0,0 UV-I 7 W/m 11,4 C 3,2 km/h (1 Bft)
06.09.2016 07:11 12,3 C 12,3 C 94 % 1024,1 hPa 0,0 mm 2,5 km/h (1 Bft) W 263 0 min 0,000 mm 0,0 UV-I 9 W/m 11,4 C 3,2 km/h (1 Bft)
06.09.2016 07:12 12,3 C 12,3 C 93 % 1024,2 hPa 0,0 mm 2,2 km/h (1 Bft) W 263 0 min 0,000 mm 0,0 UV-I 9 W/m 11,2 C 3,2 km/h (1 Bft)
06.09.2016 07:13 12,3 C 12,3 C 94 % 1024,1 hPa 0,0 mm 0,8 km/h (0 Bft) W 263 0 min 0,000 mm 0,0 UV-I 11 W/m 11,4 C 1,6 km/h (1 Bft)
06.09.2016 07:14 12,3 C 12,3 C 94 % 1024,2 hPa 0,0 mm 0,8 km/h (0 Bft) W 263 0 min 0,000 mm 0,0 UV-I 12 W/m 11,4 C 1,6 km/h (1 Bft)
06.09.2016 07:15 12,3 C 12,3 C 94 % 1024,2 hPa 0,0 mm 0,8 km/h (0 Bft) W 263 0 min 0,000 mm 0,0 UV-I 12 W/m 11,4 C 1,6 km/h (1 Bft)
06.09.2016 07:16 12,3 C 12,3 C 94 % 1024,2 hPa 0,0 mm 1,1 km/h (1 Bft) W 263 0 min 0,000 mm 0,0 UV-I 14 W/m 11,4 C 1,6 km/h (1 Bft)
06.09.2016 07:17 12,2 C 12,3 C 94 % 1024,2 hPa 0,2 mm 1,8 km/h (1 Bft) SW 225 0 min 0,000 mm 0,0 UV-I 14 W/m 11,3 C 3,2 km/h (1 Bft)
06.09.2016 07:18 12,2 C 12,3 C 93 % 1024,2 hPa 0,0 mm 0,9 km/h (0 Bft) SW 225 0 min 0,000 mm 0,0 UV-I 14 W/m 11,1 C 1,6 km/h (1 Bft)
06.09.2016 07:19 12,3 C 12,3 C 93 % 1024,2 hPa 0,0 mm 0,7 km/h (0 Bft) SW 225 0 min 0,000 mm 0,0 UV-I 14 W/m 11,2 C 1,6 km/h (1 Bft)
06.09.2016 07:20 12,2 C 12,3 C 93 % 1024,2 hPa 0,0 mm 0,0 km/h (0 Bft) SW 225 0 min 0,000 mm 0,0 UV-I 16 W/m 11,1 C 0,0 km/h (0 Bft)
06.09.2016 07:21 12,3 C 12,3 C 93 % 1024,3 hPa 0,0 mm 2,3 km/h (1 Bft) W-SW 250 0 min 0,000 mm 0,0 UV-I 16 W/m 11,2 C 4,8 km/h (1 Bft)
06.09.2016 07:22 12,2 C 12,3 C 93 % 1024,3 hPa 0,0 mm 0,5 km/h (0 Bft) W-SW 250 0 min 0,000 mm 0,0 UV-I 16 W/m 11,1 C 1,6 km/h (1 Bft)
06.09.2016 07:23 12,2 C 12,2 C 93 % 1024,3 hPa 0,0 mm 2,9 km/h (1 Bft) W-SW 254 0 min 0,000 mm 0,0 UV-I 16 W/m 11,1 C 6,4 km/h (2 Bft)
06.09.2016 07:24 12,2 C 12,3 C 93 % 1024,3 hPa 0,0 mm 2,3 km/h (1 Bft) W-SW 254 0 min 0,000 mm 0,0 UV-I 18 W/m 11,1 C 3,2 km/h (1 Bft)
06.09.2016 07:25 12,2 C 12,3 C 93 % 1024,3 hPa 0,0 mm 1,4 km/h (1 Bft) S-SW 211 0 min 0,000 mm 0,0 UV-I 18 W/m 11,1 C 3,2 km/h (1 Bft)
06.09.2016 07:26 12,2 C 12,2 C 93 % 1024,3 hPa 0,0 mm 0,7 km/h (0 Bft) S-SW 211 0 min 0,000 mm 0,0 UV-I 18 W/m 11,1 C 3,2 km/h (1 Bft)
06.09.2016 07:27 12,2 C 12,3 C 93 % 1024,3 hPa 0,0 mm 1,9 km/h (1 Bft) SW 217 0 min 0,000 mm 0,0 UV-I 18 W/m 11,1 C 3,2 km/h (1 Bft)
06.09.2016 07:28 12,3 C 12,3 C 94 % 1024,3 hPa 0,0 mm 3,4 km/h (1 Bft) W-SW 248 0 min 0,000 mm 0,0 UV-I 18 W/m 11,4 C 4,8 km/h (1 Bft)
06.09.2016 07:29 12,3 C 12,3 C 94 % 1024,3 hPa 0,0 mm 2,0 km/h (1 Bft) SW 226 0 min 0,000 mm 0,0 UV-I 19 W/m 11,4 C 3,2 km/h (1 Bft)
06.09.2016 07:30 12,3 C 12,3 C 94 % 1024,3 hPa 0,0 mm 1,5 km/h (1 Bft) SW 226 0 min 0,000 mm 0,0 UV-I 19 W/m 11,4 C 3,2 km/h (1 Bft)
06.09.2016 07:31 12,2 C 12,3 C 94 % 1024,3 hPa 0,0 mm 1,1 km/h (1 Bft) SW 228 0 min 0,000 mm 0,0 UV-I 19 W/m 11,3 C 1,6 km/h (1 Bft)
06.09.2016 07:32 12,2 C 12,3 C 94 % 1024,3 hPa 0,2 mm 0,5 km/h (0 Bft) SW 228 0 min 0,000 mm 0,0 UV-I 19 W/m 11,3 C 1,6 km/h (1 Bft)
06.09.2016 07:33 12,2 C 12,3 C 93 % 1024,3 hPa 0,0 mm 0,8 km/h (0 Bft) SW 228 0 min 0,000 mm 0,0 UV-I 19 W/m 11,1 C 1,6 km/h (1 Bft)
06.09.2016 07:34 12,2 C 12,2 C 94 % 1024,3 hPa 0,0 mm 1,7 km/h (1 Bft) SW 228 0 min 0,000 mm 0,0 UV-I 19 W/m 11,3 C 3,2 km/h (1 Bft)
06.09.2016 07:35 12,2 C 12,2 C 93 % 1024,3 hPa 0,0 mm 1,1 km/h (1 Bft) SW 228 0 min 0,000 mm 0,0 UV-I 21 W/m 11,1 C 1,6 km/h (1 Bft)
06.09.2016 07:36 12,2 C 12,3 C 94 % 1024,3 hPa 0,0 mm 3,1 km/h (1 Bft) W-SW 245 0 min 0,000 mm 0,0 UV-I 21 W/m 11,3 C 4,8 km/h (1 Bft)
06.09.2016 07:37 12,2 C 12,3 C 94 % 1024,3 hPa 0,0 mm 2,8 km/h (1 Bft) W-SW 241 0 min 0,000 mm 0,0 UV-I 21 W/m 11,3 C 4,8 km/h (1 Bft)
06.09.2016 07:38 12,2 C 12,2 C 93 % 1024,2 hPa 0,2 mm 2,5 km/h (1 Bft) S-SW 211 0 min 0,000 mm 0,0 UV-I 23 W/m 11,1 C 4,8 km/h (1 Bft)
06.09.2016 07:39 12,2 C 12,3 C 94 % 1024,3 hPa 0,0 mm 2,4 km/h (1 Bft) SW 219 0 min 0,000 mm 0,0 UV-I 23 W/m 11,3 C 4,8 km/h (1 Bft)
06.09.2016 07:40 12,2 C 12,2 C 94 % 1024,3 hPa 0,0 mm 1,8 km/h (1 Bft) SW 219 0 min 0,000 mm 0,0 UV-I 21 W/m 11,3 C 3,2 km/h (1 Bft)
06.09.2016 07:41 12,3 C 12,3 C 94 % 1024,3 hPa 0,0 mm 0,7 km/h (0 Bft) SW 217 0 min 0,000 mm 0,0 UV-I 21 W/m 11,4 C 1,6 km/h (1 Bft)
06.09.2016 07:42 12,3 C 12,3 C 94 % 1024,3 hPa 0,0 mm 1,7 km/h (1 Bft) SW 220 0 min 0,000 mm 0,0 UV-I 19 W/m 11,4 C 3,2 km/h (1 Bft)
06.09.2016 07:43 12,3 C 12,3 C 94 % 1024,3 hPa 0,0 mm 1,8 km/h (1 Bft) SW 220 0 min 0,000 mm 0,0 UV-I 19 W/m 11,4 C 3,2 km/h (1 Bft)
06.09.2016 07:44 12,3 C 12,3 C 94 % 1024,3 hPa 0,0 mm 1,4 km/h (1 Bft) SW 217 0 min 0,000 mm 0,0 UV-I 18 W/m 11,4 C 3,2 km/h (1 Bft)
06.09.2016 07:45 12,2 C 12,3 C 94 % 1024,3 hPa 0,0 mm 0,9 km/h (0 Bft) SW 217 0 min 0,000 mm 0,0 UV-I 16 W/m 11,3 C 1,6 km/h (1 Bft)
06.09.2016 07:46 12,3 C 12,3 C 94 % 1024,3 hPa 0,0 mm 0,3 km/h (0 Bft) SW 217 0 min 0,000 mm 0,0 UV-I 14 W/m 11,4 C 1,6 km/h (1 Bft)
06.09.2016 07:47 12,3 C 12,3 C 94 % 1024,3 hPa 0,0 mm 0,1 km/h (0 Bft) SW 217 0 min 0,000 mm 0,0 UV-I 14 W/m 11,4 C 1,6 km/h (1 Bft)
06.09.2016 07:48 12,3 C 12,3 C 94 % 1024,3 hPa 0,0 mm 1,2 km/h (1 Bft) SW 217 0 min 0,000 mm 0,0 UV-I 12 W/m 11,4 C 1,6 km/h (1 Bft)
06.09.2016 07:49 12,3 C 12,3 C 94 % 1024,3 hPa 0,2 mm 1,2 km/h (1 Bft) SW 217 0 min 0,000 mm 0,0 UV-I 12 W/m 11,4 C 1,6 km/h (1 Bft)
06.09.2016 07:50 12,2 C 12,3 C 94 % 1024,3 hPa 0,0 mm 0,0 km/h (0 Bft) SW 217 0 min 0,000 mm 0,0 UV-I 11 W/m 11,3 C 0,0 km/h (0 Bft)
06.09.2016 07:51 12,3 C 12,3 C 94 % 1024,3 hPa 0,0 mm 0,1 km/h (0 Bft) SW 217 0 min 0,000 mm 0,0 UV-I 9 W/m 11,4 C 1,6 km/h (1 Bft)
06.09.2016 07:52 12,2 C 12,3 C 94 % 1024,3 hPa 0,0 mm 0,1 km/h (0 Bft) SW 217 0 min 0,000 mm 0,0 UV-I 9 W/m 11,3 C 1,6 km/h (1 Bft)
06.09.2016 07:53 12,3 C 12,3 C 94 % 1024,3 hPa 0,0 mm 1,3 km/h (1 Bft) SW 224 0 min 0,000 mm 0,0 UV-I 9 W/m 11,4 C 3,2 km/h (1 Bft)
06.09.2016 07:54 12,3 C 12,3 C 94 % 1024,3 hPa 0,0 mm 0,4 km/h (0 Bft) SW 224 0 min 0,000 mm 0,0 UV-I 11 W/m 11,4 C 1,6 km/h (1 Bft)
06.09.2016 07:55 12,3 C 12,3 C 94 % 1024,3 hPa 0,0 mm 0,5 km/h (0 Bft) SW 224 0 min 0,000 mm 0,0 UV-I 12 W/m 11,4 C 1,6 km/h (1 Bft)
06.09.2016 07:56 12,3 C 12,3 C 94 % 1024,4 hPa 0,0 mm 0,0 km/h (0 Bft) SW 224 0 min 0,000 mm 0,0 UV-I 12 W/m 11,4 C 0,0 km/h (0 Bft)
06.09.2016 07:57 12,3 C 12,3 C 94 % 1024,4 hPa 0,0 mm 0,3 km/h (0 Bft) SW 224 0 min 0,000 mm 0,0 UV-I 12 W/m 11,4 C 1,6 km/h (1 Bft)
06.09.2016 07:58 12,3 C 12,3 C 94 % 1024,4 hPa 0,0 mm 0,4 km/h (0 Bft) SW 224 0 min 0,000 mm 0,0 UV-I 12 W/m 11,4 C 1,6 km/h (1 Bft)
06.09.2016 07:59 12,3 C 12,3 C 94 % 1024,4 hPa 0,0 mm 0,0 km/h (0 Bft) SW 224 0 min 0,000 mm 0,0 UV-I 16 W/m 11,4 C 0,0 km/h (0 Bft)
06.09.2016 08:00 12,3 C 12,3 C 94 % 1024,4 hPa 0,0 mm 0,0 km/h (0 Bft) SW 224 0 min 0,000 mm 0,0 UV-I 19 W/m 11,4 C 0,0 km/h (0 Bft)
06.09.2016 08:01 12,3 C 12,3 C 94 % 1024,4 hPa 0,0 mm 0,0 km/h (0 Bft) SW 224 0 min 0,000 mm 0,0 UV-I 21 W/m 11,4 C 0,0 km/h (0 Bft)
06.09.2016 08:02 12,3 C 12,3 C 94 % 1024,4 hPa 0,0 mm 0,0 km/h (0 Bft) SW 224 0 min 0,000 mm 0,0 UV-I 21 W/m 11,4 C 0,0 km/h (0 Bft)
06.09.2016 08:03 12,3 C 12,3 C 94 % 1024,4 hPa 0,0 mm 0,0 km/h (0 Bft) SW 224 0 min 0,000 mm 0,0 UV-I 23 W/m 11,4 C 0,0 km/h (0 Bft)
06.09.2016 08:04 12,3 C 12,3 C 94 % 1024,4 hPa 0,0 mm 0,0 km/h (0 Bft) SW 224 0 min 0,000 mm 0,0 UV-I 26 W/m 11,4 C 0,0 km/h (0 Bft)
06.09.2016 08:05 12,3 C 12,3 C 94 % 1024,4 hPa 0,0 mm 0,0 km/h (0 Bft) SW 224 0 min 0,000 mm 0,0 UV-I 32 W/m 11,4 C 0,0 km/h (0 Bft)
06.09.2016 08:06 12,3 C 12,3 C 94 % 1024,4 hPa 0,0 mm 0,0 km/h (0 Bft) SW 224 0 min 0,000 mm 0,0 UV-I 35 W/m 11,4 C 0,0 km/h (0 Bft)
06.09.2016 08:07 12,3 C 12,3 C 94 % 1024,4 hPa 0,0 mm 0,0 km/h (0 Bft) SW 224 0 min 0,000 mm 0,0 UV-I 37 W/m 11,4 C 0,0 km/h (0 Bft)
06.09.2016 08:08 12,3 C 12,4 C 94 % 1024,4 hPa 0,0 mm 0,0 km/h (0 Bft) SW 224 0 min 0,000 mm 0,0 UV-I 37 W/m 11,4 C 0,0 km/h (0 Bft)
06.09.2016 08:09 12,3 C 12,4 C 95 % 1024,4 hPa 0,2 mm 0,0 km/h (0 Bft) SW 224 0 min 0,000 mm 0,0 UV-I 39 W/m 11,5 C 0,0 km/h (0 Bft)
06.09.2016 08:10 12,4 C 12,4 C 94 % 1024,4 hPa 0,0 mm 0,5 km/h (0 Bft) SW 224 0 min 0,000 mm 0,0 UV-I 40 W/m 11,5 C 1,6 km/h (1 Bft)
06.09.2016 08:11 12,4 C 12,4 C 95 % 1024,4 hPa 0,0 mm 1,5 km/h (1 Bft) SW 225 0 min 0,000 mm 0,0 UV-I 40 W/m 11,6 C 3,2 km/h (1 Bft)
06.09.2016 08:12 12,4 C 12,4 C 94 % 1024,4 hPa 0,0 mm 0,3 km/h (0 Bft) SW 225 0 min 0,000 mm 0,0 UV-I 42 W/m 11,5 C 1,6 km/h (1 Bft)
06.09.2016 08:13 12,4 C 12,4 C 94 % 1024,4 hPa 0,0 mm 0,1 km/h (0 Bft) SW 225 0 min 0,000 mm 0,0 UV-I 39 W/m 11,5 C 1,6 km/h (1 Bft)
06.09.2016 08:14 12,4 C 12,4 C 94 % 1024,4 hPa 0,0 mm 0,7 km/h (0 Bft) SW 225 0 min 0,000 mm 0,0 UV-I 35 W/m 11,5 C 1,6 km/h (1 Bft)
06.09.2016 08:15 12,4 C 12,4 C 94 % 1024,4 hPa 0,0 mm 0,0 km/h (0 Bft) SW 225 0 min 0,000 mm 0,0 UV-I 33 W/m 11,5 C 0,0 km/h (0 Bft)
06.09.2016 08:16 12,4 C 12,4 C 94 % 1024,4 hPa 0,0 mm 0,1 km/h (0 Bft) SW 225 0 min 0,000 mm 0,0 UV-I 32 W/m 11,5 C 1,6 km/h (1 Bft)
06.09.2016 08:17 12,4 C 12,4 C 94 % 1024,4 hPa 0,0 mm 0,1 km/h (0 Bft) SW 225 0 min 0,000 mm 0,0 UV-I 30 W/m 11,5 C 1,6 km/h (1 Bft)
06.09.2016 08:18 12,4 C 12,4 C 95 % 1024,4 hPa 0,0 mm 0,5 km/h (0 Bft) SW 225 0 min 0,000 mm 0,0 UV-I 30 W/m 11,6 C 1,6 km/h (1 Bft)
06.09.2016 08:19 12,4 C 12,4 C 95 % 1024,4 hPa 0,0 mm 0,0 km/h (0 Bft) SW 225 0 min 0,000 mm 0,0 UV-I 28 W/m 11,6 C 0,0 km/h (0 Bft)
06.09.2016 08:20 12,5 C 12,5 C 95 % 1024,4 hPa 0,0 mm 0,0 km/h (0 Bft) SW 225 0 min 0,000 mm 0,0 UV-I 28 W/m 11,7 C 0,0 km/h (0 Bft)
06.09.2016 08:21 12,5 C 12,5 C 95 % 1024,4 hPa 0,0 mm 0,0 km/h (0 Bft) SW 225 0 min 0,000 mm 0,0 UV-I 30 W/m 11,7 C 0,0 km/h (0 Bft)
06.09.2016 08:22 12,4 C 12,5 C 95 % 1024,4 hPa 0,0 mm 0,0 km/h (0 Bft) SW 225 0 min 0,000 mm 0,0 UV-I 32 W/m 11,6 C 0,0 km/h (0 Bft)
06.09.2016 08:23 12,5 C 12,5 C 94 % 1024,4 hPa 0,0 mm 0,0 km/h (0 Bft) SW 225 0 min 0,000 mm 0,0 UV-I 33 W/m 11,6 C 0,0 km/h (0 Bft)
06.09.2016 08:24 12,5 C 12,5 C 95 % 1024,4 hPa 0,0 mm 0,0 km/h (0 Bft) SW 225 0 min 0,000 mm 0,0 UV-I 37 W/m 11,7 C 0,0 km/h (0 Bft)
06.09.2016 08:25 12,5 C 12,5 C 94 % 1024,4 hPa 0,0 mm 0,0 km/h (0 Bft) SW 225 0 min 0,000 mm 0,0 UV-I 42 W/m 11,6 C 0,0 km/h (0 Bft)
06.09.2016 08:26 12,5 C 12,5 C 94 % 1024,4 hPa 0,0 mm 0,0 km/h (0 Bft) SW 225 0 min 0,000 mm 0,0 UV-I 44 W/m 11,6 C 0,0 km/h (0 Bft)
06.09.2016 08:27 12,5 C 12,5 C 94 % 1024,4 hPa 0,0 mm 0,0 km/h (0 Bft) SW 225 0 min 0,000 mm 0,0 UV-I 47 W/m 11,6 C 0,0 km/h (0 Bft)
06.09.2016 08:28 12,5 C 12,6 C 95 % 1024,4 hPa 0,0 mm 1,8 km/h (1 Bft) SW 225 0 min 0,000 mm 0,0 UV-I 49 W/m 11,7 C 3,2 km/h (1 Bft)
06.09.2016 08:29 12,5 C 12,6 C 94 % 1024,4 hPa 0,0 mm 3,0 km/h (1 Bft) SW 225 0 min 0,000 mm 0,0 UV-I 49 W/m 11,6 C 4,8 km/h (1 Bft)
06.09.2016 08:30 12,6 C 12,6 C 94 % 1024,5 hPa 0,0 mm 1,1 km/h (1 Bft) SW 225 0 min 0,000 mm 0,0 UV-I 49 W/m 11,7 C 3,2 km/h (1 Bft)
06.09.2016 08:31 12,6 C 12,6 C 94 % 1024,4 hPa 0,0 mm 1,0 km/h (0 Bft) SW 223 0 min 0,000 mm 0,0 UV-I 47 W/m 11,7 C 3,2 km/h (1 Bft)
06.09.2016 08:32 12,5 C 12,6 C 94 % 1024,5 hPa 0,0 mm 1,2 km/h (1 Bft) SW 223 0 min 0,000 mm 0,0 UV-I 47 W/m 11,6 C 1,6 km/h (1 Bft)
06.09.2016 08:33 12,6 C 12,6 C 94 % 1024,4 hPa 0,0 mm 0,4 km/h (0 Bft) SW 223 0 min 0,000 mm 0,0 UV-I 49 W/m 11,7 C 1,6 km/h (1 Bft)
06.09.2016 08:34 12,6 C 12,6 C 94 % 1024,4 hPa 0,0 mm 0,9 km/h (0 Bft) SW 223 0 min 0,000 mm 0,0 UV-I 51 W/m 11,7 C 3,2 km/h (1 Bft)
06.09.2016 08:35 12,6 C 12,6 C 94 % 1024,5 hPa 0,0 mm 1,6 km/h (1 Bft) SW 223 0 min 0,000 mm 0,0 UV-I 53 W/m 11,7 C 3,2 km/h (1 Bft)
06.09.2016 08:36 12,6 C 12,6 C 94 % 1024,4 hPa 0,0 mm 2,8 km/h (1 Bft) SW 225 0 min 0,000 mm 0,0 UV-I 53 W/m 11,7 C 4,8 km/h (1 Bft)
06.09.2016 08:37 12,6 C 12,6 C 94 % 1024,5 hPa 0,0 mm 1,9 km/h (1 Bft) SW 226 0 min 0,000 mm 0,0 UV-I 53 W/m 11,7 C 3,2 km/h (1 Bft)
06.09.2016 08:38 12,6 C 12,6 C 94 % 1024,4 hPa 0,0 mm 1,5 km/h (1 Bft) SW 226 0 min 0,000 mm 0,0 UV-I 51 W/m 11,7 C 3,2 km/h (1 Bft)
06.09.2016 08:39 12,6 C 12,7 C 94 % 1024,5 hPa 0,0 mm 0,7 km/h (0 Bft) SW 226 0 min 0,000 mm 0,0 UV-I 51 W/m 11,7 C 3,2 km/h (1 Bft)
06.09.2016 08:40 12,7 C 12,7 C 94 % 1024,4 hPa 0,0 mm 0,5 km/h (0 Bft) SW 226 0 min 0,000 mm 0,0 UV-I 49 W/m 11,8 C 1,6 km/h (1 Bft)
06.09.2016 08:41 12,7 C 12,7 C 94 % 1024,5 hPa 0,0 mm 0,0 km/h (0 Bft) SW 226 0 min 0,000 mm 0,0 UV-I 47 W/m 11,8 C 0,0 km/h (0 Bft)
06.09.2016 08:42 12,7 C 12,7 C 94 % 1024,5 hPa 0,0 mm 0,0 km/h (0 Bft) SW 226 0 min 0,000 mm 0,0 UV-I 47 W/m 11,8 C 0,0 km/h (0 Bft)
06.09.2016 08:43 12,7 C 12,7 C 94 % 1024,4 hPa 0,0 mm 0,0 km/h (0 Bft) SW 226 0 min 0,000 mm 0,0 UV-I 54 W/m 11,8 C 0,0 km/h (0 Bft)
06.09.2016 08:44 12,7 C 12,7 C 94 % 1024,4 hPa 0,0 mm 0,0 km/h (0 Bft) SW 226 0 min 0,000 mm 0,5 UV-I 63 W/m 11,8 C 0,0 km/h (0 Bft)
06.09.2016 08:45 12,7 C 12,7 C 94 % 1024,4 hPa 0,0 mm 0,0 km/h (0 Bft) SW 226 0 min 0,000 mm 0,5 UV-I 70 W/m 11,8 C 0,0 km/h (0 Bft)
06.09.2016 08:46 12,8 C 12,8 C 94 % 1024,5 hPa 0,0 mm 0,0 km/h (0 Bft) SW 227 0 min 0,000 mm 0,6 UV-I 70 W/m 11,9 C 0,0 km/h (0 Bft)
06.09.2016 08:47 12,8 C 12,8 C 94 % 1024,4 hPa 0,0 mm 0,0 km/h (0 Bft) SW 227 0 min 0,000 mm 0,6 UV-I 72 W/m 11,9 C 0,0 km/h (0 Bft)
06.09.2016 08:48 12,8 C 12,8 C 94 % 1024,5 hPa 0,0 mm 0,0 km/h (0 Bft) SW 227 0 min 0,000 mm 0,6 UV-I 63 W/m 11,9 C 0,0 km/h (0 Bft)
06.09.2016 08:49 12,8 C 12,8 C 94 % 1024,4 hPa 0,0 mm 0,0 km/h (0 Bft) SW 226 0 min 0,000 mm 0,5 UV-I 56 W/m 11,9 C 0,0 km/h (0 Bft)
06.09.2016 08:50 12,8 C 12,8 C 93 % 1024,4 hPa 0,0 mm 0,0 km/h (0 Bft) SW 226 0 min 0,000 mm 0,0 UV-I 53 W/m 11,7 C 0,0 km/h (0 Bft)
06.09.2016 08:51 12,8 C 12,8 C 94 % 1024,4 hPa 0,0 mm 0,0 km/h (0 Bft) SW 227 0 min 0,000 mm 0,0 UV-I 49 W/m 11,9 C 0,0 km/h (0 Bft)
06.09.2016 08:52 12,8 C 12,8 C 94 % 1024,4 hPa 0,0 mm 0,0 km/h (0 Bft) SW 227 0 min 0,000 mm 0,0 UV-I 49 W/m 11,9 C 0,0 km/h (0 Bft)
06.09.2016 08:53 12,8 C 12,8 C 94 % 1024,5 hPa 0,0 mm 0,0 km/h (0 Bft) SW 227 0 min 0,000 mm 0,0 UV-I 47 W/m 11,9 C 0,0 km/h (0 Bft)
06.09.2016 08:54 12,9 C 12,9 C 94 % 1024,5 hPa 0,0 mm 1,5 km/h (1 Bft) SW 227 0 min 0,000 mm 0,0 UV-I 49 W/m 12,0 C 3,2 km/h (1 Bft)
06.09.2016 08:55 12,9 C 12,9 C 94 % 1024,5 hPa 0,0 mm 1,4 km/h (1 Bft) SW 227 0 min 0,000 mm 0,0 UV-I 51 W/m 12,0 C 3,2 km/h (1 Bft)
06.09.2016 08:56 12,9 C 12,9 C 94 % 1024,5 hPa 0,0 mm 1,6 km/h (1 Bft) SW 227 0 min 0,000 mm 0,0 UV-I 53 W/m 12,0 C 3,2 km/h (1 Bft)
06.09.2016 08:57 12,9 C 12,9 C 93 % 1024,4 hPa 0,0 mm 0,8 km/h (0 Bft) SW 227 0 min 0,000 mm 0,0 UV-I 53 W/m 11,8 C 1,6 km/h (1 Bft)
06.09.2016 08:58 12,9 C 12,9 C 93 % 1024,5 hPa 0,0 mm 2,1 km/h (1 Bft) SW 227 0 min 0,000 mm 0,0 UV-I 53 W/m 11,8 C 3,2 km/h (1 Bft)
06.09.2016 08:59 12,8 C 12,9 C 93 % 1024,6 hPa 0,0 mm 1,6 km/h (1 Bft) SW 236 0 min 0,000 mm 0,0 UV-I 49 W/m 11,7 C 3,2 km/h (1 Bft)
06.09.2016 09:00 12,9 C 12,9 C 93 % 1024,6 hPa 0,0 mm 3,2 km/h (1 Bft) W-NW 298 0 min 0,026 mm 0,0 UV-I 47 W/m 11,8 C 4,8 km/h (1 Bft)
06.09.2016 09:01 12,9 C 12,9 C 94 % 1024,6 hPa 0,0 mm 2,3 km/h (1 Bft) W-SW 245 0 min 0,000 mm 0,0 UV-I 46 W/m 12,0 C 3,2 km/h (1 Bft)
06.09.2016 09:02 12,9 C 12,9 C 94 % 1024,6 hPa 0,0 mm 2,2 km/h (1 Bft) W-SW 247 0 min 0,000 mm 0,0 UV-I 42 W/m 12,0 C 3,2 km/h (1 Bft)
06.09.2016 09:03 12,9 C 12,9 C 93 % 1024,6 hPa 0,0 mm 2,3 km/h (1 Bft) W-SW 247 0 min 0,000 mm 0,0 UV-I 40 W/m 11,8 C 3,2 km/h (1 Bft)
06.09.2016 09:04 12,9 C 12,9 C 93 % 1024,6 hPa 0,0 mm 2,1 km/h (1 Bft) W-SW 247 0 min 0,000 mm 0,0 UV-I 42 W/m 11,8 C 3,2 km/h (1 Bft)
06.09.2016 09:05 12,8 C 12,9 C 93 % 1024,6 hPa 0,0 mm 0,9 km/h (0 Bft) W-SW 247 0 min 0,000 mm 0,0 UV-I 42 W/m 11,7 C 1,6 km/h (1 Bft)
06.09.2016 09:06 12,8 C 12,8 C 93 % 1024,6 hPa 0,0 mm 0,0 km/h (0 Bft) W-SW 247 0 min 0,000 mm 0,0 UV-I 42 W/m 11,7 C 0,0 km/h (0 Bft)
06.09.2016 09:07 12,8 C 12,8 C 93 % 1024,6 hPa 0,0 mm 0,3 km/h (0 Bft) W-SW 247 0 min 0,000 mm 0,0 UV-I 40 W/m 11,7 C 1,6 km/h (1 Bft)
06.09.2016 09:08 12,8 C 12,8 C 93 % 1024,6 hPa 0,0 mm 1,7 km/h (1 Bft) W-SW 247 0 min 0,000 mm 0,0 UV-I 40 W/m 11,7 C 3,2 km/h (1 Bft)
06.09.2016 09:09 12,8 C 12,8 C 93 % 1024,6 hPa 0,0 mm 0,9 km/h (0 Bft) W-SW 247 0 min 0,000 mm 0,0 UV-I 40 W/m 11,7 C 1,6 km/h (1 Bft)
06.09.2016 09:10 12,8 C 12,8 C 93 % 1024,6 hPa 0,0 mm 0,4 km/h (0 Bft) W-SW 247 0 min 0,000 mm 0,0 UV-I 44 W/m 11,7 C 1,6 km/h (1 Bft)
06.09.2016 09:11 12,8 C 12,8 C 93 % 1024,6 hPa 0,0 mm 0,0 km/h (0 Bft) W-SW 247 0 min 0,000 mm 0,0 UV-I 44 W/m 11,7 C 0,0 km/h (0 Bft)
06.09.2016 09:12 12,9 C 12,9 C 93 % 1024,6 hPa 0,0 mm 0,0 km/h (0 Bft) W-SW 247 0 min 0,000 mm 0,0 UV-I 40 W/m 11,8 C 0,0 km/h (0 Bft)
06.09.2016 09:13 12,9 C 12,9 C 94 % 1024,6 hPa 0,0 mm 0,0 km/h (0 Bft) W-SW 247 0 min 0,000 mm 0,0 UV-I 39 W/m 12,0 C 0,0 km/h (0 Bft)
06.09.2016 09:14 12,9 C 12,9 C 94 % 1024,6 hPa 0,0 mm 0,0 km/h (0 Bft) W-SW 247 0 min 0,000 mm 0,0 UV-I 39 W/m 12,0 C 0,0 km/h (0 Bft)
06.09.2016 09:15 12,9 C 12,9 C 94 % 1024,6 hPa 0,0 mm 1,4 km/h (1 Bft) W 263 0 min 0,000 mm 0,0 UV-I 39 W/m 12,0 C 4,8 km/h (1 Bft)
06.09.2016 09:16 12,9 C 12,9 C 94 % 1024,7 hPa 0,0 mm 2,7 km/h (1 Bft) SW 229 0 min 0,000 mm 0,0 UV-I 40 W/m 12,0 C 4,8 km/h (1 Bft)
06.09.2016 09:17 12,9 C 12,9 C 93 % 1024,6 hPa 0,0 mm 2,8 km/h (1 Bft) W-SW 258 0 min 0,000 mm 0,0 UV-I 44 W/m 11,8 C 4,8 km/h (1 Bft)
06.09.2016 09:18 12,9 C 12,9 C 93 % 1024,6 hPa 0,0 mm 2,8 km/h (1 Bft) W 267 0 min 0,000 mm 0,0 UV-I 44 W/m 11,8 C 4,8 km/h (1 Bft)
06.09.2016 09:19 12,9 C 12,9 C 94 % 1024,6 hPa 0,0 mm 1,3 km/h (1 Bft) W 267 0 min 0,000 mm 0,0 UV-I 42 W/m 12,0 C 3,2 km/h (1 Bft)
06.09.2016 09:20 12,9 C 12,9 C 93 % 1024,6 hPa 0,0 mm 2,3 km/h (1 Bft) W 267 0 min 0,000 mm 0,0 UV-I 39 W/m 11,8 C 3,2 km/h (1 Bft)
06.09.2016 09:21 12,9 C 12,9 C 94 % 1024,6 hPa 0,0 mm 2,2 km/h (1 Bft) W 267 0 min 0,000 mm 0,0 UV-I 35 W/m 12,0 C 3,2 km/h (1 Bft)
06.09.2016 09:22 12,9 C 12,9 C 94 % 1024,6 hPa 0,2 mm 3,2 km/h (1 Bft) W 277 0 min 0,000 mm 0,0 UV-I 33 W/m 12,0 C 4,8 km/h (1 Bft)
06.09.2016 09:23 12,9 C 12,9 C 93 % 1024,6 hPa 0,2 mm 2,7 km/h (1 Bft) W 277 0 min 0,000 mm 0,0 UV-I 39 W/m 11,8 C 4,8 km/h (1 Bft)
06.09.2016 09:24 12,8 C 12,9 C 93 % 1024,7 hPa 0,0 mm 2,7 km/h (1 Bft) W 275 0 min 0,000 mm 0,0 UV-I 44 W/m 11,7 C 4,8 km/h (1 Bft)
06.09.2016 09:25 12,8 C 12,9 C 93 % 1024,6 hPa 0,0 mm 3,2 km/h (1 Bft) W-NW 297 0 min 0,000 mm 0,0 UV-I 49 W/m 11,7 C 4,8 km/h (1 Bft)
06.09.2016 09:26 12,9 C 12,9 C 93 % 1024,6 hPa 0,0 mm 1,4 km/h (1 Bft) W-NW 297 0 min 0,000 mm 0,0 UV-I 54 W/m 11,8 C 3,2 km/h (1 Bft)
06.09.2016 09:27 12,9 C 12,9 C 94 % 1024,6 hPa 0,0 mm 3,3 km/h (1 Bft) W 272 0 min 0,000 mm 0,5 UV-I 62 W/m 12,0 C 4,8 km/h (1 Bft)
06.09.2016 09:28 12,9 C 12,9 C 94 % 1024,6 hPa 0,0 mm 2,5 km/h (1 Bft) W 272 0 min 0,000 mm 0,5 UV-I 72 W/m 12,0 C 3,2 km/h (1 Bft)
06.09.2016 09:29 12,9 C 12,9 C 94 % 1024,6 hPa 0,0 mm 1,5 km/h (1 Bft) W-SW 237 0 min 0,000 mm 0,6 UV-I 79 W/m 12,0 C 3,2 km/h (1 Bft)
06.09.2016 09:30 12,9 C 12,9 C 94 % 1024,6 hPa 0,0 mm 1,5 km/h (1 Bft) W-SW 237 0 min 0,000 mm 0,6 UV-I 77 W/m 12,0 C 3,2 km/h (1 Bft)
06.09.2016 09:31 12,8 C 12,9 C 93 % 1024,7 hPa 0,0 mm 0,3 km/h (0 Bft) W-SW 237 0 min 0,000 mm 0,6 UV-I 76 W/m 11,7 C 1,6 km/h (1 Bft)
06.09.2016 09:32 12,9 C 12,9 C 93 % 1024,7 hPa 0,0 mm 1,3 km/h (1 Bft) W-SW 237 0 min 0,000 mm 0,5 UV-I 72 W/m 11,8 C 1,6 km/h (1 Bft)
06.09.2016 09:33 12,9 C 12,9 C 93 % 1024,7 hPa 0,0 mm 0,2 km/h (0 Bft) W-SW 237 0 min 0,000 mm 0,6 UV-I 72 W/m 11,8 C 1,6 km/h (1 Bft)
06.09.2016 09:34 12,9 C 12,9 C 93 % 1024,6 hPa 0,0 mm 0,0 km/h (0 Bft) W-SW 237 0 min 0,000 mm 0,6 UV-I 74 W/m 11,8 C 0,0 km/h (0 Bft)
06.09.2016 09:35 12,9 C 12,9 C 94 % 1024,7 hPa 0,0 mm 0,0 km/h (0 Bft) W-SW 237 0 min 0,000 mm 0,6 UV-I 81 W/m 12,0 C 0,0 km/h (0 Bft)
06.09.2016 09:36 12,9 C 12,9 C 93 % 1024,7 hPa 0,0 mm 0,0 km/h (0 Bft) W-SW 237 0 min 0,000 mm 0,7 UV-I 83 W/m 11,8 C 0,0 km/h (0 Bft)
06.09.2016 09:37 12,9 C 12,9 C 93 % 1024,7 hPa 0,0 mm 0,7 km/h (0 Bft) W-SW 237 0 min 0,000 mm 0,7 UV-I 86 W/m 11,8 C 1,6 km/h (1 Bft)
06.09.2016 09:38 12,9 C 12,9 C 94 % 1024,7 hPa 0,0 mm 1,8 km/h (1 Bft) W-SW 237 0 min 0,000 mm 0,7 UV-I 90 W/m 12,0 C 3,2 km/h (1 Bft)
06.09.2016 09:39 12,9 C 12,9 C 93 % 1024,7 hPa 0,0 mm 1,1 km/h (1 Bft) W-SW 237 0 min 0,000 mm 0,7 UV-I 93 W/m 11,8 C 3,2 km/h (1 Bft)
06.09.2016 09:40 12,9 C 12,9 C 93 % 1024,7 hPa 0,0 mm 2,0 km/h (1 Bft) W-SW 237 0 min 0,000 mm 0,7 UV-I 97 W/m 11,8 C 3,2 km/h (1 Bft)
06.09.2016 09:41 12,9 C 12,9 C 93 % 1024,7 hPa 0,0 mm 1,7 km/h (1 Bft) W-SW 238 0 min 0,000 mm 0,8 UV-I 102 W/m 11,8 C 3,2 km/h (1 Bft)
06.09.2016 09:42 13,1 C 13,1 C 93 % 1024,7 hPa 0,0 mm 0,2 km/h (0 Bft) W-SW 238 0 min 0,000 mm 0,8 UV-I 107 W/m 12,0 C 1,6 km/h (1 Bft)
06.09.2016 09:43 13,1 C 13,1 C 93 % 1024,7 hPa 0,0 mm 2,2 km/h (1 Bft) S 169 0 min 0,000 mm 0,9 UV-I 114 W/m 12,0 C 6,4 km/h (2 Bft)
06.09.2016 09:44 13,1 C 13,1 C 93 % 1024,8 hPa 0,0 mm 4,2 km/h (1 Bft) S 172 0 min 0,000 mm 0,9 UV-I 125 W/m 12,0 C 6,4 km/h (2 Bft)
06.09.2016 09:45 13,1 C 13,1 C 93 % 1024,7 hPa 0,0 mm 3,0 km/h (1 Bft) S 178 0 min 0,000 mm 1,0 UV-I 134 W/m 12,0 C 4,8 km/h (1 Bft)
06.09.2016 09:46 13,2 C 13,2 C 92 % 1024,7 hPa 0,0 mm 2,4 km/h (1 Bft) S 178 0 min 0,000 mm 1,1 UV-I 142 W/m 11,9 C 4,8 km/h (1 Bft)
06.09.2016 09:47 13,1 C 13,2 C 93 % 1024,7 hPa 0,0 mm 0,5 km/h (0 Bft) S 178 0 min 0,000 mm 1,1 UV-I 153 W/m 12,0 C 1,6 km/h (1 Bft)
06.09.2016 09:48 13,2 C 13,2 C 93 % 1024,6 hPa 0,0 mm 0,2 km/h (0 Bft) S 178 0 min 0,000 mm 1,2 UV-I 156 W/m 12,1 C 1,6 km/h (1 Bft)
06.09.2016 09:49 13,2 C 13,3 C 93 % 1024,7 hPa 0,0 mm 0,7 km/h (0 Bft) S 178 0 min 0,000 mm 1,3 UV-I 160 W/m 12,1 C 1,6 km/h (1 Bft)
06.09.2016 09:50 13,3 C 13,3 C 92 % 1024,7 hPa 0,0 mm 1,7 km/h (1 Bft) S 181 0 min 0,000 mm 1,2 UV-I 162 W/m 12,0 C 3,2 km/h (1 Bft)
06.09.2016 09:51 13,3 C 13,3 C 93 % 1024,7 hPa 0,0 mm 3,2 km/h (1 Bft) S-SW 197 0 min 0,000 mm 1,2 UV-I 162 W/m 12,2 C 4,8 km/h (1 Bft)
06.09.2016 09:52 13,3 C 13,3 C 91 % 1024,7 hPa 0,0 mm 1,0 km/h (0 Bft) S-SW 197 0 min 0,000 mm 1,2 UV-I 165 W/m 11,9 C 3,2 km/h (1 Bft)
06.09.2016 09:53 13,3 C 13,3 C 92 % 1024,7 hPa 0,0 mm 2,2 km/h (1 Bft) S-SW 202 0 min 0,000 mm 1,1 UV-I 162 W/m 12,0 C 3,2 km/h (1 Bft)
06.09.2016 09:54 13,3 C 13,3 C 92 % 1024,8 hPa 0,0 mm 0,9 km/h (0 Bft) S-SW 202 0 min 0,000 mm 1,0 UV-I 165 W/m 12,0 C 3,2 km/h (1 Bft)
06.09.2016 09:55 13,4 C 13,4 C 92 % 1024,7 hPa 0,0 mm 1,0 km/h (0 Bft) S-SW 202 0 min 0,000 mm 1,0 UV-I 165 W/m 12,1 C 1,6 km/h (1 Bft)
06.09.2016 09:56 13,3 C 13,4 C 91 % 1024,8 hPa 0,0 mm 0,9 km/h (0 Bft) S-SW 202 0 min 0,000 mm 1,0 UV-I 160 W/m 11,9 C 1,6 km/h (1 Bft)
06.09.2016 09:57 13,4 C 13,4 C 91 % 1024,8 hPa 0,0 mm 1,5 km/h (1 Bft) S-SW 202 0 min 0,000 mm 0,9 UV-I 155 W/m 12,0 C 3,2 km/h (1 Bft)
06.09.2016 09:58 13,4 C 13,4 C 92 % 1024,7 hPa 0,0 mm 1,1 km/h (1 Bft) S-SW 202 0 min 0,000 mm 0,9 UV-I 123 W/m 12,1 C 3,2 km/h (1 Bft)
06.09.2016 09:59 13,5 C 13,5 C 93 % 1024,8 hPa 0,0 mm 0,6 km/h (0 Bft) S-SW 202 0 min 0,000 mm 0,8 UV-I 102 W/m 12,4 C 1,6 km/h (1 Bft)
06.09.2016 10:00 13,6 C 13,6 C 93 % 1024,7 hPa 0,0 mm 3,6 km/h (1 Bft) W-SW 252 0 min 0,000 mm 0,7 UV-I 86 W/m 12,5 C 4,8 km/h (1 Bft)
06.09.2016 10:01 13,6 C 13,6 C 93 % 1024,8 hPa 0,0 mm 3,8 km/h (1 Bft) W-SW 248 0 min 0,050 mm 0,7 UV-I 77 W/m 12,5 C 4,8 km/h (1 Bft)
06.09.2016 10:02 13,6 C 13,6 C 93 % 1024,7 hPa 0,0 mm 2,3 km/h (1 Bft) W-SW 248 0 min 0,000 mm 0,7 UV-I 70 W/m 12,5 C 4,8 km/h (1 Bft)
06.09.2016 10:03 13,5 C 13,6 C 92 % 1024,7 hPa 0,0 mm 1,8 km/h (1 Bft) W-SW 248 0 min 0,000 mm 0,6 UV-I 65 W/m 12,2 C 3,2 km/h (1 Bft)
06.09.2016 10:04 13,6 C 13,6 C 92 % 1024,8 hPa 0,0 mm 1,6 km/h (1 Bft) W-SW 248 0 min 0,000 mm 0,6 UV-I 63 W/m 12,3 C 3,2 km/h (1 Bft)
06.09.2016 10:05 13,5 C 13,6 C 93 % 1024,8 hPa 0,0 mm 1,3 km/h (1 Bft) W-SW 248 0 min 0,000 mm 0,6 UV-I 65 W/m 12,4 C 1,6 km/h (1 Bft)
06.09.2016 10:06 13,4 C 13,5 C 92 % 1024,8 hPa 0,0 mm 1,0 km/h (0 Bft) W-SW 248 0 min 0,000 mm 0,6 UV-I 67 W/m 12,1 C 1,6 km/h (1 Bft)
06.09.2016 10:07 13,4 C 13,4 C 92 % 1024,8 hPa 0,0 mm 1,1 km/h (1 Bft) W-SW 242 0 min 0,000 mm 0,6 UV-I 70 W/m 12,1 C 3,2 km/h (1 Bft)
06.09.2016 10:08 13,4 C 13,4 C 92 % 1024,8 hPa 0,0 mm 0,4 km/h (0 Bft) W-SW 242 0 min 0,000 mm 0,6 UV-I 72 W/m 12,1 C 1,6 km/h (1 Bft)
06.09.2016 10:09 13,4 C 13,4 C 92 % 1024,8 hPa 0,0 mm 1,5 km/h (1 Bft) W-SW 241 0 min 0,000 mm 0,6 UV-I 70 W/m 12,1 C 3,2 km/h (1 Bft)
06.09.2016 10:10 13,4 C 13,4 C 92 % 1024,8 hPa 0,0 mm 0,4 km/h (0 Bft) W-SW 241 0 min 0,000 mm 0,6 UV-I 65 W/m 12,1 C 1,6 km/h (1 Bft)
06.09.2016 10:11 13,4 C 13,4 C 92 % 1024,8 hPa 0,0 mm 0,0 km/h (0 Bft) W-SW 241 0 min 0,000 mm 0,8 UV-I 74 W/m 12,1 C 0,0 km/h (0 Bft)
06.09.2016 10:12 13,3 C 13,4 C 91 % 1024,8 hPa 0,0 mm 1,3 km/h (1 Bft) W-SW 242 0 min 0,000 mm 0,9 UV-I 86 W/m 11,9 C 3,2 km/h (1 Bft)
06.09.2016 10:13 13,3 C 13,3 C 92 % 1024,8 hPa 0,0 mm 1,8 km/h (1 Bft) W-SW 241 0 min 0,000 mm 1,0 UV-I 102 W/m 12,0 C 3,2 km/h (1 Bft)
06.09.2016 10:14 13,3 C 13,3 C 91 % 1024,8 hPa 0,0 mm 2,2 km/h (1 Bft) W-SW 241 0 min 0,000 mm 1,0 UV-I 113 W/m 11,9 C 3,2 km/h (1 Bft)
06.09.2016 10:15 13,3 C 13,3 C 92 % 1024,8 hPa 0,0 mm 1,6 km/h (1 Bft) W-SW 241 0 min 0,000 mm 1,1 UV-I 113 W/m 12,0 C 1,6 km/h (1 Bft)
06.09.2016 10:16 13,4 C 13,4 C 92 % 1024,8 hPa 0,0 mm 1,6 km/h (1 Bft) W-SW 241 0 min 0,000 mm 1,1 UV-I 113 W/m 12,1 C 1,6 km/h (1 Bft)
06.09.2016 10:17 13,4 C 13,4 C 92 % 1024,8 hPa 0,0 mm 1,6 km/h (1 Bft) W-SW 241 0 min 0,000 mm 1,1 UV-I 116 W/m 12,1 C 1,6 km/h (1 Bft)
06.09.2016 10:18 13,4 C 13,4 C 93 % 1024,8 hPa 0,0 mm 1,5 km/h (1 Bft) W 277 0 min 0,000 mm 1,1 UV-I 120 W/m 12,3 C 3,2 km/h (1 Bft)
06.09.2016 10:19 13,4 C 13,4 C 92 % 1024,8 hPa 0,0 mm 3,9 km/h (1 Bft) W 274 0 min 0,000 mm 1,1 UV-I 120 W/m 12,1 C 4,8 km/h (1 Bft)
06.09.2016 10:20 13,4 C 13,4 C 92 % 1024,8 hPa 0,0 mm 3,8 km/h (1 Bft) W-NW 288 0 min 0,000 mm 1,1 UV-I 118 W/m 12,1 C 4,8 km/h (1 Bft)
06.09.2016 10:21 13,4 C 13,4 C 92 % 1024,8 hPa 0,0 mm 2,5 km/h (1 Bft) W-NW 288 0 min 0,000 mm 1,1 UV-I 114 W/m 12,1 C 3,2 km/h (1 Bft)
06.09.2016 10:22 13,4 C 13,4 C 92 % 1024,8 hPa 0,0 mm 2,9 km/h (1 Bft) W-NW 288 0 min 0,000 mm 1,1 UV-I 104 W/m 12,1 C 4,8 km/h (1 Bft)
06.09.2016 10:23 13,4 C 13,4 C 92 % 1024,8 hPa 0,0 mm 2,1 km/h (1 Bft) W-NW 288 0 min 0,000 mm 1,1 UV-I 102 W/m 12,1 C 3,2 km/h (1 Bft)
06.09.2016 10:24 13,4 C 13,4 C 92 % 1024,8 hPa 0,0 mm 2,6 km/h (1 Bft) W-NW 288 0 min 0,000 mm 1,1 UV-I 100 W/m 12,1 C 3,2 km/h (1 Bft)
06.09.2016 10:25 13,4 C 13,4 C 92 % 1024,8 hPa 0,0 mm 3,2 km/h (1 Bft) W-NW 286 0 min 0,000 mm 1,0 UV-I 100 W/m 12,1 C 4,8 km/h (1 Bft)
06.09.2016 10:26 13,4 C 13,4 C 92 % 1024,8 hPa 0,0 mm 3,0 km/h (1 Bft) W-NW 286 0 min 0,000 mm 1,0 UV-I 98 W/m 12,1 C 4,8 km/h (1 Bft)
06.09.2016 10:27 13,4 C 13,4 C 92 % 1024,8 hPa 0,0 mm 1,9 km/h (1 Bft) W-NW 286 0 min 0,000 mm 1,0 UV-I 104 W/m 12,1 C 3,2 km/h (1 Bft)
06.09.2016 10:28 13,4 C 13,4 C 92 % 1024,8 hPa 0,0 mm 1,4 km/h (1 Bft) W-NW 286 0 min 0,000 mm 1,1 UV-I 125 W/m 12,1 C 3,2 km/h (1 Bft)
06.09.2016 10:29 13,5 C 13,5 C 92 % 1024,8 hPa 0,0 mm 1,3 km/h (1 Bft) W-NW 286 0 min 0,000 mm 1,3 UV-I 135 W/m 12,2 C 1,6 km/h (1 Bft)
06.09.2016 10:30 13,6 C 13,6 C 92 % 1024,8 hPa 0,0 mm 3,7 km/h (1 Bft) NW 312 0 min 0,000 mm 1,4 UV-I 146 W/m 12,3 C 4,8 km/h (1 Bft)
06.09.2016 10:31 13,6 C 13,6 C 92 % 1024,8 hPa 0,0 mm 3,0 km/h (1 Bft) W-NW 303 0 min 0,000 mm 1,5 UV-I 165 W/m 12,3 C 4,8 km/h (1 Bft)
06.09.2016 10:32 13,7 C 13,7 C 92 % 1024,7 hPa 0,0 mm 2,3 km/h (1 Bft) W-NW 302 0 min 0,000 mm 1,6 UV-I 183 W/m 12,4 C 3,2 km/h (1 Bft)
06.09.2016 10:33 13,7 C 13,7 C 91 % 1024,7 hPa 0,0 mm 0,8 km/h (0 Bft) W-NW 302 0 min 0,000 mm 1,7 UV-I 193 W/m 12,3 C 3,2 km/h (1 Bft)
06.09.2016 10:34 13,7 C 13,7 C 92 % 1024,7 hPa 0,0 mm 0,7 km/h (0 Bft) W-NW 302 0 min 0,000 mm 1,6 UV-I 163 W/m 12,4 C 1,6 km/h (1 Bft)
06.09.2016 10:35 13,8 C 13,8 C 92 % 1024,7 hPa 0,0 mm 1,9 km/h (1 Bft) NW 319 0 min 0,000 mm 1,3 UV-I 148 W/m 12,5 C 3,2 km/h (1 Bft)
06.09.2016 10:36 13,8 C 13,8 C 92 % 1024,8 hPa 0,0 mm 1,4 km/h (1 Bft) NW 318 0 min 0,000 mm 1,1 UV-I 132 W/m 12,5 C 3,2 km/h (1 Bft)
06.09.2016 10:37 13,8 C 13,8 C 90 % 1024,8 hPa 0,0 mm 1,7 km/h (1 Bft) NW 318 0 min 0,000 mm 1,0 UV-I 118 W/m 12,2 C 3,2 km/h (1 Bft)
06.09.2016 10:38 13,8 C 13,8 C 90 % 1024,8 hPa 0,0 mm 2,7 km/h (1 Bft) N-NW 346 0 min 0,000 mm 0,9 UV-I 109 W/m 12,2 C 3,2 km/h (1 Bft)
06.09.2016 10:39 13,8 C 13,8 C 91 % 1024,9 hPa 0,0 mm 2,4 km/h (1 Bft) N-NW 346 0 min 0,000 mm 0,9 UV-I 105 W/m 12,4 C 4,8 km/h (1 Bft)
06.09.2016 10:40 13,8 C 13,8 C 90 % 1024,8 hPa 0,0 mm 1,7 km/h (1 Bft) N-NW 346 0 min 0,000 mm 0,9 UV-I 109 W/m 12,2 C 3,2 km/h (1 Bft)
06.09.2016 10:41 13,8 C 13,8 C 89 % 1024,9 hPa 0,0 mm 2,9 km/h (1 Bft) NW 312 0 min 0,000 mm 0,9 UV-I 114 W/m 12,0 C 3,2 km/h (1 Bft)
06.09.2016 10:42 13,7 C 13,8 C 89 % 1024,9 hPa 0,0 mm 1,5 km/h (1 Bft) NW 312 0 min 0,000 mm 0,9 UV-I 118 W/m 11,9 C 3,2 km/h (1 Bft)
06.09.2016 10:43 13,7 C 13,8 C 91 % 1024,8 hPa 0,0 mm 1,6 km/h (1 Bft) NW 312 0 min 0,000 mm 1,0 UV-I 121 W/m 12,3 C 3,2 km/h (1 Bft)
06.09.2016 10:44 13,8 C 13,8 C 90 % 1024,9 hPa 0,0 mm 2,9 km/h (1 Bft) NW 312 0 min 0,000 mm 1,0 UV-I 125 W/m 12,2 C 3,2 km/h (1 Bft)
06.09.2016 10:45 13,8 C 13,8 C 89 % 1024,8 hPa 0,0 mm 2,1 km/h (1 Bft) W-SW 257 0 min 0,000 mm 1,1 UV-I 139 W/m 12,0 C 3,2 km/h (1 Bft)
06.09.2016 10:46 13,8 C 13,8 C 90 % 1024,9 hPa 0,0 mm 1,6 km/h (1 Bft) W 259 0 min 0,000 mm 1,2 UV-I 142 W/m 12,2 C 3,2 km/h (1 Bft)
06.09.2016 10:47 13,8 C 13,8 C 90 % 1024,9 hPa 0,0 mm 0,2 km/h (0 Bft) W 259 0 min 0,000 mm 1,3 UV-I 146 W/m 12,2 C 1,6 km/h (1 Bft)
06.09.2016 10:48 13,7 C 13,8 C 89 % 1024,8 hPa 0,0 mm 0,1 km/h (0 Bft) W 259 0 min 0,000 mm 1,3 UV-I 148 W/m 11,9 C 1,6 km/h (1 Bft)
06.09.2016 10:49 13,7 C 13,8 C 89 % 1024,9 hPa 0,0 mm 0,1 km/h (0 Bft) W 259 0 min 0,000 mm 1,4 UV-I 151 W/m 11,9 C 1,6 km/h (1 Bft)
06.09.2016 10:50 13,7 C 13,7 C 90 % 1024,9 hPa 0,0 mm 0,1 km/h (0 Bft) W 259 0 min 0,000 mm 1,4 UV-I 153 W/m 12,1 C 1,6 km/h (1 Bft)
06.09.2016 10:51 13,8 C 13,8 C 90 % 1024,9 hPa 0,0 mm 0,9 km/h (0 Bft) W 259 0 min 0,000 mm 1,4 UV-I 156 W/m 12,2 C 1,6 km/h (1 Bft)
06.09.2016 10:52 13,8 C 13,8 C 91 % 1024,9 hPa 0,0 mm 0,0 km/h (0 Bft) W 259 0 min 0,000 mm 1,4 UV-I 155 W/m 12,4 C 0,0 km/h (0 Bft)
06.09.2016 10:53 13,8 C 13,9 C 91 % 1024,9 hPa 0,0 mm 0,7 km/h (0 Bft) W 273 0 min 0,000 mm 1,4 UV-I 155 W/m 12,4 C 3,2 km/h (1 Bft)
06.09.2016 10:54 13,8 C 13,9 C 91 % 1024,9 hPa 0,0 mm 3,3 km/h (1 Bft) W-NW 301 0 min 0,000 mm 1,4 UV-I 158 W/m 12,4 C 4,8 km/h (1 Bft)
06.09.2016 10:55 13,9 C 13,9 C 90 % 1024,9 hPa 0,0 mm 2,2 km/h (1 Bft) W-NW 301 0 min 0,000 mm 1,4 UV-I 163 W/m 12,3 C 3,2 km/h (1 Bft)
06.09.2016 10:56 14,0 C 14,0 C 90 % 1024,9 hPa 0,0 mm 2,2 km/h (1 Bft) N 360 0 min 0,000 mm 1,5 UV-I 169 W/m 12,4 C 3,2 km/h (1 Bft)
06.09.2016 10:57 14,0 C 14,0 C 89 % 1024,9 hPa 0,0 mm 3,2 km/h (1 Bft) N 360 0 min 0,000 mm 1,6 UV-I 190 W/m 12,2 C 4,8 km/h (1 Bft)
06.09.2016 10:58 14,0 C 14,0 C 89 % 1024,9 hPa 0,0 mm 4,2 km/h (1 Bft) N-NW 333 0 min 0,000 mm 1,8 UV-I 202 W/m 12,2 C 4,8 km/h (1 Bft)
06.09.2016 10:59 14,0 C 14,0 C 89 % 1024,9 hPa 0,0 mm 1,3 km/h (1 Bft) N-NW 333 0 min 0,000 mm 1,9 UV-I 213 W/m 12,2 C 3,2 km/h (1 Bft)
06.09.2016 11:00 14,0 C 14,0 C 89 % 1024,9 hPa 0,0 mm 0,3 km/h (0 Bft) N-NW 333 0 min 0,000 mm 1,9 UV-I 213 W/m 12,2 C 1,6 km/h (1 Bft)
06.09.2016 11:01 14,0 C 14,0 C 88 % 1024,9 hPa 0,0 mm 1,0 km/h (0 Bft) N-NW 333 0 min 0,076 mm 1,9 UV-I 211 W/m 12,0 C 1,6 km/h (1 Bft)
06.09.2016 11:02 14,0 C 14,0 C 89 % 1024,9 hPa 0,0 mm 0,7 km/h (0 Bft) N-NW 333 0 min 0,001 mm 1,9 UV-I 214 W/m 12,2 C 1,6 km/h (1 Bft)
06.09.2016 11:03 14,0 C 14,1 C 89 % 1024,9 hPa 0,0 mm 1,5 km/h (1 Bft) N 355 0 min 0,000 mm 1,9 UV-I 264 W/m 12,2 C 3,2 km/h (1 Bft)
06.09.2016 11:04 14,1 C 14,1 C 88 % 1024,9 hPa 0,0 mm 3,0 km/h (1 Bft) N-NO 13 0 min 0,000 mm 2,2 UV-I 301 W/m 12,1 C 4,8 km/h (1 Bft)
06.09.2016 11:05 14,1 C 14,1 C 89 % 1024,9 hPa 0,0 mm 3,2 km/h (1 Bft) N 360 0 min 0,000 mm 2,3 UV-I 327 W/m 12,3 C 4,8 km/h (1 Bft)
06.09.2016 11:06 14,2 C 14,2 C 89 % 1024,8 hPa 0,0 mm 4,1 km/h (1 Bft) N 355 1 min 0,000 mm 2,3 UV-I 380 W/m 12,4 C 4,8 km/h (1 Bft)
06.09.2016 11:07 14,3 C 14,3 C 89 % 1024,8 hPa 0,0 mm 2,7 km/h (1 Bft) N-NW 327 0 min 0,000 mm 2,2 UV-I 332 W/m 12,5 C 3,2 km/h (1 Bft)
06.09.2016 11:08 14,3 C 14,3 C 88 % 1024,9 hPa 0,0 mm 1,9 km/h (1 Bft) N-NW 327 0 min 0,000 mm 2,2 UV-I 352 W/m 12,3 C 3,2 km/h (1 Bft)
06.09.2016 11:09 14,2 C 14,3 C 87 % 1024,8 hPa 0,0 mm 0,7 km/h (0 Bft) N-NW 327 0 min 0,000 mm 2,4 UV-I 311 W/m 12,1 C 1,6 km/h (1 Bft)
06.09.2016 11:10 14,2 C 14,2 C 88 % 1024,9 hPa 0,0 mm 0,0 km/h (0 Bft) N-NW 327 0 min 0,000 mm 1,7 UV-I 248 W/m 12,2 C 0,0 km/h (0 Bft)
06.09.2016 11:11 14,2 C 14,2 C 89 % 1024,9 hPa 0,0 mm 0,2 km/h (0 Bft) N-NW 327 0 min 0,000 mm 1,4 UV-I 236 W/m 12,4 C 1,6 km/h (1 Bft)
06.09.2016 11:12 14,2 C 14,2 C 88 % 1024,8 hPa 0,0 mm 2,0 km/h (1 Bft) W 261 0 min 0,000 mm 1,3 UV-I 181 W/m 12,2 C 4,8 km/h (1 Bft)
06.09.2016 11:13 14,3 C 14,3 C 88 % 1024,9 hPa 0,0 mm 4,2 km/h (1 Bft) W-SW 244 0 min 0,000 mm 1,2 UV-I 165 W/m 12,3 C 6,4 km/h (2 Bft)
06.09.2016 11:14 14,2 C 14,3 C 87 % 1024,9 hPa 0,0 mm 0,7 km/h (0 Bft) W-SW 244 0 min 0,000 mm 1,1 UV-I 151 W/m 12,1 C 3,2 km/h (1 Bft)
06.09.2016 11:15 14,1 C 14,2 C 88 % 1024,8 hPa 0,0 mm 0,8 km/h (0 Bft) W-SW 244 0 min 0,000 mm 1,1 UV-I 135 W/m 12,1 C 1,6 km/h (1 Bft)
06.09.2016 11:16 14,1 C 14,1 C 89 % 1024,8 hPa 0,0 mm 1,7 km/h (1 Bft) W-SW 244 0 min 0,000 mm 1,0 UV-I 127 W/m 12,3 C 3,2 km/h (1 Bft)
06.09.2016 11:17 14,1 C 14,1 C 89 % 1024,9 hPa 0,0 mm 2,4 km/h (1 Bft) W-SW 244 0 min 0,000 mm 0,9 UV-I 120 W/m 12,3 C 3,2 km/h (1 Bft)
06.09.2016 11:18 14,2 C 14,2 C 89 % 1024,9 hPa 0,0 mm 3,4 km/h (1 Bft) W 272 0 min 0,000 mm 0,9 UV-I 116 W/m 12,4 C 4,8 km/h (1 Bft)
06.09.2016 11:19 14,2 C 14,2 C 89 % 1024,9 hPa 0,0 mm 1,3 km/h (1 Bft) W 272 0 min 0,000 mm 0,9 UV-I 114 W/m 12,4 C 3,2 km/h (1 Bft)
06.09.2016 11:20 14,1 C 14,2 C 89 % 1024,9 hPa 0,0 mm 0,7 km/h (0 Bft) W 272 0 min 0,000 mm 0,9 UV-I 111 W/m 12,3 C 1,6 km/h (1 Bft)
06.09.2016 11:21 14,2 C 14,2 C 88 % 1024,9 hPa 0,0 mm 1,0 km/h (0 Bft) W 272 0 min 0,000 mm 0,9 UV-I 111 W/m 12,2 C 3,2 km/h (1 Bft)
06.09.2016 11:22 14,2 C 14,2 C 89 % 1024,9 hPa 0,0 mm 3,1 km/h (1 Bft) W 274 0 min 0,000 mm 1,0 UV-I 111 W/m 12,4 C 4,8 km/h (1 Bft)
06.09.2016 11:23 14,1 C 14,2 C 89 % 1024,9 hPa 0,0 mm 3,1 km/h (1 Bft) W-NW 288 0 min 0,000 mm 1,1 UV-I 116 W/m 12,3 C 4,8 km/h (1 Bft)
06.09.2016 11:24 14,1 C 14,1 C 88 % 1024,9 hPa 0,0 mm 0,6 km/h (0 Bft) W-NW 288 0 min 0,000 mm 1,1 UV-I 123 W/m 12,1 C 1,6 km/h (1 Bft)
06.09.2016 11:25 14,1 C 14,1 C 89 % 1024,9 hPa 0,0 mm 1,3 km/h (1 Bft) W-NW 288 0 min 0,000 mm 1,1 UV-I 125 W/m 12,3 C 3,2 km/h (1 Bft)
06.09.2016 11:26 14,1 C 14,1 C 89 % 1024,9 hPa 0,0 mm 3,8 km/h (1 Bft) NW 310 0 min 0,000 mm 1,1 UV-I 116 W/m 12,3 C 4,8 km/h (1 Bft)
06.09.2016 11:27 14,1 C 14,2 C 89 % 1024,9 hPa 0,0 mm 3,5 km/h (1 Bft) W-NW 300 0 min 0,000 mm 1,0 UV-I 111 W/m 12,3 C 4,8 km/h (1 Bft)
06.09.2016 11:28 14,2 C 14,2 C 89 % 1025,0 hPa 0,0 mm 2,9 km/h (1 Bft) W-NW 300 0 min 0,000 mm 1,0 UV-I 107 W/m 12,4 C 4,8 km/h (1 Bft)
06.09.2016 11:29 14,2 C 14,2 C 89 % 1025,0 hPa 0,0 mm 2,7 km/h (1 Bft) W-NW 300 0 min 0,000 mm 1,0 UV-I 109 W/m 12,4 C 4,8 km/h (1 Bft)
06.09.2016 11:30 14,2 C 14,2 C 88 % 1025,0 hPa 0,0 mm 2,1 km/h (1 Bft) W-NW 300 0 min 0,000 mm 1,0 UV-I 114 W/m 12,2 C 3,2 km/h (1 Bft)
06.09.2016 11:31 14,1 C 14,2 C 87 % 1025,0 hPa 0,0 mm 1,0 km/h (0 Bft) W-NW 300 0 min 0,000 mm 1,2 UV-I 125 W/m 12,0 C 1,6 km/h (1 Bft)
06.09.2016 11:32 14,1 C 14,1 C 88 % 1025,0 hPa 0,0 mm 1,3 km/h (1 Bft) W-NW 300 0 min 0,000 mm 1,3 UV-I 151 W/m 12,1 C 1,6 km/h (1 Bft)
06.09.2016 11:33 14,1 C 14,1 C 88 % 1025,0 hPa 0,0 mm 2,6 km/h (1 Bft) N-NW 341 0 min 0,000 mm 1,5 UV-I 162 W/m 12,1 C 3,2 km/h (1 Bft)
06.09.2016 11:34 14,1 C 14,1 C 88 % 1025,1 hPa 0,0 mm 1,0 km/h (0 Bft) N-NW 341 0 min 0,000 mm 1,6 UV-I 176 W/m 12,1 C 1,6 km/h (1 Bft)
06.09.2016 11:35 14,2 C 14,2 C 87 % 1025,0 hPa 0,0 mm 0,1 km/h (0 Bft) N-NW 341 0 min 0,000 mm 1,8 UV-I 193 W/m 12,1 C 1,6 km/h (1 Bft)
06.09.2016 11:36 14,2 C 14,2 C 88 % 1025,0 hPa 0,0 mm 0,0 km/h (0 Bft) N-NW 341 0 min 0,000 mm 2,0 UV-I 214 W/m 12,2 C 0,0 km/h (0 Bft)
06.09.2016 11:37 14,3 C 14,3 C 89 % 1025,0 hPa 0,0 mm 0,0 km/h (0 Bft) N-NW 337 0 min 0,000 mm 2,1 UV-I 237 W/m 12,5 C 0,0 km/h (0 Bft)
06.09.2016 11:38 14,3 C 14,3 C 88 % 1025,0 hPa 0,0 mm 2,1 km/h (1 Bft) W-NW 296 0 min 0,000 mm 2,3 UV-I 264 W/m 12,3 C 6,4 km/h (2 Bft)
06.09.2016 11:39 14,4 C 14,4 C 89 % 1024,9 hPa 0,0 mm 2,7 km/h (1 Bft) NW 310 0 min 0,000 mm 3,4 UV-I 264 W/m 12,6 C 4,8 km/h (1 Bft)
06.09.2016 11:40 14,5 C 14,5 C 88 % 1024,9 hPa 0,0 mm 0,1 km/h (0 Bft) N 355 0 min 0,000 mm 2,4 UV-I 274 W/m 12,5 C 1,6 km/h (1 Bft)
06.09.2016 11:41 14,6 C 14,6 C 88 % 1024,9 hPa 0,0 mm 0,0 km/h (0 Bft) N 355 0 min 0,000 mm 2,3 UV-I 234 W/m 12,6 C 0,0 km/h (0 Bft)
06.09.2016 11:42 14,7 C 14,7 C 89 % 1024,9 hPa 0,0 mm 1,6 km/h (1 Bft) W 276 0 min 0,000 mm 2,2 UV-I 218 W/m 12,9 C 4,8 km/h (1 Bft)
06.09.2016 11:43 14,7 C 14,7 C 88 % 1025,0 hPa 0,0 mm 2,6 km/h (1 Bft) W 277 0 min 0,000 mm 2,2 UV-I 207 W/m 12,7 C 3,2 km/h (1 Bft)
06.09.2016 11:44 14,7 C 14,7 C 87 % 1025,0 hPa 0,0 mm 1,4 km/h (1 Bft) N-NW 329 0 min 0,000 mm 2,1 UV-I 216 W/m 12,6 C 3,2 km/h (1 Bft)
06.09.2016 11:45 14,7 C 14,7 C 88 % 1025,0 hPa 0,0 mm 3,4 km/h (1 Bft) N 355 0 min 0,000 mm 2,0 UV-I 218 W/m 12,7 C 4,8 km/h (1 Bft)
06.09.2016 11:46 14,7 C 14,7 C 88 % 1024,9 hPa 0,0 mm 4,5 km/h (1 Bft) N 5 0 min 0,000 mm 1,9 UV-I 223 W/m 12,7 C 4,8 km/h (1 Bft)
06.09.2016 11:47 14,7 C 14,7 C 88 % 1024,9 hPa 0,0 mm 3,5 km/h (1 Bft) N 360 0 min 0,000 mm 1,8 UV-I 206 W/m 12,7 C 6,4 km/h (2 Bft)
06.09.2016 11:48 14,7 C 14,7 C 86 % 1024,9 hPa 0,0 mm 0,6 km/h (0 Bft) N 360 0 min 0,000 mm 1,7 UV-I 192 W/m 12,4 C 1,6 km/h (1 Bft)
06.09.2016 11:49 14,6 C 14,7 C 86 % 1024,9 hPa 0,0 mm 2,3 km/h (1 Bft) N 360 0 min 0,000 mm 1,8 UV-I 185 W/m 12,3 C 3,2 km/h (1 Bft)
06.09.2016 11:50 14,6 C 14,6 C 87 % 1024,9 hPa 0,0 mm 1,9 km/h (1 Bft) N-NW 331 0 min 0,000 mm 1,9 UV-I 186 W/m 12,5 C 3,2 km/h (1 Bft)
06.09.2016 11:51 14,7 C 14,7 C 88 % 1024,9 hPa 0,0 mm 3,9 km/h (1 Bft) NW 321 0 min 0,000 mm 2,4 UV-I 223 W/m 12,7 C 4,8 km/h (1 Bft)
06.09.2016 11:52 14,7 C 14,7 C 88 % 1024,9 hPa 0,0 mm 4,8 km/h (1 Bft) NW 315 0 min 0,000 mm 2,7 UV-I 246 W/m 12,7 C 6,4 km/h (2 Bft)
06.09.2016 11:53 14,7 C 14,7 C 88 % 1024,9 hPa 0,0 mm 3,8 km/h (1 Bft) NW 323 0 min 0,000 mm 4,9 UV-I 246 W/m 12,7 C 6,4 km/h (2 Bft)
06.09.2016 11:54 14,7 C 14,7 C 88 % 1024,8 hPa 0,0 mm 1,7 km/h (1 Bft) NW 323 0 min 0,000 mm 5,1 UV-I 246 W/m 12,7 C 3,2 km/h (1 Bft)
06.09.2016 11:55 14,8 C 14,8 C 90 % 1024,8 hPa 0,0 mm 3,7 km/h (1 Bft) NW 308 0 min 0,000 mm 4,5 UV-I 246 W/m 13,2 C 4,8 km/h (1 Bft)
06.09.2016 11:56 15,0 C 15,0 C 91 % 1024,8 hPa 0,0 mm 5,6 km/h (1 Bft) W-NW 300 1 min 0,000 mm 5,1 UV-I 758 W/m 13,5 C 8,0 km/h (2 Bft)
06.09.2016 11:57 15,2 C 15,2 C 90 % 1024,8 hPa 0,0 mm 5,7 km/h (1 Bft) NW 311 1 min 0,000 mm 5,2 UV-I 758 W/m 13,6 C 6,4 km/h (2 Bft)
06.09.2016 11:58 15,3 C 15,3 C 89 % 1024,8 hPa 0,0 mm 3,7 km/h (1 Bft) NW 304 1 min 0,000 mm 5,2 UV-I 777 W/m 13,5 C 6,4 km/h (2 Bft)
06.09.2016 11:59 15,4 C 15,4 C 87 % 1024,8 hPa 0,0 mm 3,5 km/h (1 Bft) W-SW 253 1 min 0,000 mm 3,5 UV-I 763 W/m 13,2 C 4,8 km/h (1 Bft)
06.09.2016 12:00 15,4 C 15,4 C 86 % 1024,8 hPa 0,0 mm 3,6 km/h (1 Bft) NW 304 1 min 0,000 mm 3,8 UV-I 763 W/m 13,1 C 6,4 km/h (2 Bft)
06.09.2016 12:01 15,2 C 15,4 C 85 % 1024,8 hPa 0,0 mm 4,3 km/h (1 Bft) W-SW 244 0 min 0,127 mm 3,0 UV-I 255 W/m 12,7 C 6,4 km/h (2 Bft)
06.09.2016 12:02 15,1 C 15,2 C 86 % 1024,8 hPa 0,0 mm 4,6 km/h (1 Bft) W 262 0 min 0,000 mm 2,9 UV-I 257 W/m 12,8 C 6,4 km/h (2 Bft)
06.09.2016 12:03 14,9 C 15,1 C 87 % 1024,8 hPa 0,0 mm 3,2 km/h (1 Bft) W 272 0 min 0,000 mm 2,7 UV-I 250 W/m 12,8 C 4,8 km/h (1 Bft)
06.09.2016 12:04 14,9 C 14,9 C 86 % 1024,8 hPa 0,0 mm 2,2 km/h (1 Bft) W 281 0 min 0,000 mm 2,6 UV-I 244 W/m 12,6 C 3,2 km/h (1 Bft)
06.09.2016 12:05 14,8 C 14,9 C 88 % 1024,8 hPa 0,0 mm 0,9 km/h (0 Bft) W 281 0 min 0,000 mm 2,6 UV-I 248 W/m 12,8 C 1,6 km/h (1 Bft)
06.09.2016 12:06 14,9 C 14,9 C 89 % 1024,8 hPa 0,0 mm 1,3 km/h (1 Bft) W 281 0 min 0,000 mm 2,6 UV-I 257 W/m 13,1 C 3,2 km/h (1 Bft)
06.09.2016 12:07 14,9 C 14,9 C 87 % 1024,7 hPa 0,0 mm 1,5 km/h (1 Bft) W 280 0 min 0,000 mm 2,6 UV-I 250 W/m 12,8 C 3,2 km/h (1 Bft)
06.09.2016 12:08 14,9 C 14,9 C 88 % 1024,7 hPa 0,0 mm 4,6 km/h (1 Bft) W-SW 258 0 min 0,000 mm 2,7 UV-I 271 W/m 12,9 C 6,4 km/h (2 Bft)
06.09.2016 12:09 14,8 C 14,9 C 87 % 1024,8 hPa 0,0 mm 3,8 km/h (1 Bft) W 263 0 min 0,000 mm 2,9 UV-I 292 W/m 12,7 C 4,8 km/h (1 Bft)
06.09.2016 12:10 14,8 C 14,8 C 86 % 1024,8 hPa 0,0 mm 2,9 km/h (1 Bft) W 270 0 min 0,000 mm 3,0 UV-I 309 W/m 12,5 C 4,8 km/h (1 Bft)
06.09.2016 12:11 14,9 C 14,9 C 86 % 1024,8 hPa 0,0 mm 2,9 km/h (1 Bft) SW 229 0 min 0,000 mm 3,0 UV-I 304 W/m 12,6 C 3,2 km/h (1 Bft)
06.09.2016 12:12 14,9 C 14,9 C 86 % 1024,8 hPa 0,0 mm 1,3 km/h (1 Bft) SW 229 0 min 0,000 mm 3,5 UV-I 362 W/m 12,6 C 3,2 km/h (1 Bft)
06.09.2016 12:13 14,9 C 14,9 C 86 % 1024,8 hPa 0,0 mm 1,3 km/h (1 Bft) SW 231 0 min 0,000 mm 3,2 UV-I 278 W/m 12,6 C 3,2 km/h (1 Bft)
06.09.2016 12:14 14,9 C 14,9 C 85 % 1024,7 hPa 0,0 mm 3,7 km/h (1 Bft) W-SW 250 0 min 0,000 mm 3,4 UV-I 278 W/m 12,4 C 4,8 km/h (1 Bft)
06.09.2016 12:15 15,1 C 15,1 C 87 % 1024,7 hPa 0,0 mm 1,9 km/h (1 Bft) W-SW 250 0 min 0,000 mm 4,1 UV-I 396 W/m 13,0 C 3,2 km/h (1 Bft)
06.09.2016 12:16 15,2 C 15,2 C 89 % 1024,8 hPa 0,0 mm 2,3 km/h (1 Bft) W-SW 250 0 min 0,000 mm 2,6 UV-I 396 W/m 13,4 C 4,8 km/h (1 Bft)
06.09.2016 12:17 15,1 C 15,2 C 84 % 1024,8 hPa 0,0 mm 1,4 km/h (1 Bft) W-SW 250 0 min 0,000 mm 2,6 UV-I 204 W/m 12,4 C 3,2 km/h (1 Bft)
06.09.2016 12:18 15,0 C 15,1 C 84 % 1024,8 hPa 0,0 mm 1,0 km/h (0 Bft) W-SW 250 0 min 0,000 mm 2,6 UV-I 209 W/m 12,3 C 1,6 km/h (1 Bft)
06.09.2016 12:19 14,9 C 15,0 C 86 % 1024,8 hPa 0,0 mm 1,9 km/h (1 Bft) W 280 0 min 0,000 mm 2,9 UV-I 234 W/m 12,6 C 3,2 km/h (1 Bft)
06.09.2016 12:20 15,0 C 15,0 C 85 % 1024,8 hPa 0,0 mm 1,5 km/h (1 Bft) W-NW 286 0 min 0,000 mm 2,4 UV-I 195 W/m 12,5 C 3,2 km/h (1 Bft)
06.09.2016 12:21 15,1 C 15,1 C 86 % 1024,8 hPa 0,0 mm 1,0 km/h (0 Bft) W-NW 288 0 min 0,000 mm 2,3 UV-I 200 W/m 12,8 C 1,6 km/h (1 Bft)
06.09.2016 12:22 15,0 C 15,1 C 87 % 1024,7 hPa 0,0 mm 0,0 km/h (0 Bft) W-NW 288 0 min 0,000 mm 2,2 UV-I 183 W/m 12,9 C 0,0 km/h (0 Bft)
06.09.2016 12:23 14,9 C 15,0 C 86 % 1024,7 hPa 0,0 mm 0,0 km/h (0 Bft) W-NW 288 0 min 0,000 mm 2,2 UV-I 183 W/m 12,6 C 0,0 km/h (0 Bft)
06.09.2016 12:24 14,9 C 14,9 C 86 % 1024,8 hPa 0,0 mm 0,0 km/h (0 Bft) W-NW 288 0 min 0,000 mm 2,2 UV-I 190 W/m 12,6 C 0,0 km/h (0 Bft)
06.09.2016 12:25 14,9 C 14,9 C 86 % 1024,7 hPa 0,0 mm 0,0 km/h (0 Bft) W-NW 288 0 min 0,000 mm 2,1 UV-I 199 W/m 12,6 C 0,0 km/h (0 Bft)
06.09.2016 12:26 15,0 C 15,0 C 86 % 1024,7 hPa 0,0 mm 0,0 km/h (0 Bft) W-NW 288 0 min 0,000 mm 1,9 UV-I 190 W/m 12,7 C 0,0 km/h (0 Bft)
06.09.2016 12:27 15,0 C 15,0 C 86 % 1024,8 hPa 0,0 mm 0,0 km/h (0 Bft) W-NW 288 0 min 0,000 mm 1,8 UV-I 172 W/m 12,7 C 0,0 km/h (0 Bft)
06.09.2016 12:28 15,0 C 15,0 C 86 % 1024,7 hPa 0,0 mm 0,0 km/h (0 Bft) W-NW 288 0 min 0,000 mm 1,8 UV-I 165 W/m 12,7 C 0,0 km/h (0 Bft)
06.09.2016 12:29 14,9 C 15,0 C 85 % 1024,8 hPa 0,0 mm 0,0 km/h (0 Bft) W-NW 288 0 min 0,000 mm 1,8 UV-I 160 W/m 12,4 C 0,0 km/h (0 Bft)
06.09.2016 12:30 14,9 C 14,9 C 86 % 1024,7 hPa 0,0 mm 0,0 km/h (0 Bft) W-NW 288 0 min 0,000 mm 1,8 UV-I 158 W/m 12,6 C 0,0 km/h (0 Bft)
06.09.2016 12:31 14,9 C 14,9 C 86 % 1024,7 hPa 0,0 mm 0,0 km/h (0 Bft) W-NW 288 0 min 0,000 mm 1,9 UV-I 214 W/m 12,6 C 0,0 km/h (0 Bft)
06.09.2016 12:32 14,8 C 14,9 C 88 % 1024,7 hPa 0,0 mm 0,0 km/h (0 Bft) N 5 0 min 0,000 mm 2,4 UV-I 234 W/m 12,8 C 0,0 km/h (0 Bft)
06.09.2016 12:33 14,8 C 14,8 C 88 % 1024,7 hPa 0,0 mm 0,0 km/h (0 Bft) N 5 0 min 0,000 mm 2,5 UV-I 236 W/m 12,8 C 0,0 km/h (0 Bft)
06.09.2016 12:34 14,9 C 14,9 C 87 % 1024,7 hPa 0,0 mm 0,0 km/h (0 Bft) N 5 0 min 0,000 mm 2,7 UV-I 244 W/m 12,8 C 0,0 km/h (0 Bft)
06.09.2016 12:35 14,9 C 14,9 C 87 % 1024,7 hPa 0,0 mm 0,0 km/h (0 Bft) N-NO 22 0 min 0,000 mm 2,9 UV-I 257 W/m 12,8 C 0,0 km/h (0 Bft)
06.09.2016 12:36 14,9 C 15,0 C 84 % 1024,6 hPa 0,0 mm 1,8 km/h (1 Bft) O 92 1 min 0,000 mm 5,5 UV-I 911 W/m 12,2 C 4,8 km/h (1 Bft)
06.09.2016 12:37 15,1 C 15,1 C 85 % 1024,6 hPa 0,0 mm 3,8 km/h (1 Bft) O 92 1 min 0,000 mm 5,6 UV-I 918 W/m 12,6 C 4,8 km/h (1 Bft)
06.09.2016 12:38 15,3 C 15,3 C 85 % 1024,6 hPa 0,0 mm 3,0 km/h (1 Bft) O 92 1 min 0,000 mm 5,8 UV-I 925 W/m 12,8 C 4,8 km/h (1 Bft)
06.09.2016 12:39 15,5 C 15,5 C 85 % 1024,5 hPa 0,0 mm 2,6 km/h (1 Bft) O-SO 111 1 min 0,000 mm 5,7 UV-I 905 W/m 13,0 C 4,8 km/h (1 Bft)
06.09.2016 12:40 15,6 C 15,6 C 84 % 1024,5 hPa 0,0 mm 3,7 km/h (1 Bft) SO 132 1 min 0,000 mm 4,8 UV-I 905 W/m 12,9 C 4,8 km/h (1 Bft)
06.09.2016 12:41 15,6 C 15,6 C 85 % 1024,5 hPa 0,0 mm 2,3 km/h (1 Bft) SO 132 1 min 0,000 mm 5,8 UV-I 905 W/m 13,1 C 4,8 km/h (1 Bft)
06.09.2016 12:42 15,7 C 15,7 C 82 % 1024,4 hPa 0,0 mm 3,9 km/h (1 Bft) W-SW 253 1 min 0,000 mm 5,8 UV-I 956 W/m 12,6 C 11,3 km/h (2 Bft)
06.09.2016 12:43 15,9 C 15,9 C 86 % 1024,5 hPa 0,0 mm 7,8 km/h (2 Bft) W-SW 240 1 min 0,000 mm 5,9 UV-I 983 W/m 13,6 C 11,3 km/h (2 Bft)
06.09.2016 12:44 16,1 C 16,1 C 83 % 1024,4 hPa 0,0 mm 3,8 km/h (1 Bft) NW 317 1 min 0,000 mm 5,9 UV-I 1000 W/m 13,2 C 6,4 km/h (2 Bft)
06.09.2016 12:45 16,2 C 16,2 C 85 % 1024,4 hPa 0,0 mm 3,8 km/h (1 Bft) W 266 1 min 0,000 mm 5,6 UV-I 1013 W/m 13,7 C 4,8 km/h (1 Bft)
06.09.2016 12:46 16,3 C 16,3 C 82 % 1024,4 hPa 0,0 mm 7,5 km/h (2 Bft) W-SW 258 1 min 0,000 mm 2,7 UV-I 1013 W/m 13,2 C 11,3 km/h (2 Bft)
06.09.2016 12:47 16,3 C 16,3 C 84 % 1024,5 hPa 0,0 mm 8,3 km/h (2 Bft) W 279 0 min 0,000 mm 2,2 UV-I 309 W/m 13,6 C 12,9 km/h (3 Bft)
06.09.2016 12:48 16,3 C 16,3 C 83 % 1024,5 hPa 0,0 mm 9,0 km/h (2 Bft) N 360 0 min 0,000 mm 1,7 UV-I 176 W/m 13,4 C 14,5 km/h (3 Bft)
06.09.2016 12:49 16,2 C 16,3 C 84 % 1024,5 hPa 0,0 mm 5,5 km/h (1 Bft) NW 325 0 min 0,000 mm 1,4 UV-I 144 W/m 13,5 C 8,0 km/h (2 Bft)
06.09.2016 12:50 16,2 C 16,2 C 84 % 1024,5 hPa 0,0 mm 6,6 km/h (2 Bft) N-NW 346 0 min 0,000 mm 1,1 UV-I 123 W/m 13,5 C 8,0 km/h (2 Bft)
06.09.2016 12:51 16,0 C 16,2 C 82 % 1024,5 hPa 0,0 mm 2,5 km/h (1 Bft) W-NW 299 0 min 0,000 mm 1,0 UV-I 107 W/m 12,9 C 6,4 km/h (2 Bft)
06.09.2016 12:52 15,9 C 16,0 C 83 % 1024,5 hPa 0,0 mm 1,2 km/h (1 Bft) W-NW 298 0 min 0,000 mm 1,0 UV-I 98 W/m 13,0 C 1,6 km/h (1 Bft)
06.09.2016 12:53 15,8 C 15,9 C 82 % 1024,5 hPa 0,0 mm 2,8 km/h (1 Bft) W 275 0 min 0,000 mm 1,1 UV-I 93 W/m 12,7 C 4,8 km/h (1 Bft)
06.09.2016 12:54 15,7 C 15,8 C 82 % 1024,5 hPa 0,0 mm 2,9 km/h (1 Bft) W-NW 302 0 min 0,000 mm 1,1 UV-I 86 W/m 12,6 C 4,8 km/h (1 Bft)
06.09.2016 12:55 15,6 C 15,7 C 83 % 1024,5 hPa 0,0 mm 2,0 km/h (1 Bft) N 355 0 min 0,000 mm 1,4 UV-I 84 W/m 12,7 C 3,2 km/h (1 Bft)
06.09.2016 12:56 15,5 C 15,6 C 83 % 1024,5 hPa 0,0 mm 1,8 km/h (1 Bft) NW 325 0 min 0,000 mm 1,5 UV-I 83 W/m 12,6 C 3,2 km/h (1 Bft)
06.09.2016 12:57 15,5 C 15,5 C 84 % 1024,5 hPa 0,0 mm 2,8 km/h (1 Bft) W-NW 293 0 min 0,000 mm 1,6 UV-I 81 W/m 12,8 C 4,8 km/h (1 Bft)
06.09.2016 12:58 15,4 C 15,5 C 84 % 1024,5 hPa 0,0 mm 4,0 km/h (1 Bft) W-NW 294 0 min 0,000 mm 1,7 UV-I 77 W/m 12,7 C 6,4 km/h (2 Bft)
06.09.2016 12:59 15,3 C 15,4 C 84 % 1024,5 hPa 0,0 mm 5,8 km/h (2 Bft) W-NW 288 0 min 0,000 mm 1,8 UV-I 76 W/m 12,6 C 6,4 km/h (2 Bft)
06.09.2016 13:00 15,3 C 15,3 C 84 % 1024,6 hPa 0,0 mm 5,8 km/h (2 Bft) NW 323 0 min 0,000 mm 1,9 UV-I 81 W/m 12,6 C 8,0 km/h (2 Bft)
06.09.2016 13:01 15,2 C 15,3 C 84 % 1024,6 hPa 0,0 mm 4,8 km/h (1 Bft) NW 321 0 min 0,177 mm 2,1 UV-I 79 W/m 12,5 C 8,0 km/h (2 Bft)
06.09.2016 13:02 15,2 C 15,2 C 85 % 1024,6 hPa 0,0 mm 3,9 km/h (1 Bft) W-NW 290 0 min 0,000 mm 2,2 UV-I 77 W/m 12,7 C 4,8 km/h (1 Bft)
06.09.2016 13:03 15,1 C 15,2 C 86 % 1024,5 hPa 0,0 mm 2,1 km/h (1 Bft) W-NW 284 0 min 0,000 mm 2,3 UV-I 91 W/m 12,8 C 3,2 km/h (1 Bft)
06.09.2016 13:04 15,0 C 15,1 C 85 % 1024,5 hPa 0,0 mm 3,5 km/h (1 Bft) NW 320 0 min 0,000 mm 2,5 UV-I 113 W/m 12,5 C 4,8 km/h (1 Bft)
06.09.2016 13:05 14,9 C 15,0 C 85 % 1024,5 hPa 0,0 mm 3,9 km/h (1 Bft) W-NW 284 0 min 0,000 mm 3,0 UV-I 142 W/m 12,4 C 6,4 km/h (2 Bft)
06.09.2016 13:06 15,0 C 15,0 C 86 % 1024,5 hPa 0,0 mm 3,0 km/h (1 Bft) W 275 1 min 0,000 mm 5,4 UV-I 770 W/m 12,7 C 4,8 km/h (1 Bft)
06.09.2016 13:07 15,2 C 15,2 C 86 % 1024,6 hPa 0,0 mm 5,1 km/h (1 Bft) NW 312 1 min 0,000 mm 5,3 UV-I 737 W/m 12,9 C 8,0 km/h (2 Bft)
06.09.2016 13:08 15,4 C 15,4 C 86 % 1024,5 hPa 0,0 mm 5,6 km/h (1 Bft) NW 310 1 min 0,000 mm 5,6 UV-I 805 W/m 13,1 C 6,4 km/h (2 Bft)
06.09.2016 13:09 15,6 C 15,6 C 84 % 1024,6 hPa 0,0 mm 4,4 km/h (1 Bft) W-NW 301 1 min 0,000 mm 5,7 UV-I 826 W/m 12,9 C 6,4 km/h (2 Bft)
06.09.2016 13:10 15,7 C 15,7 C 85 % 1024,5 hPa 0,0 mm 4,2 km/h (1 Bft) NW 318 1 min 0,000 mm 5,8 UV-I 849 W/m 13,2 C 6,4 km/h (2 Bft)
06.09.2016 13:11 15,8 C 15,8 C 86 % 1024,5 hPa 0,0 mm 2,9 km/h (1 Bft) NW 314 1 min 0,000 mm 5,9 UV-I 900 W/m 13,5 C 4,8 km/h (1 Bft)
06.09.2016 13:12 15,9 C 15,9 C 83 % 1024,5 hPa 0,0 mm 2,9 km/h (1 Bft) W 276 1 min 0,000 mm 6,0 UV-I 807 W/m 13,0 C 3,2 km/h (1 Bft)
06.09.2016 13:13 15,8 C 15,9 C 82 % 1024,5 hPa 0,0 mm 1,6 km/h (1 Bft) NW 323 1 min 0,000 mm 4,0 UV-I 807 W/m 12,7 C 4,8 km/h (1 Bft)
06.09.2016 13:14 15,8 C 15,8 C 83 % 1024,4 hPa 0,0 mm 6,0 km/h (2 Bft) W-NW 283 1 min 0,000 mm 2,8 UV-I 807 W/m 12,9 C 9,7 km/h (2 Bft)
06.09.2016 13:15 15,8 C 15,8 C 83 % 1024,4 hPa 0,0 mm 2,8 km/h (1 Bft) S-SW 207 0 min 0,000 mm 2,8 UV-I 207 W/m 12,9 C 9,7 km/h (2 Bft)
06.09.2016 13:16 15,8 C 15,8 C 83 % 1024,2 hPa 0,0 mm 3,0 km/h (1 Bft) S-SW 195 0 min 0,000 mm 4,6 UV-I 255 W/m 12,9 C 4,8 km/h (1 Bft)
06.09.2016 13:17 15,8 C 15,8 C 84 % 1024,2 hPa 0,0 mm 4,3 km/h (1 Bft) W 271 0 min 0,000 mm 4,4 UV-I 255 W/m 13,1 C 6,4 km/h (2 Bft)
06.09.2016 13:18 15,8 C 15,8 C 82 % 1024,3 hPa 0,0 mm 3,5 km/h (1 Bft) W 273 0 min 0,000 mm 2,8 UV-I 334 W/m 12,7 C 6,4 km/h (2 Bft)
06.09.2016 13:19 15,9 C 15,9 C 82 % 1024,2 hPa 0,0 mm 0,4 km/h (0 Bft) W 273 0 min 0,000 mm 2,2 UV-I 334 W/m 12,8 C 1,6 km/h (1 Bft)
06.09.2016 13:20 16,0 C 16,0 C 81 % 1024,3 hPa 0,0 mm 1,9 km/h (1 Bft) W 280 0 min 0,000 mm 2,1 UV-I 90 W/m 12,7 C 3,2 km/h (1 Bft)
06.09.2016 13:21 15,9 C 16,0 C 82 % 1024,3 hPa 0,0 mm 2,3 km/h (1 Bft) NO 35 0 min 0,000 mm 2,2 UV-I 81 W/m 12,8 C 4,8 km/h (1 Bft)
06.09.2016 13:22 15,8 C 15,9 C 83 % 1024,3 hPa 0,0 mm 3,5 km/h (1 Bft) O-NO 64 0 min 0,000 mm 2,2 UV-I 86 W/m 12,9 C 4,8 km/h (1 Bft)
06.09.2016 13:23 15,6 C 15,8 C 84 % 1024,3 hPa 0,0 mm 3,1 km/h (1 Bft) O-NO 64 0 min 0,000 mm 2,3 UV-I 100 W/m 12,9 C 4,8 km/h (1 Bft)
06.09.2016 13:24 15,4 C 15,6 C 86 % 1024,3 hPa 0,0 mm 2,2 km/h (1 Bft) O 83 0 min 0,000 mm 2,2 UV-I 90 W/m 13,1 C 4,8 km/h (1 Bft)
06.09.2016 13:25 15,3 C 15,4 C 83 % 1024,3 hPa 0,0 mm 1,5 km/h (1 Bft) O 83 0 min 0,000 mm 2,2 UV-I 88 W/m 12,4 C 3,2 km/h (1 Bft)
06.09.2016 13:26 15,3 C 15,3 C 83 % 1024,3 hPa 0,0 mm 4,0 km/h (1 Bft) O-SO 123 0 min 0,000 mm 2,2 UV-I 86 W/m 12,4 C 6,4 km/h (2 Bft)
06.09.2016 13:27 15,3 C 15,3 C 79 % 1024,3 hPa 0,0 mm 0,9 km/h (0 Bft) O-SO 123 0 min 0,000 mm 2,2 UV-I 91 W/m 11,7 C 1,6 km/h (1 Bft)
06.09.2016 13:28 15,3 C 15,3 C 79 % 1024,3 hPa 0,0 mm 1,8 km/h (1 Bft) SO 124 0 min 0,000 mm 2,3 UV-I 95 W/m 11,7 C 3,2 km/h (1 Bft)
06.09.2016 13:29 15,3 C 15,4 C 83 % 1024,3 hPa 0,0 mm 3,2 km/h (1 Bft) O 95 0 min 0,000 mm 2,4 UV-I 132 W/m 12,4 C 4,8 km/h (1 Bft)
06.09.2016 13:30 15,3 C 15,3 C 81 % 1024,3 hPa 0,0 mm 4,1 km/h (1 Bft) O-SO 117 0 min 0,000 mm 2,8 UV-I 163 W/m 12,1 C 6,4 km/h (2 Bft)
06.09.2016 13:31 15,2 C 15,3 C 83 % 1024,2 hPa 0,0 mm 3,6 km/h (1 Bft) O-SO 117 0 min 0,000 mm 3,4 UV-I 197 W/m 12,3 C 6,4 km/h (2 Bft)
06.09.2016 13:32 15,2 C 15,2 C 83 % 1024,3 hPa 0,0 mm 2,7 km/h (1 Bft) O-SO 117 0 min 0,000 mm 5,8 UV-I 197 W/m 12,3 C 3,2 km/h (1 Bft)
06.09.2016 13:33 15,3 C 15,3 C 85 % 1024,3 hPa 0,0 mm 3,6 km/h (1 Bft) O-SO 113 1 min 0,000 mm 6,0 UV-I 904 W/m 12,8 C 6,4 km/h (2 Bft)
06.09.2016 13:34 15,6 C 15,6 C 85 % 1024,2 hPa 0,0 mm 3,6 km/h (1 Bft) S-SO 147 1 min 0,000 mm 6,0 UV-I 926 W/m 13,1 C 4,8 km/h (1 Bft)
06.09.2016 13:35 15,8 C 15,8 C 83 % 1024,2 hPa 0,0 mm 3,8 km/h (1 Bft) SO 146 1 min 0,000 mm 5,5 UV-I 935 W/m 12,9 C 6,4 km/h (2 Bft)
06.09.2016 13:36 15,9 C 15,9 C 83 % 1024,2 hPa 0,0 mm 2,3 km/h (1 Bft) O-NO 76 1 min 0,000 mm 3,1 UV-I 935 W/m 13,0 C 4,8 km/h (1 Bft)
06.09.2016 13:37 16,0 C 16,0 C 82 % 1024,2 hPa 0,0 mm 1,7 km/h (1 Bft) O-NO 61 0 min 0,000 mm 3,2 UV-I 246 W/m 12,9 C 4,8 km/h (1 Bft)
06.09.2016 13:38 16,1 C 16,1 C 82 % 1024,2 hPa 0,0 mm 4,6 km/h (1 Bft) O-NO 72 0 min 0,000 mm 5,5 UV-I 246 W/m 13,0 C 8,0 km/h (2 Bft)
06.09.2016 13:39 16,1 C 16,1 C 82 % 1024,2 hPa 0,0 mm 3,6 km/h (1 Bft) S-SO 162 0 min 0,000 mm 6,0 UV-I 246 W/m 13,0 C 6,4 km/h (2 Bft)
06.09.2016 13:40 16,3 C 16,3 C 83 % 1024,2 hPa 0,0 mm 4,2 km/h (1 Bft) O-NO 72 0 min 0,000 mm 5,2 UV-I 246 W/m 13,4 C 8,0 km/h (2 Bft)
06.09.2016 13:41 16,4 C 16,4 C 82 % 1024,2 hPa 0,0 mm 4,8 km/h (1 Bft) O-NO 71 0 min 0,000 mm 3,6 UV-I 246 W/m 13,3 C 6,4 km/h (2 Bft)
06.09.2016 13:42 16,4 C 16,4 C 79 % 1024,1 hPa 0,0 mm 5,4 km/h (1 Bft) O 98 0 min 0,000 mm 6,1 UV-I 246 W/m 12,7 C 6,4 km/h (2 Bft)
06.09.2016 13:43 16,4 C 16,4 C 79 % 1024,1 hPa 0,0 mm 3,2 km/h (1 Bft) O-SO 109 1 min 0,000 mm 5,7 UV-I 956 W/m 12,7 C 4,8 km/h (1 Bft)
06.09.2016 13:44 16,5 C 16,5 C 80 % 1024,1 hPa 0,0 mm 4,7 km/h (1 Bft) O-NO 64 1 min 0,000 mm 5,7 UV-I 956 W/m 13,0 C 6,4 km/h (2 Bft)
06.09.2016 13:45 16,6 C 16,6 C 80 % 1024,1 hPa 0,0 mm 1,8 km/h (1 Bft) O-NO 63 1 min 0,000 mm 4,1 UV-I 747 W/m 13,1 C 3,2 km/h (1 Bft)
06.09.2016 13:46 16,8 C 16,8 C 81 % 1024,1 hPa 0,0 mm 4,2 km/h (1 Bft) NO 51 1 min 0,000 mm 4,6 UV-I 747 W/m 13,5 C 6,4 km/h (2 Bft)
06.09.2016 13:47 16,9 C 16,9 C 81 % 1024,2 hPa 0,0 mm 3,6 km/h (1 Bft) NO 49 1 min 0,000 mm 5,0 UV-I 747 W/m 13,6 C 4,8 km/h (1 Bft)
06.09.2016 13:48 16,9 C 17,0 C 79 % 1024,2 hPa 0,0 mm 5,6 km/h (1 Bft) O-NO 68 0 min 0,000 mm 3,2 UV-I 281 W/m 13,2 C 9,7 km/h (2 Bft)
06.09.2016 13:49 16,9 C 16,9 C 79 % 1024,2 hPa 0,0 mm 3,3 km/h (1 Bft) O-NO 74 0 min 0,000 mm 3,2 UV-I 267 W/m 13,2 C 4,8 km/h (1 Bft)
06.09.2016 13:50 16,8 C 16,9 C 77 % 1024,2 hPa 0,0 mm 1,5 km/h (1 Bft) O-NO 74 0 min 0,000 mm 4,5 UV-I 267 W/m 12,7 C 3,2 km/h (1 Bft)
06.09.2016 13:51 16,7 C 16,8 C 80 % 1024,2 hPa 0,0 mm 0,7 km/h (0 Bft) O-NO 74 0 min 0,000 mm 3,4 UV-I 287 W/m 13,2 C 1,6 km/h (1 Bft)
06.09.2016 13:52 16,6 C 16,7 C 77 % 1024,2 hPa 0,0 mm 4,7 km/h (1 Bft) S-SW 194 0 min 0,000 mm 3,5 UV-I 299 W/m 12,5 C 6,4 km/h (2 Bft)
06.09.2016 13:53 16,6 C 16,6 C 77 % 1024,2 hPa 0,0 mm 3,8 km/h (1 Bft) S 169 0 min 0,000 mm 3,7 UV-I 352 W/m 12,5 C 6,4 km/h (2 Bft)
06.09.2016 13:54 16,5 C 16,6 C 76 % 1024,1 hPa 0,0 mm 1,7 km/h (1 Bft) S-SW 211 0 min 0,000 mm 3,2 UV-I 352 W/m 12,3 C 3,2 km/h (1 Bft)
06.09.2016 13:55 16,6 C 16,6 C 78 % 1024,1 hPa 0,0 mm 0,8 km/h (0 Bft) S-SW 211 0 min 0,000 mm 3,1 UV-I 288 W/m 12,7 C 3,2 km/h (1 Bft)
06.09.2016 13:56 16,6 C 16,6 C 83 % 1024,1 hPa 0,0 mm 2,3 km/h (1 Bft) N 5 0 min 0,000 mm 3,0 UV-I 274 W/m 13,7 C 6,4 km/h (2 Bft)
06.09.2016 13:57 16,7 C 16,7 C 77 % 1024,1 hPa 0,0 mm 7,9 km/h (2 Bft) NO 42 0 min 0,000 mm 2,9 UV-I 272 W/m 12,6 C 11,3 km/h (2 Bft)
06.09.2016 13:58 16,7 C 16,7 C 75 % 1024,1 hPa 0,0 mm 7,8 km/h (2 Bft) O 84 0 min 0,000 mm 2,9 UV-I 278 W/m 12,2 C 11,3 km/h (2 Bft)
06.09.2016 13:59 16,6 C 16,7 C 77 % 1024,1 hPa 0,0 mm 3,9 km/h (1 Bft) SO 128 0 min 0,000 mm 2,9 UV-I 302 W/m 12,5 C 6,4 km/h (2 Bft)
06.09.2016 14:00 16,5 C 16,6 C 75 % 1024,1 hPa 0,0 mm 5,2 km/h (1 Bft) S-SO 150 0 min 0,000 mm 4,8 UV-I 302 W/m 12,1 C 6,4 km/h (2 Bft)
06.09.2016 14:01 16,5 C 16,5 C 74 % 1024,1 hPa 0,0 mm 3,6 km/h (1 Bft) S 180 0 min 0,229 mm 4,2 UV-I 302 W/m 11,8 C 6,4 km/h (2 Bft)
06.09.2016 14:02 16,5 C 16,6 C 76 % 1024,2 hPa 0,0 mm 4,8 km/h (1 Bft) NO 35 1 min 0,000 mm 2,6 UV-I 563 W/m 12,3 C 9,7 km/h (2 Bft)
06.09.2016 14:03 16,7 C 16,7 C 76 % 1024,1 hPa 0,0 mm 5,9 km/h (2 Bft) O-NO 61 1 min 0,000 mm 4,5 UV-I 615 W/m 12,4 C 8,0 km/h (2 Bft)
06.09.2016 14:04 16,8 C 16,8 C 81 % 1024,1 hPa 0,0 mm 4,4 km/h (1 Bft) SO 128 1 min 0,000 mm 4,7 UV-I 919 W/m 13,5 C 4,8 km/h (1 Bft)
06.09.2016 14:05 17,1 C 17,1 C 78 % 1024,1 hPa 0,0 mm 2,5 km/h (1 Bft) SO 131 1 min 0,000 mm 4,7 UV-I 919 W/m 13,2 C 4,8 km/h (1 Bft)
06.09.2016 14:06 17,1 C 17,1 C 74 % 1024,1 hPa 0,0 mm 4,3 km/h (1 Bft) NO 46 1 min 0,000 mm 2,4 UV-I 919 W/m 12,4 C 8,0 km/h (2 Bft)
06.09.2016 14:07 17,1 C 17,2 C 75 % 1024,1 hPa 0,0 mm 6,1 km/h (2 Bft) NO 44 1 min 0,000 mm 2,0 UV-I 919 W/m 12,6 C 8,0 km/h (2 Bft)
06.09.2016 14:08 17,0 C 17,1 C 74 % 1024,1 hPa 0,0 mm 6,1 km/h (2 Bft) O-NO 76 0 min 0,000 mm 1,9 UV-I 220 W/m 12,3 C 8,0 km/h (2 Bft)
06.09.2016 14:09 16,9 C 17,0 C 76 % 1024,1 hPa 0,0 mm 5,3 km/h (1 Bft) O 95 0 min 0,000 mm 1,7 UV-I 192 W/m 12,6 C 6,4 km/h (2 Bft)
06.09.2016 14:10 16,7 C 16,9 C 74 % 1024,1 hPa 0,0 mm 2,8 km/h (1 Bft) O 95 0 min 0,000 mm 2,5 UV-I 192 W/m 12,0 C 4,8 km/h (1 Bft)
06.09.2016 14:11 16,6 C 16,7 C 74 % 1024,2 hPa 0,0 mm 2,1 km/h (1 Bft) O 95 0 min 0,000 mm 1,9 UV-I 183 W/m 11,9 C 3,2 km/h (1 Bft)
06.09.2016 14:12 16,4 C 16,6 C 74 % 1024,2 hPa 0,0 mm 1,5 km/h (1 Bft) O-NO 72 0 min 0,000 mm 1,5 UV-I 171 W/m 11,8 C 3,2 km/h (1 Bft)
06.09.2016 14:13 16,4 C 16,4 C 76 % 1024,2 hPa 0,0 mm 1,3 km/h (1 Bft) O-NO 68 0 min 0,000 mm 1,5 UV-I 158 W/m 12,2 C 3,2 km/h (1 Bft)
06.09.2016 14:14 16,4 C 16,4 C 75 % 1024,2 hPa 0,0 mm 1,6 km/h (1 Bft) O-NO 69 0 min 0,000 mm 1,4 UV-I 141 W/m 12,0 C 3,2 km/h (1 Bft)
06.09.2016 14:15 16,4 C 16,4 C 76 % 1024,2 hPa 0,0 mm 5,0 km/h (1 Bft) SO 132 0 min 0,000 mm 1,4 UV-I 135 W/m 12,2 C 8,0 km/h (2 Bft)
06.09.2016 14:16 16,3 C 16,4 C 77 % 1024,2 hPa 0,0 mm 8,7 km/h (2 Bft) SO 124 0 min 0,000 mm 1,5 UV-I 149 W/m 12,3 C 12,9 km/h (3 Bft)
06.09.2016 14:17 16,2 C 16,3 C 77 % 1024,1 hPa 0,0 mm 4,1 km/h (1 Bft) NO 55 0 min 0,000 mm 1,6 UV-I 158 W/m 12,2 C 6,4 km/h (2 Bft)
06.09.2016 14:18 16,1 C 16,2 C 78 % 1024,2 hPa 0,0 mm 5,6 km/h (1 Bft) O 95 0 min 0,000 mm 1,6 UV-I 169 W/m 12,3 C 8,0 km/h (2 Bft)
06.09.2016 14:19 16,1 C 16,1 C 78 % 1024,1 hPa 0,0 mm 4,5 km/h (1 Bft) O 85 0 min 0,000 mm 1,6 UV-I 171 W/m 12,3 C 6,4 km/h (2 Bft)
06.09.2016 14:20 16,1 C 16,1 C 80 % 1024,1 hPa 0,0 mm 3,4 km/h (1 Bft) O-NO 69 0 min 0,000 mm 1,6 UV-I 169 W/m 12,6 C 4,8 km/h (1 Bft)
06.09.2016 14:21 16,0 C 16,1 C 80 % 1024,1 hPa 0,0 mm 3,3 km/h (1 Bft) O-NO 69 0 min 0,000 mm 1,6 UV-I 176 W/m 12,5 C 4,8 km/h (1 Bft)
06.09.2016 14:22 16,0 C 16,0 C 79 % 1024,1 hPa 0,0 mm 3,4 km/h (1 Bft) O-SO 109 0 min 0,000 mm 1,5 UV-I 148 W/m 12,4 C 4,8 km/h (1 Bft)
06.09.2016 14:23 16,0 C 16,0 C 82 % 1024,2 hPa 0,0 mm 2,3 km/h (1 Bft) O-SO 109 0 min 0,000 mm 1,3 UV-I 123 W/m 12,9 C 4,8 km/h (1 Bft)
06.09.2016 14:24 15,9 C 16,0 C 81 % 1024,1 hPa 0,0 mm 0,7 km/h (0 Bft) O-SO 109 0 min 0,000 mm 1,4 UV-I 111 W/m 12,6 C 1,6 km/h (1 Bft)
06.09.2016 14:25 15,9 C 15,9 C 80 % 1024,2 hPa 0,0 mm 1,5 km/h (1 Bft) O-SO 118 0 min 0,000 mm 1,5 UV-I 109 W/m 12,5 C 3,2 km/h (1 Bft)
06.09.2016 14:26 15,9 C 15,9 C 80 % 1024,2 hPa 0,0 mm 0,5 km/h (0 Bft) O-SO 118 0 min 0,000 mm 1,6 UV-I 104 W/m 12,5 C 1,6 km/h (1 Bft)
06.09.2016 14:27 15,9 C 15,9 C 80 % 1024,2 hPa 0,0 mm 0,1 km/h (0 Bft) O-SO 118 0 min 0,000 mm 1,7 UV-I 104 W/m 12,5 C 1,6 km/h (1 Bft)
06.09.2016 14:28 15,9 C 15,9 C 82 % 1024,2 hPa 0,0 mm 1,2 km/h (1 Bft) O-SO 118 0 min 0,000 mm 1,9 UV-I 111 W/m 12,8 C 3,2 km/h (1 Bft)
06.09.2016 14:29 15,8 C 15,9 C 83 % 1024,2 hPa 0,0 mm 0,2 km/h (0 Bft) O-SO 118 0 min 0,000 mm 2,2 UV-I 123 W/m 12,9 C 1,6 km/h (1 Bft)
06.09.2016 14:30 15,8 C 15,8 C 83 % 1024,2 hPa 0,0 mm 0,3 km/h (0 Bft) O-SO 118 0 min 0,000 mm 2,5 UV-I 156 W/m 12,9 C 1,6 km/h (1 Bft)
06.09.2016 14:31 15,8 C 15,8 C 80 % 1024,2 hPa 0,0 mm 1,8 km/h (1 Bft) O-SO 118 0 min 0,000 mm 4,6 UV-I 156 W/m 12,4 C 3,2 km/h (1 Bft)
06.09.2016 14:32 15,9 C 15,9 C 85 % 1024,2 hPa 0,0 mm 1,3 km/h (1 Bft) O-SO 118 1 min 0,000 mm 4,7 UV-I 742 W/m 13,4 C 1,6 km/h (1 Bft)
06.09.2016 14:33 16,1 C 16,1 C 80 % 1024,2 hPa 0,0 mm 1,3 km/h (1 Bft) O 98 1 min 0,000 mm 4,8 UV-I 650 W/m 12,6 C 3,2 km/h (1 Bft)
06.09.2016 14:34 16,3 C 16,3 C 79 % 1024,1 hPa 0,0 mm 2,8 km/h (1 Bft) NO 39 1 min 0,000 mm 4,3 UV-I 578 W/m 12,6 C 3,2 km/h (1 Bft)
06.09.2016 14:35 16,6 C 16,6 C 78 % 1024,2 hPa 0,0 mm 3,6 km/h (1 Bft) O 84 1 min 0,000 mm 5,0 UV-I 752 W/m 12,7 C 4,8 km/h (1 Bft)
06.09.2016 14:36 16,7 C 16,7 C 79 % 1024,1 hPa 0,0 mm 3,4 km/h (1 Bft) O-SO 111 1 min 0,000 mm 5,1 UV-I 754 W/m 13,0 C 4,8 km/h (1 Bft)
06.09.2016 14:37 16,8 C 16,8 C 77 % 1024,1 hPa 0,0 mm 3,3 km/h (1 Bft) SO 146 1 min 0,000 mm 5,1 UV-I 751 W/m 12,7 C 4,8 km/h (1 Bft)
06.09.2016 14:38 16,8 C 16,8 C 77 % 1024,1 hPa 0,0 mm 2,7 km/h (1 Bft) S-SO 158 1 min 0,000 mm 5,1 UV-I 754 W/m 12,7 C 4,8 km/h (1 Bft)
06.09.2016 14:39 16,9 C 16,9 C 76 % 1024,1 hPa 0,0 mm 5,0 km/h (1 Bft) S 187 1 min 0,000 mm 5,1 UV-I 761 W/m 12,6 C 8,0 km/h (2 Bft)
06.09.2016 14:40 16,9 C 16,9 C 76 % 1024,1 hPa 0,0 mm 4,2 km/h (1 Bft) O 85 1 min 0,000 mm 5,1 UV-I 772 W/m 12,6 C 11,3 km/h (2 Bft)
06.09.2016 14:41 17,0 C 17,0 C 75 % 1024,1 hPa 0,0 mm 6,5 km/h (2 Bft) O-NO 76 1 min 0,000 mm 5,1 UV-I 793 W/m 12,5 C 8,0 km/h (2 Bft)
06.09.2016 14:42 17,1 C 17,1 C 73 % 1024,1 hPa 0,0 mm 7,4 km/h (2 Bft) O-NO 70 1 min 0,000 mm 5,0 UV-I 800 W/m 12,2 C 11,3 km/h (2 Bft)
06.09.2016 14:43 17,0 C 17,1 C 72 % 1024,1 hPa 0,0 mm 4,8 km/h (1 Bft) O 92 1 min 0,000 mm 4,9 UV-I 800 W/m 11,9 C 8,0 km/h (2 Bft)
06.09.2016 14:44 17,0 C 17,1 C 72 % 1024,1 hPa 0,0 mm 1,5 km/h (1 Bft) N 11 1 min 0,000 mm 4,8 UV-I 789 W/m 11,9 C 3,2 km/h (1 Bft)
06.09.2016 14:45 17,1 C 17,1 C 70 % 1024,1 hPa 0,0 mm 5,4 km/h (1 Bft) SW 227 1 min 0,000 mm 4,8 UV-I 802 W/m 11,6 C 8,0 km/h (2 Bft)
06.09.2016 14:46 17,1 C 17,1 C 70 % 1024,1 hPa 0,0 mm 6,6 km/h (2 Bft) S 187 1 min 0,000 mm 4,8 UV-I 782 W/m 11,6 C 8,0 km/h (2 Bft)
06.09.2016 14:47 17,1 C 17,1 C 71 % 1024,0 hPa 0,0 mm 3,6 km/h (1 Bft) O-SO 113 1 min 0,000 mm 2,7 UV-I 782 W/m 11,8 C 8,0 km/h (2 Bft)
06.09.2016 14:48 17,2 C 17,2 C 76 % 1024,1 hPa 0,0 mm 3,6 km/h (1 Bft) O-SO 118 1 min 0,000 mm 4,4 UV-I 782 W/m 12,9 C 4,8 km/h (1 Bft)
06.09.2016 14:49 17,2 C 17,2 C 73 % 1024,0 hPa 0,0 mm 2,0 km/h (1 Bft) NO 49 1 min 0,000 mm 3,4 UV-I 782 W/m 12,3 C 3,2 km/h (1 Bft)
06.09.2016 14:50 17,2 C 17,2 C 73 % 1024,0 hPa 0,0 mm 3,1 km/h (1 Bft) O 81 1 min 0,000 mm 4,4 UV-I 782 W/m 12,3 C 4,8 km/h (1 Bft)
06.09.2016 14:51 17,3 C 17,3 C 73 % 1024,0 hPa 0,0 mm 1,4 km/h (1 Bft) O 85 1 min 0,000 mm 4,2 UV-I 782 W/m 12,4 C 4,8 km/h (1 Bft)
06.09.2016 14:52 17,3 C 17,3 C 76 % 1024,0 hPa 0,0 mm 0,4 km/h (0 Bft) O 83 1 min 0,000 mm 4,0 UV-I 726 W/m 13,0 C 1,6 km/h (1 Bft)
06.09.2016 14:53 17,5 C 17,5 C 75 % 1024,0 hPa 0,0 mm 2,1 km/h (1 Bft) O-NO 57 1 min 0,000 mm 2,3 UV-I 726 W/m 13,0 C 3,2 km/h (1 Bft)
06.09.2016 14:54 17,4 C 17,5 C 71 % 1024,0 hPa 0,0 mm 4,6 km/h (1 Bft) NO 50 0 min 0,000 mm 2,2 UV-I 151 W/m 12,1 C 8,0 km/h (2 Bft)
06.09.2016 14:55 17,4 C 17,4 C 73 % 1024,0 hPa 0,0 mm 4,0 km/h (1 Bft) NO 38 0 min 0,000 mm 2,1 UV-I 141 W/m 12,5 C 4,8 km/h (1 Bft)
06.09.2016 14:56 17,3 C 17,4 C 73 % 1024,0 hPa 0,0 mm 0,7 km/h (0 Bft) NO 40 0 min 0,000 mm 2,1 UV-I 132 W/m 12,4 C 3,2 km/h (1 Bft)
06.09.2016 14:57 17,2 C 17,3 C 73 % 1024,1 hPa 0,0 mm 3,8 km/h (1 Bft) NO 40 0 min 0,000 mm 2,2 UV-I 174 W/m 12,3 C 6,4 km/h (2 Bft)
06.09.2016 14:58 17,2 C 17,2 C 73 % 1024,0 hPa 0,0 mm 4,0 km/h (1 Bft) NO 52 0 min 0,000 mm 3,2 UV-I 181 W/m 12,3 C 6,4 km/h (2 Bft)
06.09.2016 14:59 17,2 C 17,2 C 74 % 1024,1 hPa 0,0 mm 1,3 km/h (1 Bft) NO 52 0 min 0,000 mm 2,6 UV-I 155 W/m 12,5 C 1,6 km/h (1 Bft)
06.09.2016 15:00 17,2 C 17,2 C 74 % 1024,0 hPa 0,0 mm 2,5 km/h (1 Bft) NW 318 0 min 0,229 mm 3,8 UV-I 155 W/m 12,5 C 4,8 km/h (1 Bft)
06.09.2016 15:01 17,1 C 17,2 C 73 % 1024,0 hPa 0,0 mm 4,1 km/h (1 Bft) W-NW 298 0 min 0,000 mm 4,1 UV-I 155 W/m 12,2 C 4,8 km/h (1 Bft)
06.09.2016 15:02 17,1 C 17,1 C 70 % 1024,0 hPa 0,0 mm 3,0 km/h (1 Bft) W-NW 298 1 min 0,000 mm 4,1 UV-I 705 W/m 11,6 C 4,8 km/h (1 Bft)
06.09.2016 15:03 17,1 C 17,1 C 69 % 1023,9 hPa 0,0 mm 2,5 km/h (1 Bft) W-NW 298 1 min 0,000 mm 4,0 UV-I 693 W/m 11,4 C 4,8 km/h (1 Bft)
06.09.2016 15:04 17,1 C 17,1 C 67 % 1023,9 hPa 0,0 mm 2,3 km/h (1 Bft) W-NW 298 1 min 0,000 mm 3,2 UV-I 693 W/m 10,9 C 4,8 km/h (1 Bft)
06.09.2016 15:05 17,1 C 17,1 C 68 % 1023,9 hPa 0,0 mm 3,0 km/h (1 Bft) W 277 1 min 0,000 mm 2,6 UV-I 693 W/m 11,1 C 4,8 km/h (1 Bft)
06.09.2016 15:06 17,1 C 17,1 C 69 % 1023,8 hPa 0,0 mm 1,9 km/h (1 Bft) W 277 0 min 0,000 mm 2,6 UV-I 162 W/m 11,4 C 3,2 km/h (1 Bft)
06.09.2016 15:07 17,1 C 17,1 C 68 % 1023,9 hPa 0,0 mm 1,5 km/h (1 Bft) W 277 0 min 0,000 mm 2,7 UV-I 156 W/m 11,1 C 3,2 km/h (1 Bft)
06.09.2016 15:08 17,1 C 17,1 C 68 % 1023,8 hPa 0,0 mm 1,9 km/h (1 Bft) W 277 0 min 0,000 mm 4,3 UV-I 156 W/m 11,1 C 3,2 km/h (1 Bft)
06.09.2016 15:09 17,2 C 17,2 C 71 % 1023,8 hPa 0,0 mm 1,3 km/h (1 Bft) W 277 1 min 0,000 mm 4,3 UV-I 742 W/m 11,9 C 3,2 km/h (1 Bft)
06.09.2016 15:10 17,3 C 17,3 C 68 % 1023,8 hPa 0,0 mm 2,3 km/h (1 Bft) W 262 1 min 0,000 mm 4,2 UV-I 754 W/m 11,3 C 3,2 km/h (1 Bft)
06.09.2016 15:11 17,3 C 17,3 C 69 % 1023,8 hPa 0,0 mm 0,7 km/h (0 Bft) W 262 1 min 0,000 mm 4,2 UV-I 763 W/m 11,6 C 1,6 km/h (1 Bft)
06.09.2016 15:12 17,4 C 17,4 C 68 % 1023,7 hPa 0,0 mm 0,9 km/h (0 Bft) W 262 1 min 0,000 mm 4,2 UV-I 786 W/m 11,4 C 1,6 km/h (1 Bft)
06.09.2016 15:13 17,4 C 17,4 C 70 % 1023,7 hPa 0,0 mm 2,3 km/h (1 Bft) NO 46 1 min 0,000 mm 4,0 UV-I 779 W/m 11,9 C 3,2 km/h (1 Bft)
06.09.2016 15:14 17,4 C 17,5 C 68 % 1023,8 hPa 0,0 mm 3,1 km/h (1 Bft) O-NO 60 1 min 0,000 mm 3,9 UV-I 777 W/m 11,4 C 4,8 km/h (1 Bft)
06.09.2016 15:15 17,4 C 17,5 C 68 % 1023,7 hPa 0,0 mm 4,4 km/h (1 Bft) O 85 1 min 0,000 mm 3,8 UV-I 772 W/m 11,4 C 6,4 km/h (2 Bft)
06.09.2016 15:16 17,5 C 17,5 C 68 % 1023,7 hPa 0,0 mm 5,8 km/h (2 Bft) O-SO 123 1 min 0,000 mm 3,3 UV-I 772 W/m 11,5 C 9,7 km/h (2 Bft)
06.09.2016 15:17 17,5 C 17,5 C 68 % 1023,6 hPa 0,0 mm 6,9 km/h (2 Bft) O-NO 61 1 min 0,000 mm 2,1 UV-I 701 W/m 11,5 C 11,3 km/h (2 Bft)
06.09.2016 15:18 17,6 C 17,6 C 74 % 1023,6 hPa 0,0 mm 7,0 km/h (2 Bft) N 5 1 min 0,000 mm 1,6 UV-I 701 W/m 12,9 C 11,3 km/h (2 Bft)
06.09.2016 15:19 17,5 C 17,6 C 66 % 1023,7 hPa 0,0 mm 3,5 km/h (1 Bft) W 277 1 min 0,000 mm 1,4 UV-I 701 W/m 11,1 C 4,8 km/h (1 Bft)
06.09.2016 15:20 17,4 C 17,5 C 69 % 1023,7 hPa 0,0 mm 5,4 km/h (1 Bft) N-NO 17 0 min 0,000 mm 1,4 UV-I 113 W/m 11,7 C 9,7 km/h (2 Bft)
06.09.2016 15:21 17,4 C 17,4 C 66 % 1023,7 hPa 0,0 mm 3,8 km/h (1 Bft) N-NO 24 0 min 0,000 mm 1,2 UV-I 107 W/m 11,0 C 6,4 km/h (2 Bft)
06.09.2016 15:22 17,4 C 17,4 C 66 % 1023,7 hPa 0,0 mm 6,5 km/h (2 Bft) N 360 0 min 0,000 mm 1,2 UV-I 100 W/m 11,0 C 8,0 km/h (2 Bft)
06.09.2016 15:23 17,3 C 17,4 C 67 % 1023,7 hPa 0,0 mm 10,5 km/h (2 Bft) O-NO 69 0 min 0,000 mm 1,3 UV-I 95 W/m 11,1 C 16,1 km/h (3 Bft)
06.09.2016 15:24 17,3 C 17,3 C 68 % 1023,7 hPa 0,0 mm 5,5 km/h (1 Bft) N-NO 27 0 min 0,000 mm 1,3 UV-I 90 W/m 11,3 C 12,9 km/h (3 Bft)
06.09.2016 15:25 17,2 C 17,3 C 65 % 1023,8 hPa 0,0 mm 3,0 km/h (1 Bft) O 86 0 min 0,000 mm 1,4 UV-I 88 W/m 10,6 C 6,4 km/h (2 Bft)
06.09.2016 15:26 17,1 C 17,2 C 67 % 1023,8 hPa 0,0 mm 4,4 km/h (1 Bft) N-NO 17 0 min 0,000 mm 1,4 UV-I 84 W/m 10,9 C 8,0 km/h (2 Bft)
06.09.2016 15:27 17,1 C 17,1 C 67 % 1023,8 hPa 0,0 mm 7,0 km/h (2 Bft) N-NO 29 0 min 0,000 mm 1,6 UV-I 83 W/m 10,9 C 9,7 km/h (2 Bft)
06.09.2016 15:28 17,0 C 17,1 C 66 % 1023,7 hPa 0,0 mm 4,8 km/h (1 Bft) NO 34 0 min 0,000 mm 1,7 UV-I 83 W/m 10,6 C 8,0 km/h (2 Bft)
06.09.2016 15:29 17,0 C 17,0 C 66 % 1023,7 hPa 0,0 mm 10,1 km/h (2 Bft) O-NO 69 0 min 0,000 mm 1,7 UV-I 83 W/m 10,6 C 14,5 km/h (3 Bft)
06.09.2016 15:30 16,9 C 17,0 C 67 % 1023,8 hPa 0,0 mm 7,4 km/h (2 Bft) NO 47 0 min 0,000 mm 1,8 UV-I 77 W/m 10,7 C 12,9 km/h (3 Bft)
06.09.2016 15:31 16,8 C 16,9 C 67 % 1023,8 hPa 0,0 mm 5,2 km/h (1 Bft) O-NO 57 0 min 0,000 mm 1,8 UV-I 77 W/m 10,6 C 8,0 km/h (2 Bft)
06.09.2016 15:32 16,7 C 16,8 C 68 % 1023,8 hPa 0,0 mm 4,9 km/h (1 Bft) O-SO 115 0 min 0,000 mm 1,9 UV-I 79 W/m 10,8 C 6,4 km/h (2 Bft)
06.09.2016 15:33 16,6 C 16,7 C 69 % 1023,8 hPa 0,0 mm 3,4 km/h (1 Bft) O 98 0 min 0,000 mm 2,0 UV-I 84 W/m 10,9 C 6,4 km/h (2 Bft)
06.09.2016 15:34 16,5 C 16,6 C 69 % 1023,7 hPa 0,0 mm 1,6 km/h (1 Bft) O 97 0 min 0,000 mm 2,2 UV-I 90 W/m 10,8 C 3,2 km/h (1 Bft)
06.09.2016 15:35 16,3 C 16,5 C 72 % 1023,8 hPa 0,0 mm 1,5 km/h (1 Bft) O 97 0 min 0,000 mm 2,8 UV-I 149 W/m 11,2 C 3,2 km/h (1 Bft)
06.09.2016 15:36 16,3 C 16,3 C 73 % 1023,7 hPa 0,0 mm 0,6 km/h (0 Bft) O 97 0 min 0,000 mm 3,5 UV-I 149 W/m 11,4 C 1,6 km/h (1 Bft)
06.09.2016 15:37 16,3 C 16,3 C 72 % 1023,8 hPa 0,0 mm 0,9 km/h (0 Bft) O 97 1 min 0,000 mm 3,2 UV-I 436 W/m 11,2 C 1,6 km/h (1 Bft)
06.09.2016 15:38 16,3 C 16,3 C 73 % 1023,7 hPa 0,0 mm 0,8 km/h (0 Bft) O 96 1 min 0,000 mm 3,7 UV-I 550 W/m 11,4 C 1,6 km/h (1 Bft)
06.09.2016 15:39 16,6 C 16,6 C 74 % 1023,7 hPa 0,0 mm 2,1 km/h (1 Bft) O 97 1 min 0,000 mm 3,7 UV-I 577 W/m 11,9 C 3,2 km/h (1 Bft)
06.09.2016 15:40 16,7 C 16,7 C 73 % 1023,6 hPa 0,0 mm 2,7 km/h (1 Bft) O-NO 71 1 min 0,000 mm 3,7 UV-I 584 W/m 11,8 C 4,8 km/h (1 Bft)
06.09.2016 15:41 17,0 C 17,0 C 77 % 1023,7 hPa 0,0 mm 3,6 km/h (1 Bft) O-NO 78 1 min 0,000 mm 3,7 UV-I 585 W/m 12,9 C 4,8 km/h (1 Bft)
06.09.2016 15:42 17,2 C 17,2 C 75 % 1023,7 hPa 0,0 mm 2,1 km/h (1 Bft) N 5 1 min 0,000 mm 3,7 UV-I 584 W/m 12,7 C 4,8 km/h (1 Bft)
06.09.2016 15:43 17,3 C 17,3 C 71 % 1023,6 hPa 0,0 mm 2,1 km/h (1 Bft) NO 53 1 min 0,000 mm 3,7 UV-I 591 W/m 12,0 C 3,2 km/h (1 Bft)
06.09.2016 15:44 17,4 C 17,4 C 72 % 1023,7 hPa 0,0 mm 3,6 km/h (1 Bft) O 86 1 min 0,000 mm 3,8 UV-I 596 W/m 12,3 C 8,0 km/h (2 Bft)
06.09.2016 15:45 17,4 C 17,4 C 75 % 1023,7 hPa 0,0 mm 3,8 km/h (1 Bft) O 82 1 min 0,000 mm 3,8 UV-I 598 W/m 12,9 C 8,0 km/h (2 Bft)
06.09.2016 15:46 17,4 C 17,4 C 69 % 1023,7 hPa 0,0 mm 4,8 km/h (1 Bft) O-NO 65 1 min 0,000 mm 3,7 UV-I 599 W/m 11,7 C 8,0 km/h (2 Bft)
06.09.2016 15:47 17,6 C 17,6 C 70 % 1023,7 hPa 0,0 mm 1,8 km/h (1 Bft) O-NO 59 1 min 0,000 mm 3,7 UV-I 603 W/m 12,1 C 4,8 km/h (1 Bft)
06.09.2016 15:48 17,6 C 17,6 C 70 % 1023,7 hPa 0,0 mm 4,6 km/h (1 Bft) O-SO 123 1 min 0,000 mm 3,7 UV-I 606 W/m 12,1 C 9,7 km/h (2 Bft)
06.09.2016 15:49 17,7 C 17,7 C 68 % 1023,7 hPa 0,0 mm 4,0 km/h (1 Bft) SO 128 1 min 0,000 mm 3,7 UV-I 606 W/m 11,7 C 4,8 km/h (1 Bft)
06.09.2016 15:50 17,7 C 17,7 C 69 % 1023,6 hPa 0,0 mm 4,5 km/h (1 Bft) S-SO 157 1 min 0,000 mm 3,6 UV-I 619 W/m 11,9 C 6,4 km/h (2 Bft)
06.09.2016 15:51 17,7 C 17,7 C 68 % 1023,6 hPa 0,0 mm 4,0 km/h (1 Bft) SO 127 1 min 0,000 mm 3,6 UV-I 624 W/m 11,7 C 6,4 km/h (2 Bft)
06.09.2016 15:52 17,7 C 17,7 C 68 % 1023,6 hPa 0,0 mm 3,9 km/h (1 Bft) O-SO 113 1 min 0,000 mm 3,6 UV-I 629 W/m 11,7 C 6,4 km/h (2 Bft)
06.09.2016 15:53 17,7 C 17,8 C 72 % 1023,6 hPa 0,0 mm 6,4 km/h (2 Bft) O-NO 68 1 min 0,000 mm 3,5 UV-I 629 W/m 12,6 C 11,3 km/h (2 Bft)
06.09.2016 15:54 17,7 C 17,7 C 72 % 1023,7 hPa 0,0 mm 6,3 km/h (2 Bft) NO 51 1 min 0,000 mm 3,4 UV-I 633 W/m 12,6 C 9,7 km/h (2 Bft)
06.09.2016 15:55 17,7 C 17,7 C 64 % 1023,7 hPa 0,0 mm 3,9 km/h (1 Bft) N-NO 18 1 min 0,000 mm 3,3 UV-I 629 W/m 10,8 C 6,4 km/h (2 Bft)
06.09.2016 15:56 17,7 C 17,7 C 65 % 1023,7 hPa 0,0 mm 2,1 km/h (1 Bft) N 355 1 min 0,000 mm 1,9 UV-I 629 W/m 11,0 C 3,2 km/h (1 Bft)
06.09.2016 15:57 17,7 C 17,7 C 65 % 1023,7 hPa 0,0 mm 3,7 km/h (1 Bft) NO 46 0 min 0,000 mm 1,7 UV-I 158 W/m 11,0 C 4,8 km/h (1 Bft)
06.09.2016 15:58 17,7 C 17,7 C 66 % 1023,7 hPa 0,0 mm 2,4 km/h (1 Bft) NO 45 0 min 0,000 mm 1,6 UV-I 155 W/m 11,3 C 4,8 km/h (1 Bft)
06.09.2016 15:59 17,7 C 17,7 C 66 % 1023,7 hPa 0,0 mm 1,5 km/h (1 Bft) NO 45 0 min 0,000 mm 1,6 UV-I 149 W/m 11,3 C 3,2 km/h (1 Bft)
06.09.2016 16:00 17,7 C 17,7 C 68 % 1023,7 hPa 0,0 mm 2,1 km/h (1 Bft) NO 45 0 min 0,000 mm 1,5 UV-I 144 W/m 11,7 C 4,8 km/h (1 Bft)
06.09.2016 16:01 17,7 C 17,7 C 67 % 1023,7 hPa 0,0 mm 3,9 km/h (1 Bft) N-NW 340 0 min 0,254 mm 1,5 UV-I 141 W/m 11,5 C 6,4 km/h (2 Bft)
06.09.2016 16:02 17,6 C 17,7 C 68 % 1023,8 hPa 0,0 mm 4,8 km/h (1 Bft) N-NW 348 0 min 0,000 mm 1,5 UV-I 141 W/m 11,6 C 8,0 km/h (2 Bft)
06.09.2016 16:03 17,6 C 17,6 C 68 % 1023,8 hPa 0,0 mm 4,8 km/h (1 Bft) N-NO 14 0 min 0,000 mm 1,5 UV-I 142 W/m 11,6 C 9,7 km/h (2 Bft)
06.09.2016 16:04 17,6 C 17,6 C 66 % 1023,8 hPa 0,0 mm 1,3 km/h (1 Bft) N 360 0 min 0,000 mm 1,5 UV-I 137 W/m 11,2 C 4,8 km/h (1 Bft)
06.09.2016 16:05 17,6 C 17,6 C 64 % 1023,7 hPa 0,0 mm 3,4 km/h (1 Bft) NO 35 0 min 0,000 mm 1,6 UV-I 146 W/m 10,7 C 4,8 km/h (1 Bft)
06.09.2016 16:06 17,5 C 17,6 C 66 % 1023,7 hPa 0,0 mm 1,7 km/h (1 Bft) O-NO 75 0 min 0,000 mm 1,6 UV-I 146 W/m 11,1 C 3,2 km/h (1 Bft)
06.09.2016 16:07 17,4 C 17,5 C 66 % 1023,8 hPa 0,0 mm 2,3 km/h (1 Bft) O-NO 57 0 min 0,000 mm 1,6 UV-I 153 W/m 11,0 C 3,2 km/h (1 Bft)
06.09.2016 16:08 17,4 C 17,4 C 64 % 1023,8 hPa 0,0 mm 2,2 km/h (1 Bft) O-NO 57 0 min 0,000 mm 1,6 UV-I 162 W/m 10,5 C 3,2 km/h (1 Bft)
06.09.2016 16:09 17,4 C 17,4 C 66 % 1023,7 hPa 0,0 mm 2,3 km/h (1 Bft) O-NO 57 0 min 0,000 mm 1,7 UV-I 171 W/m 11,0 C 4,8 km/h (1 Bft)
06.09.2016 16:10 17,4 C 17,4 C 66 % 1023,7 hPa 0,0 mm 4,0 km/h (1 Bft) N 360 0 min 0,000 mm 1,7 UV-I 183 W/m 11,0 C 6,4 km/h (2 Bft)
06.09.2016 16:11 17,4 C 17,4 C 67 % 1023,8 hPa 0,0 mm 4,6 km/h (1 Bft) NO 46 0 min 0,000 mm 1,7 UV-I 202 W/m 11,2 C 6,4 km/h (2 Bft)
06.09.2016 16:12 17,4 C 17,5 C 68 % 1023,7 hPa 0,0 mm 3,2 km/h (1 Bft) N 5 0 min 0,000 mm 1,6 UV-I 213 W/m 11,4 C 4,8 km/h (1 Bft)
06.09.2016 16:13 17,5 C 17,5 C 65 % 1023,8 hPa 0,0 mm 4,9 km/h (1 Bft) N 360 0 min 0,000 mm 1,5 UV-I 192 W/m 10,8 C 6,4 km/h (2 Bft)
06.09.2016 16:14 17,5 C 17,5 C 65 % 1023,8 hPa 0,0 mm 3,0 km/h (1 Bft) N 360 0 min 0,000 mm 1,3 UV-I 185 W/m 10,8 C 4,8 km/h (1 Bft)
06.09.2016 16:15 17,6 C 17,6 C 66 % 1023,8 hPa 0,0 mm 3,9 km/h (1 Bft) N 350 0 min 0,000 mm 1,3 UV-I 176 W/m 11,2 C 4,8 km/h (1 Bft)
06.09.2016 16:16 17,5 C 17,6 C 67 % 1023,7 hPa 0,0 mm 2,0 km/h (1 Bft) N 350 0 min 0,000 mm 1,3 UV-I 179 W/m 11,3 C 4,8 km/h (1 Bft)
06.09.2016 16:17 17,5 C 17,6 C 66 % 1023,7 hPa 0,0 mm 3,3 km/h (1 Bft) O 96 0 min 0,000 mm 1,4 UV-I 192 W/m 11,1 C 6,4 km/h (2 Bft)
06.09.2016 16:18 17,5 C 17,5 C 66 % 1023,7 hPa 0,0 mm 2,7 km/h (1 Bft) O 92 0 min 0,000 mm 1,4 UV-I 200 W/m 11,1 C 4,8 km/h (1 Bft)
06.09.2016 16:19 17,5 C 17,5 C 67 % 1023,7 hPa 0,0 mm 3,3 km/h (1 Bft) O-NO 59 0 min 0,000 mm 1,7 UV-I 200 W/m 11,3 C 8,0 km/h (2 Bft)
06.09.2016 16:20 17,5 C 17,5 C 64 % 1023,7 hPa 0,0 mm 6,0 km/h (2 Bft) O 88 0 min 0,000 mm 1,5 UV-I 200 W/m 10,6 C 8,0 km/h (2 Bft)
06.09.2016 16:21 17,6 C 17,6 C 64 % 1023,7 hPa 0,0 mm 6,2 km/h (2 Bft) O 96 0 min 0,000 mm 1,4 UV-I 195 W/m 10,7 C 11,3 km/h (2 Bft)
06.09.2016 16:22 17,6 C 17,6 C 64 % 1023,7 hPa 0,0 mm 5,7 km/h (1 Bft) O 89 0 min 0,000 mm 1,3 UV-I 176 W/m 10,7 C 9,7 km/h (2 Bft)
06.09.2016 16:23 17,6 C 17,7 C 66 % 1023,7 hPa 0,0 mm 5,1 km/h (1 Bft) NO 40 0 min 0,000 mm 1,3 UV-I 165 W/m 11,2 C 8,0 km/h (2 Bft)
06.09.2016 16:24 17,7 C 17,7 C 64 % 1023,7 hPa 0,0 mm 6,4 km/h (2 Bft) NO 36 0 min 0,000 mm 1,3 UV-I 160 W/m 10,8 C 8,0 km/h (2 Bft)
06.09.2016 16:25 17,7 C 17,7 C 63 % 1023,7 hPa 0,0 mm 5,5 km/h (1 Bft) O-NO 61 0 min 0,000 mm 1,2 UV-I 141 W/m 10,6 C 8,0 km/h (2 Bft)
06.09.2016 16:26 17,7 C 17,7 C 61 % 1023,7 hPa 0,0 mm 3,4 km/h (1 Bft) N-NO 13 0 min 0,000 mm 1,2 UV-I 116 W/m 10,1 C 6,4 km/h (2 Bft)
06.09.2016 16:27 17,7 C 17,7 C 61 % 1023,7 hPa 0,0 mm 4,1 km/h (1 Bft) N-NO 17 0 min 0,000 mm 1,2 UV-I 142 W/m 10,1 C 6,4 km/h (2 Bft)
06.09.2016 16:28 17,7 C 17,7 C 66 % 1023,7 hPa 0,0 mm 6,7 km/h (2 Bft) NO 45 0 min 0,000 mm 1,3 UV-I 158 W/m 11,3 C 11,3 km/h (2 Bft)
06.09.2016 16:29 17,7 C 17,7 C 64 % 1023,8 hPa 0,0 mm 2,7 km/h (1 Bft) N 11 0 min 0,000 mm 1,2 UV-I 137 W/m 10,8 C 6,4 km/h (2 Bft)
06.09.2016 16:30 17,6 C 17,7 C 66 % 1023,7 hPa 0,0 mm 6,9 km/h (2 Bft) N 10 0 min 0,000 mm 1,3 UV-I 104 W/m 11,2 C 8,0 km/h (2 Bft)
06.09.2016 16:31 17,6 C 17,7 C 62 % 1023,7 hPa 0,0 mm 4,1 km/h (1 Bft) NO 38 0 min 0,000 mm 1,3 UV-I 93 W/m 10,2 C 6,4 km/h (2 Bft)
06.09.2016 16:32 17,6 C 17,6 C 62 % 1023,7 hPa 0,0 mm 2,8 km/h (1 Bft) O-NO 64 0 min 0,000 mm 1,4 UV-I 123 W/m 10,2 C 4,8 km/h (1 Bft)
06.09.2016 16:33 17,6 C 17,6 C 64 % 1023,8 hPa 0,0 mm 5,4 km/h (1 Bft) O-NO 64 0 min 0,000 mm 1,4 UV-I 90 W/m 10,7 C 6,4 km/h (2 Bft)
06.09.2016 16:34 17,4 C 17,6 C 64 % 1023,7 hPa 0,0 mm 5,0 km/h (1 Bft) O-NO 58 0 min 0,000 mm 1,4 UV-I 90 W/m 10,5 C 8,0 km/h (2 Bft)
06.09.2016 16:35 17,4 C 17,4 C 65 % 1023,7 hPa 0,0 mm 3,5 km/h (1 Bft) O 88 0 min 0,000 mm 1,5 UV-I 104 W/m 10,8 C 4,8 km/h (1 Bft)
06.09.2016 16:36 17,3 C 17,4 C 65 % 1023,7 hPa 0,0 mm 6,3 km/h (2 Bft) O-NO 76 0 min 0,000 mm 1,7 UV-I 142 W/m 10,7 C 8,0 km/h (2 Bft)
06.09.2016 16:37 17,3 C 17,3 C 68 % 1023,7 hPa 0,0 mm 3,4 km/h (1 Bft) O-SO 119 0 min 0,000 mm 1,5 UV-I 134 W/m 11,3 C 8,0 km/h (2 Bft)
06.09.2016 16:38 17,3 C 17,3 C 66 % 1023,7 hPa 0,0 mm 4,6 km/h (1 Bft) O 86 0 min 0,000 mm 1,5 UV-I 105 W/m 10,9 C 6,4 km/h (2 Bft)
06.09.2016 16:39 17,2 C 17,3 C 68 % 1023,7 hPa 0,0 mm 3,6 km/h (1 Bft) O-NO 78 0 min 0,000 mm 1,5 UV-I 102 W/m 11,2 C 6,4 km/h (2 Bft)
06.09.2016 16:40 17,2 C 17,2 C 67 % 1023,7 hPa 0,0 mm 4,1 km/h (1 Bft) O 96 0 min 0,000 mm 1,6 UV-I 102 W/m 11,0 C 6,4 km/h (2 Bft)
06.09.2016 16:41 17,2 C 17,2 C 67 % 1023,6 hPa 0,0 mm 3,5 km/h (1 Bft) NO 46 0 min 0,000 mm 1,6 UV-I 102 W/m 11,0 C 6,4 km/h (2 Bft)
06.09.2016 16:42 17,1 C 17,2 C 68 % 1023,6 hPa 0,0 mm 5,5 km/h (1 Bft) NO 49 0 min 0,000 mm 1,6 UV-I 109 W/m 11,1 C 6,4 km/h (2 Bft)
06.09.2016 16:43 17,2 C 17,2 C 67 % 1023,6 hPa 0,0 mm 4,5 km/h (1 Bft) N-NO 26 0 min 0,000 mm 1,6 UV-I 104 W/m 11,0 C 6,4 km/h (2 Bft)
06.09.2016 16:44 17,2 C 17,2 C 67 % 1023,6 hPa 0,0 mm 3,0 km/h (1 Bft) N-NO 26 0 min 0,000 mm 1,6 UV-I 91 W/m 11,0 C 4,8 km/h (1 Bft)
06.09.2016 16:45 17,3 C 17,3 C 67 % 1023,6 hPa 0,0 mm 2,9 km/h (1 Bft) NO 45 0 min 0,000 mm 1,6 UV-I 83 W/m 11,1 C 4,8 km/h (1 Bft)
06.09.2016 16:46 17,3 C 17,3 C 65 % 1023,6 hPa 0,0 mm 3,1 km/h (1 Bft) NW 318 0 min 0,000 mm 1,6 UV-I 74 W/m 10,7 C 4,8 km/h (1 Bft)
06.09.2016 16:47 17,3 C 17,3 C 65 % 1023,6 hPa 0,0 mm 4,7 km/h (1 Bft) N 5 0 min 0,000 mm 1,6 UV-I 72 W/m 10,7 C 4,8 km/h (1 Bft)
06.09.2016 16:48 17,5 C 17,5 C 65 % 1023,6 hPa 0,0 mm 1,8 km/h (1 Bft) N 355 0 min 0,000 mm 1,5 UV-I 72 W/m 10,8 C 4,8 km/h (1 Bft)
06.09.2016 16:49 17,6 C 17,6 C 66 % 1023,6 hPa 0,0 mm 2,8 km/h (1 Bft) N-NW 338 0 min 0,000 mm 1,5 UV-I 74 W/m 11,2 C 6,4 km/h (2 Bft)
06.09.2016 16:50 17,6 C 17,6 C 64 % 1023,6 hPa 0,0 mm 5,1 km/h (1 Bft) N 349 0 min 0,000 mm 1,6 UV-I 72 W/m 10,7 C 6,4 km/h (2 Bft)
06.09.2016 16:51 17,6 C 17,6 C 64 % 1023,6 hPa 0,0 mm 3,9 km/h (1 Bft) N 360 0 min 0,000 mm 1,6 UV-I 86 W/m 10,7 C 6,4 km/h (2 Bft)
06.09.2016 16:52 17,6 C 17,6 C 64 % 1023,6 hPa 0,0 mm 3,9 km/h (1 Bft) N 355 0 min 0,000 mm 1,5 UV-I 90 W/m 10,7 C 6,4 km/h (2 Bft)
06.09.2016 16:53 17,6 C 17,7 C 63 % 1023,6 hPa 0,0 mm 5,4 km/h (1 Bft) NW 313 0 min 0,000 mm 1,5 UV-I 90 W/m 10,5 C 8,0 km/h (2 Bft)
06.09.2016 16:54 17,6 C 17,7 C 62 % 1023,6 hPa 0,0 mm 4,7 km/h (1 Bft) N 355 0 min 0,000 mm 1,5 UV-I 90 W/m 10,2 C 6,4 km/h (2 Bft)
06.09.2016 16:55 17,7 C 17,7 C 64 % 1023,6 hPa 0,0 mm 11,4 km/h (2 Bft) N 10 0 min 0,000 mm 1,5 UV-I 86 W/m 10,8 C 16,1 km/h (3 Bft)
06.09.2016 16:56 17,7 C 17,7 C 62 % 1023,5 hPa 0,0 mm 9,9 km/h (2 Bft) N 355 0 min 0,000 mm 1,4 UV-I 84 W/m 10,3 C 12,9 km/h (3 Bft)
06.09.2016 16:57 17,7 C 17,7 C 60 % 1023,6 hPa 0,0 mm 4,9 km/h (1 Bft) NW 313 0 min 0,000 mm 1,4 UV-I 84 W/m 9,8 C 6,4 km/h (2 Bft)
06.09.2016 16:58 17,7 C 17,7 C 61 % 1023,6 hPa 0,0 mm 5,3 km/h (1 Bft) NO 38 0 min 0,000 mm 1,4 UV-I 84 W/m 10,1 C 6,4 km/h (2 Bft)
06.09.2016 16:59 17,7 C 17,7 C 61 % 1023,6 hPa 0,0 mm 3,7 km/h (1 Bft) O-NO 76 0 min 0,000 mm 1,4 UV-I 86 W/m 10,1 C 4,8 km/h (1 Bft)
06.09.2016 17:00 17,7 C 17,7 C 61 % 1023,6 hPa 0,0 mm 3,3 km/h (1 Bft) N-NO 30 0 min 0,000 mm 1,4 UV-I 86 W/m 10,1 C 4,8 km/h (1 Bft)
06.09.2016 17:01 17,8 C 17,8 C 63 % 1023,6 hPa 0,0 mm 5,2 km/h (1 Bft) N 360 0 min 0,101 mm 1,4 UV-I 84 W/m 10,7 C 6,4 km/h (2 Bft)
06.09.2016 17:02 17,8 C 17,8 C 61 % 1023,6 hPa 0,0 mm 4,6 km/h (1 Bft) O-NO 64 0 min 0,000 mm 1,3 UV-I 83 W/m 10,2 C 6,4 km/h (2 Bft)
06.09.2016 17:04 17,8 C 17,8 C 61 % 1023,6 hPa 0,0 mm 2,6 km/h (1 Bft) O-NO 61 0 min 0,000 mm 1,3 UV-I 81 W/m 10,2 C 4,8 km/h (1 Bft)
06.09.2016 17:05 17,8 C 17,8 C 61 % 1023,5 hPa 0,0 mm 3,5 km/h (1 Bft) N-NW 329 0 min 0,000 mm 1,3 UV-I 79 W/m 10,2 C 4,8 km/h (1 Bft)
06.09.2016 17:06 17,9 C 17,9 C 63 % 1023,6 hPa 0,0 mm 5,6 km/h (1 Bft) N-NO 19 0 min 0,000 mm 1,3 UV-I 76 W/m 10,8 C 6,4 km/h (2 Bft)
06.09.2016 17:07 17,9 C 17,9 C 66 % 1023,7 hPa 0,0 mm 1,8 km/h (1 Bft) N 5 0 min 0,000 mm 1,3 UV-I 81 W/m 11,5 C 4,8 km/h (1 Bft)
06.09.2016 17:08 17,8 C 17,9 C 62 % 1023,7 hPa 0,0 mm 4,4 km/h (1 Bft) N-NW 346 0 min 0,000 mm 1,3 UV-I 93 W/m 10,4 C 8,0 km/h (2 Bft)
06.09.2016 17:09 17,8 C 17,8 C 62 % 1023,7 hPa 0,0 mm 4,7 km/h (1 Bft) NO 50 0 min 0,000 mm 1,3 UV-I 104 W/m 10,4 C 6,4 km/h (2 Bft)
06.09.2016 17:10 17,7 C 17,8 C 62 % 1023,7 hPa 0,0 mm 1,9 km/h (1 Bft) NO 55 0 min 0,000 mm 1,3 UV-I 111 W/m 10,3 C 4,8 km/h (1 Bft)
06.09.2016 17:11 17,6 C 17,7 C 62 % 1023,8 hPa 0,0 mm 1,7 km/h (1 Bft) NO 54 0 min 0,000 mm 1,3 UV-I 113 W/m 10,2 C 3,2 km/h (1 Bft)
06.09.2016 17:12 17,6 C 17,6 C 63 % 1023,7 hPa 0,0 mm 3,2 km/h (1 Bft) O-NO 75 0 min 0,000 mm 1,3 UV-I 98 W/m 10,5 C 6,4 km/h (2 Bft)
06.09.2016 17:13 17,5 C 17,6 C 65 % 1023,7 hPa 0,0 mm 6,0 km/h (2 Bft) O-SO 103 0 min 0,000 mm 1,2 UV-I 98 W/m 10,8 C 11,3 km/h (2 Bft)
06.09.2016 17:14 17,4 C 17,5 C 64 % 1023,7 hPa 0,0 mm 2,0 km/h (1 Bft) O-SO 103 0 min 0,000 mm 1,2 UV-I 91 W/m 10,5 C 3,2 km/h (1 Bft)
06.09.2016 17:15 17,4 C 17,4 C 64 % 1023,7 hPa 0,0 mm 1,8 km/h (1 Bft) O-SO 103 0 min 0,000 mm 1,2 UV-I 88 W/m 10,5 C 3,2 km/h (1 Bft)
06.09.2016 17:16 17,3 C 17,4 C 65 % 1023,8 hPa 0,0 mm 1,3 km/h (1 Bft) O-SO 103 0 min 0,000 mm 1,1 UV-I 84 W/m 10,7 C 3,2 km/h (1 Bft)
06.09.2016 17:17 17,3 C 17,3 C 68 % 1023,8 hPa 0,0 mm 2,5 km/h (1 Bft) O-SO 103 0 min 0,000 mm 1,1 UV-I 81 W/m 11,3 C 4,8 km/h (1 Bft)
06.09.2016 17:18 17,2 C 17,3 C 69 % 1023,8 hPa 0,0 mm 2,6 km/h (1 Bft) NW 307 0 min 0,000 mm 1,1 UV-I 70 W/m 11,5 C 4,8 km/h (1 Bft)
06.09.2016 17:19 17,1 C 17,2 C 67 % 1023,8 hPa 0,0 mm 4,5 km/h (1 Bft) O 80 0 min 0,000 mm 1,1 UV-I 69 W/m 10,9 C 6,4 km/h (2 Bft)
06.09.2016 17:20 16,9 C 17,1 C 66 % 1023,8 hPa 0,0 mm 4,0 km/h (1 Bft) O 86 0 min 0,000 mm 1,1 UV-I 62 W/m 10,5 C 4,8 km/h (1 Bft)
06.09.2016 17:21 16,9 C 16,9 C 66 % 1023,8 hPa 0,0 mm 3,4 km/h (1 Bft) O 80 0 min 0,000 mm 1,1 UV-I 58 W/m 10,5 C 4,8 km/h (1 Bft)
06.09.2016 17:22 16,9 C 16,9 C 70 % 1023,8 hPa 0,0 mm 2,8 km/h (1 Bft) O 80 0 min 0,000 mm 1,1 UV-I 56 W/m 11,4 C 4,8 km/h (1 Bft)
06.09.2016 17:23 16,8 C 16,9 C 73 % 1023,8 hPa 0,0 mm 1,3 km/h (1 Bft) O 80 0 min 0,000 mm 1,1 UV-I 58 W/m 11,9 C 3,2 km/h (1 Bft)
06.09.2016 17:24 16,8 C 16,8 C 67 % 1023,8 hPa 0,0 mm 1,5 km/h (1 Bft) O 98 0 min 0,000 mm 1,1 UV-I 58 W/m 10,6 C 4,8 km/h (1 Bft)
06.09.2016 17:25 16,8 C 16,8 C 68 % 1023,8 hPa 0,0 mm 2,3 km/h (1 Bft) O 99 0 min 0,000 mm 1,1 UV-I 65 W/m 10,9 C 3,2 km/h (1 Bft)
06.09.2016 17:26 16,8 C 16,9 C 68 % 1023,8 hPa 0,0 mm 1,5 km/h (1 Bft) O 99 0 min 0,000 mm 1,1 UV-I 65 W/m 10,9 C 3,2 km/h (1 Bft)
06.09.2016 17:27 16,8 C 16,9 C 65 % 1023,8 hPa 0,0 mm 1,6 km/h (1 Bft) O 98 0 min 0,000 mm 1,1 UV-I 63 W/m 10,2 C 3,2 km/h (1 Bft)
06.09.2016 17:28 16,8 C 16,8 C 66 % 1023,8 hPa 0,0 mm 2,2 km/h (1 Bft) O 94 0 min 0,000 mm 1,1 UV-I 65 W/m 10,4 C 4,8 km/h (1 Bft)
06.09.2016 17:29 16,8 C 16,8 C 65 % 1023,8 hPa 0,0 mm 2,5 km/h (1 Bft) O 94 0 min 0,000 mm 1,1 UV-I 79 W/m 10,2 C 4,8 km/h (1 Bft)
06.09.2016 17:30 16,8 C 16,8 C 68 % 1023,8 hPa 0,0 mm 1,2 km/h (1 Bft) O 94 0 min 0,000 mm 1,1 UV-I 86 W/m 10,9 C 3,2 km/h (1 Bft)
06.09.2016 17:31 16,7 C 16,8 C 69 % 1023,8 hPa 0,0 mm 0,2 km/h (0 Bft) O 94 0 min 0,000 mm 1,1 UV-I 91 W/m 11,0 C 1,6 km/h (1 Bft)
06.09.2016 17:32 16,7 C 16,7 C 70 % 1023,8 hPa 0,0 mm 2,7 km/h (1 Bft) O 88 0 min 0,000 mm 1,1 UV-I 90 W/m 11,2 C 4,8 km/h (1 Bft)
06.09.2016 17:33 16,7 C 16,7 C 68 % 1023,8 hPa 0,0 mm 2,0 km/h (1 Bft) O 88 0 min 0,000 mm 1,1 UV-I 86 W/m 10,8 C 4,8 km/h (1 Bft)
06.09.2016 17:34 16,7 C 16,7 C 66 % 1023,8 hPa 0,0 mm 1,8 km/h (1 Bft) O 88 0 min 0,000 mm 1,1 UV-I 84 W/m 10,3 C 3,2 km/h (1 Bft)
06.09.2016 17:35 16,8 C 16,8 C 66 % 1023,8 hPa 0,0 mm 1,8 km/h (1 Bft) O-NO 73 0 min 0,000 mm 1,1 UV-I 77 W/m 10,4 C 3,2 km/h (1 Bft)
06.09.2016 17:36 16,9 C 16,9 C 66 % 1023,8 hPa 0,0 mm 1,9 km/h (1 Bft) O-NO 73 0 min 0,000 mm 1,0 UV-I 74 W/m 10,5 C 3,2 km/h (1 Bft)
06.09.2016 17:37 17,0 C 17,0 C 65 % 1023,8 hPa 0,0 mm 1,8 km/h (1 Bft) SO 130 0 min 0,000 mm 1,0 UV-I 70 W/m 10,4 C 4,8 km/h (1 Bft)
06.09.2016 17:38 17,1 C 17,1 C 64 % 1023,8 hPa 0,0 mm 1,6 km/h (1 Bft) O 97 0 min 0,000 mm 1,0 UV-I 67 W/m 10,2 C 4,8 km/h (1 Bft)
06.09.2016 17:39 17,1 C 17,1 C 65 % 1023,8 hPa 0,0 mm 3,0 km/h (1 Bft) N 5 0 min 0,000 mm 1,0 UV-I 63 W/m 10,5 C 4,8 km/h (1 Bft)
06.09.2016 17:40 17,2 C 17,2 C 63 % 1023,8 hPa 0,0 mm 2,5 km/h (1 Bft) O-NO 71 0 min 0,000 mm 1,0 UV-I 62 W/m 10,1 C 4,8 km/h (1 Bft)
06.09.2016 17:41 17,2 C 17,2 C 64 % 1023,8 hPa 0,0 mm 3,1 km/h (1 Bft) O 94 0 min 0,000 mm 1,0 UV-I 58 W/m 10,3 C 6,4 km/h (2 Bft)
06.09.2016 17:42 17,2 C 17,2 C 66 % 1023,8 hPa 0,0 mm 7,3 km/h (2 Bft) O-NO 77 0 min 0,000 mm 1,0 UV-I 58 W/m 10,8 C 11,3 km/h (2 Bft)
06.09.2016 17:43 17,2 C 17,2 C 62 % 1023,8 hPa 0,0 mm 2,4 km/h (1 Bft) SO 130 0 min 0,000 mm 1,0 UV-I 58 W/m 9,9 C 4,8 km/h (1 Bft)
06.09.2016 17:44 17,2 C 17,2 C 61 % 1023,8 hPa 0,0 mm 1,8 km/h (1 Bft) SO 130 0 min 0,000 mm 1,0 UV-I 58 W/m 9,6 C 3,2 km/h (1 Bft)
06.09.2016 17:45 17,1 C 17,2 C 67 % 1023,8 hPa 0,0 mm 0,9 km/h (0 Bft) SO 130 0 min 0,000 mm 1,0 UV-I 60 W/m 10,9 C 3,2 km/h (1 Bft)
06.09.2016 17:46 17,1 C 17,1 C 63 % 1023,8 hPa 0,0 mm 4,5 km/h (1 Bft) NO 46 0 min 0,000 mm 1,0 UV-I 62 W/m 10,0 C 9,7 km/h (2 Bft)
06.09.2016 17:47 17,2 C 17,2 C 62 % 1023,8 hPa 0,0 mm 4,8 km/h (1 Bft) O-NO 66 0 min 0,000 mm 1,0 UV-I 67 W/m 9,9 C 8,0 km/h (2 Bft)
06.09.2016 17:48 17,2 C 17,2 C 61 % 1023,8 hPa 0,0 mm 5,7 km/h (1 Bft) O 98 0 min 0,000 mm 1,0 UV-I 67 W/m 9,6 C 8,0 km/h (2 Bft)
06.09.2016 17:49 17,2 C 17,3 C 61 % 1023,8 hPa 0,0 mm 2,4 km/h (1 Bft) NO 51 0 min 0,000 mm 0,9 UV-I 69 W/m 9,6 C 4,8 km/h (1 Bft)
06.09.2016 17:50 17,2 C 17,3 C 63 % 1023,9 hPa 0,0 mm 5,9 km/h (2 Bft) O-SO 115 0 min 0,000 mm 0,9 UV-I 69 W/m 10,1 C 9,7 km/h (2 Bft)
06.09.2016 17:51 17,2 C 17,2 C 62 % 1023,9 hPa 0,0 mm 4,3 km/h (1 Bft) N-NO 33 0 min 0,000 mm 0,9 UV-I 70 W/m 9,9 C 8,0 km/h (2 Bft)
06.09.2016 17:52 17,2 C 17,2 C 62 % 1023,9 hPa 0,0 mm 5,9 km/h (2 Bft) NO 56 0 min 0,000 mm 0,9 UV-I 76 W/m 9,9 C 8,0 km/h (2 Bft)
06.09.2016 17:53 17,3 C 17,3 C 61 % 1023,9 hPa 0,0 mm 3,1 km/h (1 Bft) NO 40 0 min 0,000 mm 0,9 UV-I 81 W/m 9,7 C 6,4 km/h (2 Bft)
06.09.2016 17:54 17,3 C 17,3 C 61 % 1023,9 hPa 0,0 mm 1,6 km/h (1 Bft) O-NO 60 0 min 0,000 mm 0,9 UV-I 81 W/m 9,7 C 3,2 km/h (1 Bft)
06.09.2016 17:55 17,4 C 17,4 C 60 % 1023,9 hPa 0,0 mm 4,6 km/h (1 Bft) O-NO 66 0 min 0,000 mm 0,9 UV-I 81 W/m 9,6 C 6,4 km/h (2 Bft)
06.09.2016 17:56 17,4 C 17,4 C 59 % 1023,9 hPa 0,0 mm 2,7 km/h (1 Bft) O-NO 63 0 min 0,000 mm 0,9 UV-I 84 W/m 9,3 C 4,8 km/h (1 Bft)
06.09.2016 17:57 17,4 C 17,4 C 61 % 1023,8 hPa 0,0 mm 7,7 km/h (2 Bft) NO 53 0 min 0,000 mm 0,9 UV-I 90 W/m 9,8 C 9,7 km/h (2 Bft)
06.09.2016 17:58 17,4 C 17,5 C 63 % 1023,8 hPa 0,0 mm 5,0 km/h (1 Bft) NO 40 0 min 0,000 mm 0,9 UV-I 95 W/m 10,3 C 8,0 km/h (2 Bft)
06.09.2016 17:59 17,5 C 17,5 C 60 % 1023,8 hPa 0,0 mm 2,5 km/h (1 Bft) NO 40 0 min 0,000 mm 0,9 UV-I 107 W/m 9,6 C 4,8 km/h (1 Bft)
06.09.2016 18:00 17,5 C 17,6 C 65 % 1023,8 hPa 0,0 mm 4,8 km/h (1 Bft) O-NO 63 0 min 0,000 mm 0,8 UV-I 114 W/m 10,8 C 8,0 km/h (2 Bft)
06.09.2016 18:01 17,6 C 17,6 C 61 % 1023,9 hPa 0,0 mm 4,7 km/h (1 Bft) SO 130 0 min 0,051 mm 0,8 UV-I 120 W/m 10,0 C 9,7 km/h (2 Bft)
06.09.2016 18:02 17,5 C 17,6 C 62 % 1023,8 hPa 0,0 mm 2,7 km/h (1 Bft) O-NO 73 0 min 0,000 mm 0,8 UV-I 120 W/m 10,1 C 4,8 km/h (1 Bft)
06.09.2016 18:03 17,5 C 17,6 C 61 % 1023,9 hPa 0,0 mm 2,3 km/h (1 Bft) O-NO 73 0 min 0,000 mm 0,8 UV-I 118 W/m 9,9 C 3,2 km/h (1 Bft)
06.09.2016 18:04 17,6 C 17,6 C 61 % 1023,8 hPa 0,0 mm 2,6 km/h (1 Bft) O-NO 57 0 min 0,000 mm 0,8 UV-I 116 W/m 10,0 C 4,8 km/h (1 Bft)
06.09.2016 18:05 17,6 C 17,6 C 62 % 1023,9 hPa 0,0 mm 1,5 km/h (1 Bft) O-NO 57 0 min 0,000 mm 0,7 UV-I 114 W/m 10,2 C 3,2 km/h (1 Bft)
06.09.2016 18:06 17,5 C 17,6 C 68 % 1023,9 hPa 0,0 mm 5,4 km/h (1 Bft) N-NO 20 0 min 0,000 mm 0,7 UV-I 113 W/m 11,5 C 11,3 km/h (2 Bft)
06.09.2016 18:07 17,6 C 17,6 C 63 % 1023,9 hPa 0,0 mm 4,2 km/h (1 Bft) NW 312 0 min 0,000 mm 0,7 UV-I 111 W/m 10,5 C 8,0 km/h (2 Bft)
06.09.2016 18:08 17,6 C 17,6 C 59 % 1023,8 hPa 0,0 mm 5,7 km/h (1 Bft) N 11 0 min 0,000 mm 0,7 UV-I 107 W/m 9,5 C 11,3 km/h (2 Bft)
06.09.2016 18:09 17,7 C 17,7 C 60 % 1023,8 hPa 0,0 mm 3,2 km/h (1 Bft) N 355 0 min 0,000 mm 0,7 UV-I 104 W/m 9,8 C 4,8 km/h (1 Bft)
06.09.2016 18:10 17,8 C 17,8 C 62 % 1023,8 hPa 0,0 mm 4,8 km/h (1 Bft) N-NW 348 0 min 0,000 mm 0,6 UV-I 97 W/m 10,4 C 11,3 km/h (2 Bft)
06.09.2016 18:11 17,8 C 17,8 C 60 % 1023,8 hPa 0,0 mm 4,2 km/h (1 Bft) NO 54 0 min 0,000 mm 0,6 UV-I 91 W/m 9,9 C 9,7 km/h (2 Bft)
06.09.2016 18:12 17,8 C 17,8 C 58 % 1023,8 hPa 0,0 mm 4,8 km/h (1 Bft) N-NW 340 0 min 0,000 mm 0,6 UV-I 93 W/m 9,4 C 9,7 km/h (2 Bft)
06.09.2016 18:13 17,8 C 17,8 C 60 % 1023,8 hPa 0,0 mm 7,6 km/h (2 Bft) N-NW 339 0 min 0,000 mm 0,6 UV-I 90 W/m 9,9 C 14,5 km/h (3 Bft)
06.09.2016 18:14 17,8 C 17,8 C 59 % 1023,8 hPa 0,0 mm 8,6 km/h (2 Bft) NW 325 0 min 0,000 mm 0,6 UV-I 91 W/m 9,7 C 16,1 km/h (3 Bft)
06.09.2016 18:15 17,7 C 17,8 C 60 % 1023,8 hPa 0,0 mm 3,2 km/h (1 Bft) NO 51 0 min 0,000 mm 0,6 UV-I 93 W/m 9,8 C 4,8 km/h (1 Bft)
06.09.2016 18:16 17,7 C 17,8 C 61 % 1023,8 hPa 0,0 mm 3,1 km/h (1 Bft) NW 317 0 min 0,000 mm 0,6 UV-I 98 W/m 10,1 C 4,8 km/h (1 Bft)
06.09.2016 18:17 17,7 C 17,7 C 62 % 1023,8 hPa 0,0 mm 5,0 km/h (1 Bft) N 350 0 min 0,000 mm 0,6 UV-I 97 W/m 10,3 C 8,0 km/h (2 Bft)
06.09.2016 18:18 17,7 C 17,7 C 61 % 1023,8 hPa 0,0 mm 5,2 km/h (1 Bft) NO 41 0 min 0,000 mm 0,5 UV-I 98 W/m 10,1 C 11,3 km/h (2 Bft)
06.09.2016 18:19 17,7 C 17,7 C 59 % 1023,9 hPa 0,0 mm 2,6 km/h (1 Bft) N-NW 344 0 min 0,000 mm 0,5 UV-I 100 W/m 9,6 C 4,8 km/h (1 Bft)
06.09.2016 18:20 17,6 C 17,7 C 60 % 1023,9 hPa 0,0 mm 3,4 km/h (1 Bft) NO 35 0 min 0,000 mm 0,5 UV-I 98 W/m 9,7 C 4,8 km/h (1 Bft)
06.09.2016 18:21 17,6 C 17,6 C 60 % 1023,9 hPa 0,0 mm 5,5 km/h (1 Bft) O-NO 62 0 min 0,000 mm 0,5 UV-I 100 W/m 9,7 C 12,9 km/h (3 Bft)
06.09.2016 18:22 17,6 C 17,6 C 60 % 1023,9 hPa 0,0 mm 8,2 km/h (2 Bft) N-NO 16 0 min 0,000 mm 0,5 UV-I 97 W/m 9,7 C 14,5 km/h (3 Bft)
06.09.2016 18:23 17,5 C 17,6 C 62 % 1023,9 hPa 0,0 mm 5,2 km/h (1 Bft) N 5 0 min 0,000 mm 0,5 UV-I 95 W/m 10,1 C 8,0 km/h (2 Bft)
06.09.2016 18:24 17,5 C 17,6 C 60 % 1023,8 hPa 0,0 mm 6,2 km/h (2 Bft) O-NO 77 0 min 0,000 mm 0,5 UV-I 95 W/m 9,6 C 11,3 km/h (2 Bft)
06.09.2016 18:25 17,4 C 17,6 C 65 % 1023,8 hPa 0,0 mm 2,9 km/h (1 Bft) NO 40 0 min 0,000 mm 0,5 UV-I 91 W/m 10,8 C 4,8 km/h (1 Bft)
06.09.2016 18:26 17,3 C 17,4 C 67 % 1023,8 hPa 0,0 mm 5,3 km/h (1 Bft) O-NO 57 0 min 0,000 mm 0,5 UV-I 91 W/m 11,1 C 8,0 km/h (2 Bft)
06.09.2016 18:27 17,3 C 17,3 C 63 % 1023,8 hPa 0,0 mm 3,0 km/h (1 Bft) O-NO 67 0 min 0,000 mm 0,5 UV-I 88 W/m 10,2 C 4,8 km/h (1 Bft)
06.09.2016 18:28 17,3 C 17,3 C 64 % 1023,8 hPa 0,0 mm 4,6 km/h (1 Bft) N-NO 24 0 min 0,000 mm 0,0 UV-I 86 W/m 10,4 C 6,4 km/h (2 Bft)
06.09.2016 18:29 17,3 C 17,3 C 63 % 1023,8 hPa 0,0 mm 6,1 km/h (2 Bft) N-NO 27 0 min 0,000 mm 0,0 UV-I 84 W/m 10,2 C 8,0 km/h (2 Bft)
06.09.2016 18:30 17,3 C 17,3 C 63 % 1023,8 hPa 0,0 mm 6,6 km/h (2 Bft) O 92 0 min 0,000 mm 0,0 UV-I 84 W/m 10,2 C 9,7 km/h (2 Bft)
06.09.2016 18:31 17,3 C 17,3 C 64 % 1023,8 hPa 0,0 mm 3,2 km/h (1 Bft) O 90 0 min 0,000 mm 0,0 UV-I 81 W/m 10,4 C 4,8 km/h (1 Bft)
06.09.2016 18:32 17,3 C 17,3 C 64 % 1023,8 hPa 0,0 mm 2,6 km/h (1 Bft) NO 56 0 min 0,000 mm 0,0 UV-I 77 W/m 10,4 C 6,4 km/h (2 Bft)
06.09.2016 18:33 17,2 C 17,3 C 67 % 1023,7 hPa 0,0 mm 4,7 km/h (1 Bft) O 84 0 min 0,000 mm 0,0 UV-I 74 W/m 11,0 C 6,4 km/h (2 Bft)
06.09.2016 18:34 17,1 C 17,2 C 67 % 1023,8 hPa 0,0 mm 1,7 km/h (1 Bft) O 84 0 min 0,000 mm 0,0 UV-I 69 W/m 10,9 C 3,2 km/h (1 Bft)
06.09.2016 18:35 17,1 C 17,1 C 66 % 1023,8 hPa 0,0 mm 0,5 km/h (0 Bft) O 84 0 min 0,000 mm 0,0 UV-I 67 W/m 10,7 C 1,6 km/h (1 Bft)
06.09.2016 18:36 17,0 C 17,1 C 66 % 1023,7 hPa 0,0 mm 0,5 km/h (0 Bft) O 84 0 min 0,000 mm 0,0 UV-I 62 W/m 10,6 C 1,6 km/h (1 Bft)
06.09.2016 18:37 16,9 C 17,0 C 66 % 1023,8 hPa 0,0 mm 3,1 km/h (1 Bft) NO 45 0 min 0,000 mm 0,0 UV-I 62 W/m 10,5 C 4,8 km/h (1 Bft)
06.09.2016 18:38 16,9 C 16,9 C 70 % 1023,8 hPa 0,0 mm 2,6 km/h (1 Bft) O-NO 59 0 min 0,000 mm 0,0 UV-I 60 W/m 11,4 C 4,8 km/h (1 Bft)
06.09.2016 18:39 16,8 C 16,9 C 68 % 1023,8 hPa 0,0 mm 1,5 km/h (1 Bft) O-NO 59 0 min 0,000 mm 0,0 UV-I 58 W/m 10,9 C 3,2 km/h (1 Bft)
06.09.2016 18:40 16,8 C 16,8 C 68 % 1023,8 hPa 0,0 mm 2,4 km/h (1 Bft) O-NO 59 0 min 0,000 mm 0,0 UV-I 56 W/m 10,9 C 4,8 km/h (1 Bft)
06.09.2016 18:41 16,8 C 16,8 C 67 % 1023,8 hPa 0,0 mm 3,1 km/h (1 Bft) O 90 0 min 0,000 mm 0,0 UV-I 56 W/m 10,6 C 4,8 km/h (1 Bft)
06.09.2016 18:42 16,8 C 16,8 C 69 % 1023,9 hPa 0,0 mm 1,5 km/h (1 Bft) O 90 0 min 0,000 mm 0,0 UV-I 54 W/m 11,1 C 3,2 km/h (1 Bft)
06.09.2016 18:43 16,6 C 16,8 C 70 % 1023,8 hPa 0,0 mm 1,9 km/h (1 Bft) O 90 0 min 0,000 mm 0,0 UV-I 53 W/m 11,1 C 3,2 km/h (1 Bft)
06.09.2016 18:44 16,6 C 16,6 C 70 % 1023,8 hPa 0,0 mm 2,6 km/h (1 Bft) O 90 0 min 0,000 mm 0,0 UV-I 51 W/m 11,1 C 3,2 km/h (1 Bft)
06.09.2016 18:45 16,4 C 16,6 C 72 % 1023,8 hPa 0,0 mm 1,8 km/h (1 Bft) O 90 0 min 0,000 mm 0,0 UV-I 51 W/m 11,3 C 3,2 km/h (1 Bft)
06.09.2016 18:46 16,4 C 16,4 C 70 % 1023,8 hPa 0,0 mm 1,7 km/h (1 Bft) O 90 0 min 0,000 mm 0,0 UV-I 53 W/m 10,9 C 3,2 km/h (1 Bft)
06.09.2016 18:47 16,3 C 16,4 C 71 % 1023,8 hPa 0,0 mm 2,3 km/h (1 Bft) O 95 0 min 0,000 mm 0,0 UV-I 54 W/m 11,0 C 4,8 km/h (1 Bft)
06.09.2016 18:48 16,3 C 16,3 C 73 % 1023,8 hPa 0,0 mm 2,3 km/h (1 Bft) O 95 0 min 0,000 mm 0,0 UV-I 56 W/m 11,4 C 3,2 km/h (1 Bft)
06.09.2016 18:49 16,2 C 16,3 C 76 % 1023,8 hPa 0,0 mm 0,5 km/h (0 Bft) O 95 0 min 0,000 mm 0,0 UV-I 54 W/m 12,0 C 1,6 km/h (1 Bft)
06.09.2016 18:50 16,2 C 16,2 C 76 % 1023,8 hPa 0,0 mm 0,2 km/h (0 Bft) O 95 0 min 0,000 mm 0,0 UV-I 51 W/m 12,0 C 1,6 km/h (1 Bft)
06.09.2016 18:51 16,1 C 16,2 C 78 % 1023,7 hPa 0,0 mm 0,5 km/h (0 Bft) O 95 0 min 0,000 mm 0,0 UV-I 49 W/m 12,3 C 1,6 km/h (1 Bft)
06.09.2016 18:52 16,1 C 16,1 C 76 % 1023,7 hPa 0,0 mm 0,3 km/h (0 Bft) O 95 0 min 0,000 mm 0,0 UV-I 49 W/m 11,9 C 1,6 km/h (1 Bft)
06.09.2016 18:53 16,1 C 16,1 C 75 % 1023,8 hPa 0,0 mm 0,6 km/h (0 Bft) O 95 0 min 0,000 mm 0,0 UV-I 49 W/m 11,7 C 1,6 km/h (1 Bft)
06.09.2016 18:54 16,0 C 16,1 C 76 % 1023,8 hPa 0,0 mm 1,5 km/h (1 Bft) O 95 0 min 0,000 mm 0,0 UV-I 49 W/m 11,8 C 3,2 km/h (1 Bft)
06.09.2016 18:55 16,1 C 16,1 C 76 % 1023,8 hPa 0,0 mm 1,7 km/h (1 Bft) O 95 0 min 0,000 mm 0,0 UV-I 51 W/m 11,9 C 3,2 km/h (1 Bft)
06.09.2016 18:56 16,0 C 16,1 C 77 % 1023,8 hPa 0,0 mm 1,6 km/h (1 Bft) O 95 0 min 0,000 mm 0,0 UV-I 53 W/m 12,0 C 1,6 km/h (1 Bft)
06.09.2016 18:57 15,9 C 16,0 C 76 % 1023,8 hPa 0,0 mm 0,6 km/h (0 Bft) O 95 0 min 0,000 mm 0,0 UV-I 56 W/m 11,7 C 1,6 km/h (1 Bft)
06.09.2016 18:58 15,9 C 15,9 C 79 % 1023,8 hPa 0,0 mm 0,1 km/h (0 Bft) O 95 0 min 0,000 mm 0,0 UV-I 58 W/m 12,3 C 1,6 km/h (1 Bft)
06.09.2016 18:59 15,8 C 15,9 C 78 % 1023,8 hPa 0,0 mm 0,0 km/h (0 Bft) O 95 0 min 0,000 mm 0,0 UV-I 56 W/m 12,0 C 0,0 km/h (0 Bft)
06.09.2016 19:00 15,8 C 15,8 C 77 % 1023,9 hPa 0,0 mm 0,0 km/h (0 Bft) O 95 0 min 0,000 mm 0,0 UV-I 54 W/m 11,8 C 0,0 km/h (0 Bft)
06.09.2016 19:01 15,7 C 15,8 C 78 % 1023,8 hPa 0,0 mm 0,3 km/h (0 Bft) O 95 0 min 0,051 mm 0,0 UV-I 53 W/m 11,9 C 1,6 km/h (1 Bft)
06.09.2016 19:02 15,7 C 15,7 C 79 % 1023,8 hPa 0,0 mm 0,0 km/h (0 Bft) O 95 0 min 0,000 mm 0,0 UV-I 49 W/m 12,1 C 0,0 km/h (0 Bft)
06.09.2016 19:03 15,7 C 15,7 C 79 % 1023,8 hPa 0,0 mm 1,3 km/h (1 Bft) O 95 0 min 0,000 mm 0,0 UV-I 46 W/m 12,1 C 3,2 km/h (1 Bft)
06.09.2016 19:04 15,7 C 15,7 C 79 % 1023,8 hPa 0,0 mm 0,8 km/h (0 Bft) O 95 0 min 0,000 mm 0,0 UV-I 42 W/m 12,1 C 1,6 km/h (1 Bft)
06.09.2016 19:05 15,7 C 15,7 C 79 % 1023,8 hPa 0,0 mm 0,8 km/h (0 Bft) O 95 0 min 0,000 mm 0,0 UV-I 42 W/m 12,1 C 3,2 km/h (1 Bft)
06.09.2016 19:06 15,7 C 15,7 C 79 % 1023,8 hPa 0,0 mm 2,0 km/h (1 Bft) O 95 0 min 0,000 mm 0,0 UV-I 42 W/m 12,1 C 3,2 km/h (1 Bft)
06.09.2016 19:07 15,7 C 15,7 C 78 % 1023,8 hPa 0,0 mm 2,8 km/h (1 Bft) O 96 0 min 0,000 mm 0,0 UV-I 39 W/m 11,9 C 4,8 km/h (1 Bft)
06.09.2016 19:08 15,7 C 15,7 C 81 % 1023,8 hPa 0,0 mm 2,8 km/h (1 Bft) O 96 0 min 0,000 mm 0,0 UV-I 37 W/m 12,4 C 4,8 km/h (1 Bft)
06.09.2016 19:09 15,7 C 15,7 C 77 % 1023,7 hPa 0,0 mm 1,9 km/h (1 Bft) O 96 0 min 0,000 mm 0,0 UV-I 35 W/m 11,7 C 3,2 km/h (1 Bft)
06.09.2016 19:10 15,7 C 15,7 C 79 % 1023,7 hPa 0,0 mm 2,5 km/h (1 Bft) O 97 0 min 0,000 mm 0,0 UV-I 35 W/m 12,1 C 3,2 km/h (1 Bft)
06.09.2016 19:11 15,7 C 15,7 C 78 % 1023,7 hPa 0,0 mm 2,0 km/h (1 Bft) O 97 0 min 0,000 mm 0,0 UV-I 35 W/m 11,9 C 3,2 km/h (1 Bft)
06.09.2016 19:12 15,7 C 15,7 C 79 % 1023,7 hPa 0,0 mm 1,1 km/h (1 Bft) O 97 0 min 0,000 mm 0,0 UV-I 33 W/m 12,1 C 1,6 km/h (1 Bft)
06.09.2016 19:13 15,7 C 15,7 C 78 % 1023,7 hPa 0,0 mm 0,5 km/h (0 Bft) O 97 0 min 0,000 mm 0,0 UV-I 32 W/m 11,9 C 1,6 km/h (1 Bft)
06.09.2016 19:14 15,7 C 15,8 C 77 % 1023,7 hPa 0,0 mm 0,3 km/h (0 Bft) O 97 0 min 0,000 mm 0,0 UV-I 30 W/m 11,7 C 1,6 km/h (1 Bft)
06.09.2016 19:15 15,7 C 15,8 C 77 % 1023,7 hPa 0,0 mm 1,1 km/h (1 Bft) O 97 0 min 0,000 mm 0,0 UV-I 28 W/m 11,7 C 3,2 km/h (1 Bft)
06.09.2016 19:16 15,8 C 15,8 C 77 % 1023,8 hPa 0,0 mm 2,5 km/h (1 Bft) O-SO 103 0 min 0,000 mm 0,0 UV-I 26 W/m 11,8 C 4,8 km/h (1 Bft)
06.09.2016 19:17 15,7 C 15,8 C 77 % 1023,8 hPa 0,0 mm 0,7 km/h (0 Bft) O-SO 103 0 min 0,000 mm 0,0 UV-I 25 W/m 11,7 C 1,6 km/h (1 Bft)
06.09.2016 19:18 15,8 C 15,8 C 77 % 1023,7 hPa 0,0 mm 1,5 km/h (1 Bft) O-SO 103 0 min 0,000 mm 0,0 UV-I 25 W/m 11,8 C 3,2 km/h (1 Bft)
06.09.2016 19:19 15,8 C 15,8 C 78 % 1023,8 hPa 0,0 mm 1,7 km/h (1 Bft) O-SO 103 0 min 0,000 mm 0,0 UV-I 25 W/m 12,0 C 3,2 km/h (1 Bft)
06.09.2016 19:20 15,7 C 15,8 C 76 % 1023,7 hPa 0,0 mm 2,2 km/h (1 Bft) O-SO 103 0 min 0,000 mm 0,0 UV-I 25 W/m 11,5 C 3,2 km/h (1 Bft)
06.09.2016 19:21 15,7 C 15,7 C 77 % 1023,7 hPa 0,0 mm 1,5 km/h (1 Bft) O-SO 103 0 min 0,000 mm 0,0 UV-I 23 W/m 11,7 C 3,2 km/h (1 Bft)
06.09.2016 19:22 15,7 C 15,7 C 77 % 1023,8 hPa 0,0 mm 2,4 km/h (1 Bft) O-SO 103 0 min 0,000 mm 0,0 UV-I 23 W/m 11,7 C 3,2 km/h (1 Bft)
06.09.2016 19:23 15,7 C 15,7 C 77 % 1023,7 hPa 0,0 mm 2,1 km/h (1 Bft) O-SO 103 0 min 0,000 mm 0,0 UV-I 23 W/m 11,7 C 3,2 km/h (1 Bft)
06.09.2016 19:24 15,7 C 15,7 C 76 % 1023,7 hPa 0,0 mm 1,3 km/h (1 Bft) O-SO 103 0 min 0,000 mm 0,0 UV-I 23 W/m 11,5 C 3,2 km/h (1 Bft)
06.09.2016 19:25 15,7 C 15,7 C 79 % 1023,8 hPa 0,0 mm 1,5 km/h (1 Bft) O-SO 103 0 min 0,000 mm 0,0 UV-I 21 W/m 12,1 C 3,2 km/h (1 Bft)
06.09.2016 19:26 15,7 C 15,7 C 79 % 1023,7 hPa 0,0 mm 1,1 km/h (1 Bft) O-SO 103 0 min 0,000 mm 0,0 UV-I 19 W/m 12,1 C 3,2 km/h (1 Bft)
06.09.2016 19:27 15,6 C 15,7 C 79 % 1023,7 hPa 0,0 mm 1,2 km/h (1 Bft) O-SO 103 0 min 0,000 mm 0,0 UV-I 18 W/m 12,0 C 3,2 km/h (1 Bft)
06.09.2016 19:28 15,6 C 15,6 C 78 % 1023,8 hPa 0,0 mm 1,5 km/h (1 Bft) O-SO 103 0 min 0,000 mm 0,0 UV-I 16 W/m 11,8 C 3,2 km/h (1 Bft)
06.09.2016 19:29 15,6 C 15,6 C 77 % 1023,7 hPa 0,0 mm 1,5 km/h (1 Bft) O-SO 103 0 min 0,000 mm 0,0 UV-I 16 W/m 11,6 C 3,2 km/h (1 Bft)
06.09.2016 19:30 15,6 C 15,6 C 79 % 1023,7 hPa 0,0 mm 1,0 km/h (0 Bft) O-SO 103 0 min 0,000 mm 0,0 UV-I 14 W/m 12,0 C 3,2 km/h (1 Bft)
06.09.2016 19:31 15,4 C 15,6 C 79 % 1023,7 hPa 0,0 mm 2,7 km/h (1 Bft) O 101 0 min 0,000 mm 0,0 UV-I 12 W/m 11,8 C 4,8 km/h (1 Bft)
06.09.2016 19:32 15,4 C 15,4 C 78 % 1023,7 hPa 0,0 mm 0,3 km/h (0 Bft) O 101 0 min 0,000 mm 0,0 UV-I 11 W/m 11,6 C 1,6 km/h (1 Bft)
06.09.2016 19:33 15,3 C 15,4 C 80 % 1023,7 hPa 0,0 mm 1,2 km/h (1 Bft) O 86 0 min 0,000 mm 0,0 UV-I 11 W/m 11,9 C 3,2 km/h (1 Bft)
06.09.2016 19:34 15,3 C 15,3 C 77 % 1023,7 hPa 0,0 mm 2,7 km/h (1 Bft) O-SO 105 0 min 0,000 mm 0,0 UV-I 11 W/m 11,3 C 4,8 km/h (1 Bft)
06.09.2016 19:35 15,4 C 15,4 C 77 % 1023,7 hPa 0,0 mm 2,7 km/h (1 Bft) O-SO 105 0 min 0,000 mm 0,0 UV-I 9 W/m 11,4 C 3,2 km/h (1 Bft)
06.09.2016 19:36 15,4 C 15,4 C 77 % 1023,7 hPa 0,0 mm 1,1 km/h (1 Bft) O-SO 105 1 min 0,000 mm 0,0 UV-I 9 W/m 11,4 C 3,2 km/h (1 Bft)
06.09.2016 19:37 15,4 C 15,4 C 76 % 1023,7 hPa 0,0 mm 2,3 km/h (1 Bft) O-SO 105 0 min 0,000 mm 0,0 UV-I 9 W/m 11,2 C 3,2 km/h (1 Bft)
06.09.2016 19:38 15,4 C 15,4 C 77 % 1023,8 hPa 0,0 mm 2,7 km/h (1 Bft) SO 126 0 min 0,000 mm 0,0 UV-I 9 W/m 11,4 C 3,2 km/h (1 Bft)
06.09.2016 19:39 15,4 C 15,4 C 76 % 1023,8 hPa 0,0 mm 2,6 km/h (1 Bft) SO 125 0 min 0,000 mm 0,0 UV-I 9 W/m 11,2 C 4,8 km/h (1 Bft)
06.09.2016 19:40 15,3 C 15,4 C 79 % 1023,8 hPa 0,0 mm 3,5 km/h (1 Bft) SO 135 0 min 0,000 mm 0,0 UV-I 9 W/m 11,7 C 6,4 km/h (2 Bft)
06.09.2016 19:41 15,3 C 15,3 C 77 % 1023,8 hPa 0,0 mm 1,6 km/h (1 Bft) SO 135 0 min 0,000 mm 0,0 UV-I 7 W/m 11,3 C 3,2 km/h (1 Bft)
06.09.2016 19:42 15,1 C 15,3 C 79 % 1023,7 hPa 0,0 mm 1,6 km/h (1 Bft) SO 135 0 min 0,000 mm 0,0 UV-I 7 W/m 11,5 C 1,6 km/h (1 Bft)
06.09.2016 19:43 15,1 C 15,1 C 79 % 1023,8 hPa 0,0 mm 1,8 km/h (1 Bft) SO 135 0 min 0,000 mm 0,0 UV-I 7 W/m 11,5 C 3,2 km/h (1 Bft)
06.09.2016 19:44 14,9 C 15,1 C 80 % 1023,8 hPa 0,0 mm 3,4 km/h (1 Bft) SO 136 0 min 0,000 mm 0,0 UV-I 7 W/m 11,5 C 4,8 km/h (1 Bft)
06.09.2016 19:45 14,8 C 14,9 C 80 % 1023,8 hPa 0,0 mm 2,3 km/h (1 Bft) SO 136 0 min 0,000 mm 0,0 UV-I 5 W/m 11,4 C 3,2 km/h (1 Bft)
06.09.2016 19:46 14,8 C 14,8 C 80 % 1023,8 hPa 0,0 mm 2,7 km/h (1 Bft) SO 136 0 min 0,000 mm 0,0 UV-I 5 W/m 11,4 C 3,2 km/h (1 Bft)
06.09.2016 19:47 14,8 C 14,8 C 80 % 1023,8 hPa 0,0 mm 1,4 km/h (1 Bft) SO 136 0 min 0,000 mm 0,0 UV-I 5 W/m 11,4 C 3,2 km/h (1 Bft)
06.09.2016 19:48 14,7 C 14,8 C 80 % 1023,9 hPa 0,0 mm 2,3 km/h (1 Bft) SO 136 0 min 0,000 mm 0,0 UV-I 5 W/m 11,3 C 3,2 km/h (1 Bft)
06.09.2016 19:49 14,7 C 14,8 C 81 % 1023,8 hPa 0,0 mm 2,0 km/h (1 Bft) SO 136 0 min 0,000 mm 0,0 UV-I 0 W/m 11,5 C 3,2 km/h (1 Bft)
06.09.2016 19:50 14,7 C 14,7 C 81 % 1023,9 hPa 0,0 mm 1,7 km/h (1 Bft) SO 136 0 min 0,000 mm 0,0 UV-I 0 W/m 11,5 C 3,2 km/h (1 Bft)
06.09.2016 19:51 14,7 C 14,7 C 82 % 1023,9 hPa 0,0 mm 1,5 km/h (1 Bft) SO 136 0 min 0,000 mm 0,0 UV-I 0 W/m 11,7 C 1,6 km/h (1 Bft)
06.09.2016 19:52 14,6 C 14,7 C 82 % 1023,9 hPa 0,0 mm 1,1 km/h (1 Bft) SO 136 0 min 0,000 mm 0,0 UV-I 0 W/m 11,6 C 1,6 km/h (1 Bft)
06.09.2016 19:53 14,6 C 14,6 C 82 % 1023,9 hPa 0,0 mm 0,5 km/h (0 Bft) SO 136 0 min 0,000 mm 0,0 UV-I 0 W/m 11,6 C 1,6 km/h (1 Bft)
06.09.2016 19:54 14,6 C 14,6 C 82 % 1023,9 hPa 0,0 mm 0,7 km/h (0 Bft) SO 136 0 min 0,000 mm 0,0 UV-I 0 W/m 11,6 C 1,6 km/h (1 Bft)
06.09.2016 19:55 14,6 C 14,6 C 83 % 1023,9 hPa 0,0 mm 0,5 km/h (0 Bft) SO 136 0 min 0,000 mm 0,0 UV-I 0 W/m 11,7 C 1,6 km/h (1 Bft)
06.09.2016 19:56 14,6 C 14,6 C 82 % 1023,8 hPa 0,0 mm 0,6 km/h (0 Bft) SO 136 0 min 0,000 mm 0,0 UV-I 0 W/m 11,6 C 1,6 km/h (1 Bft)
06.09.2016 19:57 14,6 C 14,6 C 82 % 1023,9 hPa 0,0 mm 0,5 km/h (0 Bft) SO 136 0 min 0,000 mm 0,0 UV-I 0 W/m 11,6 C 3,2 km/h (1 Bft)
06.09.2016 19:58 14,6 C 14,6 C 82 % 1023,9 hPa 0,0 mm 1,7 km/h (1 Bft) SO 136 0 min 0,000 mm 0,0 UV-I 0 W/m 11,6 C 3,2 km/h (1 Bft)
06.09.2016 19:59 14,6 C 14,6 C 82 % 1023,9 hPa 0,0 mm 1,7 km/h (1 Bft) SO 136 0 min 0,000 mm 0,0 UV-I 0 W/m 11,6 C 3,2 km/h (1 Bft)
06.09.2016 20:00 14,6 C 14,6 C 82 % 1023,9 hPa 0,0 mm 2,1 km/h (1 Bft) SO 136 0 min 0,000 mm 0,0 UV-I 0 W/m 11,6 C 3,2 km/h (1 Bft)
06.09.2016 20:01 14,6 C 14,7 C 82 % 1023,9 hPa 0,0 mm 3,2 km/h (1 Bft) SO 130 0 min 0,025 mm 0,0 UV-I 0 W/m 11,6 C 4,8 km/h (1 Bft)
06.09.2016 20:02 14,6 C 14,6 C 82 % 1024,0 hPa 0,0 mm 1,5 km/h (1 Bft) SO 130 0 min 0,000 mm 0,0 UV-I 0 W/m 11,6 C 3,2 km/h (1 Bft)
06.09.2016 20:03 14,6 C 14,6 C 82 % 1024,0 hPa 0,0 mm 0,2 km/h (0 Bft) SO 130 0 min 0,000 mm 0,0 UV-I 0 W/m 11,6 C 1,6 km/h (1 Bft)
06.09.2016 20:04 14,7 C 14,7 C 83 % 1024,0 hPa 0,0 mm 0,9 km/h (0 Bft) SO 130 0 min 0,000 mm 0,0 UV-I 0 W/m 11,8 C 3,2 km/h (1 Bft)
06.09.2016 20:05 14,6 C 14,7 C 84 % 1024,0 hPa 0,0 mm 1,3 km/h (1 Bft) SO 130 0 min 0,000 mm 0,0 UV-I 0 W/m 11,9 C 3,2 km/h (1 Bft)
06.09.2016 20:06 14,6 C 14,6 C 83 % 1024,0 hPa 0,0 mm 1,0 km/h (0 Bft) SO 130 0 min 0,000 mm 0,0 UV-I 0 W/m 11,7 C 1,6 km/h (1 Bft)
06.09.2016 20:07 14,5 C 14,6 C 84 % 1024,0 hPa 0,0 mm 0,2 km/h (0 Bft) SO 130 0 min 0,000 mm 0,0 UV-I 0 W/m 11,8 C 1,6 km/h (1 Bft)
06.09.2016 20:08 14,4 C 14,5 C 84 % 1024,0 hPa 0,0 mm 1,5 km/h (1 Bft) SO 130 0 min 0,000 mm 0,0 UV-I 0 W/m 11,7 C 3,2 km/h (1 Bft)
06.09.2016 20:09 14,4 C 14,4 C 83 % 1024,0 hPa 0,0 mm 1,2 km/h (1 Bft) SO 130 0 min 0,000 mm 0,0 UV-I 0 W/m 11,5 C 1,6 km/h (1 Bft)
06.09.2016 20:10 14,4 C 14,4 C 83 % 1024,0 hPa 0,0 mm 1,3 km/h (1 Bft) SO 130 0 min 0,000 mm 0,0 UV-I 0 W/m 11,5 C 1,6 km/h (1 Bft)
06.09.2016 20:11 14,4 C 14,4 C 83 % 1024,0 hPa 0,0 mm 1,7 km/h (1 Bft) SO 130 0 min 0,000 mm 0,0 UV-I 0 W/m 11,5 C 3,2 km/h (1 Bft)
06.09.2016 20:12 14,4 C 14,4 C 84 % 1024,0 hPa 0,0 mm 0,7 km/h (0 Bft) SO 130 0 min 0,000 mm 0,0 UV-I 0 W/m 11,7 C 1,6 km/h (1 Bft)
06.09.2016 20:13 14,4 C 14,4 C 84 % 1024,0 hPa 0,0 mm 1,1 km/h (1 Bft) SO 130 0 min 0,000 mm 0,0 UV-I 0 W/m 11,7 C 1,6 km/h (1 Bft)
06.09.2016 20:14 14,4 C 14,4 C 84 % 1024,0 hPa 0,0 mm 0,3 km/h (0 Bft) SO 130 0 min 0,000 mm 0,0 UV-I 0 W/m 11,7 C 1,6 km/h (1 Bft)
06.09.2016 20:15 14,3 C 14,4 C 84 % 1024,0 hPa 0,0 mm 0,4 km/h (0 Bft) SO 130 0 min 0,000 mm 0,0 UV-I 0 W/m 11,6 C 1,6 km/h (1 Bft)
06.09.2016 20:16 14,3 C 14,3 C 84 % 1024,0 hPa 0,0 mm 0,1 km/h (0 Bft) SO 130 0 min 0,000 mm 0,0 UV-I 0 W/m 11,6 C 1,6 km/h (1 Bft)
06.09.2016 20:17 14,3 C 14,3 C 85 % 1024,0 hPa 0,0 mm 0,4 km/h (0 Bft) SO 130 0 min 0,000 mm 0,0 UV-I 0 W/m 11,8 C 1,6 km/h (1 Bft)
06.09.2016 20:18 14,3 C 14,3 C 84 % 1024,0 hPa 0,0 mm 0,8 km/h (0 Bft) SO 130 0 min 0,000 mm 0,0 UV-I 0 W/m 11,6 C 1,6 km/h (1 Bft)
06.09.2016 20:19 14,3 C 14,3 C 84 % 1024,0 hPa 0,0 mm 0,5 km/h (0 Bft) SO 130 0 min 0,000 mm 0,0 UV-I 0 W/m 11,6 C 1,6 km/h (1 Bft)
06.09.2016 20:20 14,3 C 14,3 C 84 % 1024,0 hPa 0,0 mm 0,0 km/h (0 Bft) SO 130 0 min 0,000 mm 0,0 UV-I 0 W/m 11,6 C 0,0 km/h (0 Bft)
06.09.2016 20:21 14,3 C 14,3 C 85 % 1024,0 hPa 0,0 mm 0,3 km/h (0 Bft) SO 130 0 min 0,000 mm 0,0 UV-I 0 W/m 11,8 C 1,6 km/h (1 Bft)
06.09.2016 20:22 14,3 C 14,3 C 84 % 1024,0 hPa 0,0 mm 0,0 km/h (0 Bft) SO 130 0 min 0,000 mm 0,0 UV-I 0 W/m 11,6 C 0,0 km/h (0 Bft)
06.09.2016 20:23 14,3 C 14,3 C 84 % 1024,0 hPa 0,0 mm 0,0 km/h (0 Bft) SO 130 0 min 0,000 mm 0,0 UV-I 0 W/m 11,6 C 0,0 km/h (0 Bft)
06.09.2016 20:24 14,3 C 14,3 C 85 % 1024,0 hPa 0,0 mm 0,4 km/h (0 Bft) SO 130 0 min 0,000 mm 0,0 UV-I 0 W/m 11,8 C 1,6 km/h (1 Bft)
06.09.2016 20:25 14,2 C 14,3 C 85 % 1024,0 hPa 0,0 mm 0,6 km/h (0 Bft) SO 130 0 min 0,000 mm 0,0 UV-I 0 W/m 11,7 C 1,6 km/h (1 Bft)
06.09.2016 20:26 14,2 C 14,2 C 85 % 1024,0 hPa 0,0 mm 0,3 km/h (0 Bft) SO 130 0 min 0,000 mm 0,0 UV-I 0 W/m 11,7 C 1,6 km/h (1 Bft)
06.09.2016 20:27 14,2 C 14,2 C 86 % 1024,0 hPa 0,0 mm 0,1 km/h (0 Bft) SO 130 0 min 0,000 mm 0,0 UV-I 0 W/m 11,9 C 1,6 km/h (1 Bft)
06.09.2016 20:28 14,1 C 14,2 C 86 % 1024,0 hPa 0,0 mm 0,2 km/h (0 Bft) SO 130 0 min 0,000 mm 0,0 UV-I 0 W/m 11,8 C 1,6 km/h (1 Bft)
06.09.2016 20:29 14,1 C 14,2 C 86 % 1024,0 hPa 0,0 mm 0,2 km/h (0 Bft) SO 130 0 min 0,000 mm 0,0 UV-I 0 W/m 11,8 C 1,6 km/h (1 Bft)
06.09.2016 20:30 14,1 C 14,1 C 86 % 1024,0 hPa 0,0 mm 1,6 km/h (1 Bft) SO 130 0 min 0,000 mm 0,0 UV-I 0 W/m 11,8 C 3,2 km/h (1 Bft)
06.09.2016 20:31 14,1 C 14,1 C 86 % 1024,0 hPa 0,0 mm 1,8 km/h (1 Bft) SO 130 0 min 0,000 mm 0,0 UV-I 0 W/m 11,8 C 3,2 km/h (1 Bft)
06.09.2016 20:32 14,1 C 14,1 C 85 % 1024,0 hPa 0,0 mm 1,5 km/h (1 Bft) SO 130 0 min 0,000 mm 0,0 UV-I 0 W/m 11,6 C 1,6 km/h (1 Bft)
06.09.2016 20:33 14,1 C 14,1 C 85 % 1024,0 hPa 0,0 mm 2,7 km/h (1 Bft) SO 129 0 min 0,000 mm 0,0 UV-I 0 W/m 11,6 C 3,2 km/h (1 Bft)
06.09.2016 20:34 14,1 C 14,1 C 86 % 1024,0 hPa 0,0 mm 2,1 km/h (1 Bft) SO 129 0 min 0,000 mm 0,0 UV-I 0 W/m 11,8 C 3,2 km/h (1 Bft)
06.09.2016 20:35 14,1 C 14,1 C 85 % 1024,1 hPa 0,0 mm 2,2 km/h (1 Bft) SO 129 0 min 0,000 mm 0,0 UV-I 0 W/m 11,6 C 3,2 km/h (1 Bft)
06.09.2016 20:36 14,1 C 14,1 C 85 % 1024,1 hPa 0,0 mm 1,3 km/h (1 Bft) SO 129 0 min 0,000 mm 0,0 UV-I 0 W/m 11,6 C 1,6 km/h (1 Bft)
06.09.2016 20:37 14,1 C 14,1 C 84 % 1024,1 hPa 0,0 mm 1,5 km/h (1 Bft) SO 129 0 min 0,000 mm 0,0 UV-I 0 W/m 11,4 C 3,2 km/h (1 Bft)
06.09.2016 20:38 14,1 C 14,2 C 84 % 1024,1 hPa 0,0 mm 0,9 km/h (0 Bft) SO 129 0 min 0,000 mm 0,0 UV-I 0 W/m 11,4 C 1,6 km/h (1 Bft)
06.09.2016 20:39 14,2 C 14,2 C 84 % 1024,1 hPa 0,0 mm 0,0 km/h (0 Bft) SO 129 0 min 0,000 mm 0,0 UV-I 0 W/m 11,5 C 0,0 km/h (0 Bft)
06.09.2016 20:40 14,2 C 14,2 C 84 % 1024,1 hPa 0,0 mm 0,0 km/h (0 Bft) SO 129 0 min 0,000 mm 0,0 UV-I 0 W/m 11,5 C 0,0 km/h (0 Bft)
06.09.2016 20:41 14,2 C 14,2 C 84 % 1024,0 hPa 0,0 mm 0,0 km/h (0 Bft) SO 129 0 min 0,000 mm 0,0 UV-I 0 W/m 11,5 C 0,0 km/h (0 Bft)
06.09.2016 20:42 14,2 C 14,2 C 85 % 1024,1 hPa 0,0 mm 1,0 km/h (0 Bft) SO 129 0 min 0,000 mm 0,0 UV-I 0 W/m 11,7 C 1,6 km/h (1 Bft)
06.09.2016 20:43 14,2 C 14,2 C 84 % 1024,1 hPa 0,0 mm 1,5 km/h (1 Bft) SO 129 0 min 0,000 mm 0,0 UV-I 0 W/m 11,5 C 1,6 km/h (1 Bft)
06.09.2016 20:44 14,2 C 14,2 C 84 % 1024,1 hPa 0,0 mm 1,4 km/h (1 Bft) SO 129 0 min 0,000 mm 0,0 UV-I 0 W/m 11,5 C 3,2 km/h (1 Bft)
06.09.2016 20:45 14,2 C 14,2 C 84 % 1024,0 hPa 0,0 mm 1,7 km/h (1 Bft) SO 129 0 min 0,000 mm 0,0 UV-I 0 W/m 11,5 C 3,2 km/h (1 Bft)
06.09.2016 20:46 14,2 C 14,2 C 84 % 1024,0 hPa 0,0 mm 1,9 km/h (1 Bft) SO 129 0 min 0,000 mm 0,0 UV-I 0 W/m 11,5 C 3,2 km/h (1 Bft)
06.09.2016 20:47 14,1 C 14,2 C 84 % 1024,0 hPa 0,0 mm 1,5 km/h (1 Bft) SO 129 0 min 0,000 mm 0,0 UV-I 0 W/m 11,4 C 3,2 km/h (1 Bft)
06.09.2016 20:48 14,2 C 14,2 C 84 % 1024,0 hPa 0,0 mm 2,1 km/h (1 Bft) SO 129 0 min 0,000 mm 0,0 UV-I 0 W/m 11,5 C 3,2 km/h (1 Bft)
06.09.2016 20:49 14,2 C 14,2 C 84 % 1024,1 hPa 0,0 mm 2,1 km/h (1 Bft) SO 129 0 min 0,000 mm 0,0 UV-I 0 W/m 11,5 C 3,2 km/h (1 Bft)
06.09.2016 20:50 14,1 C 14,2 C 84 % 1024,0 hPa 0,0 mm 1,5 km/h (1 Bft) SO 129 0 min 0,000 mm 0,0 UV-I 0 W/m 11,4 C 1,6 km/h (1 Bft)
06.09.2016 20:51 14,1 C 14,2 C 84 % 1024,1 hPa 0,0 mm 1,4 km/h (1 Bft) SO 129 0 min 0,000 mm 0,0 UV-I 0 W/m 11,4 C 3,2 km/h (1 Bft)
06.09.2016 20:52 14,1 C 14,2 C 84 % 1024,1 hPa 0,0 mm 1,3 km/h (1 Bft) SO 129 0 min 0,000 mm 0,0 UV-I 0 W/m 11,4 C 1,6 km/h (1 Bft)
06.09.2016 20:53 14,1 C 14,1 C 85 % 1024,1 hPa 0,0 mm 1,3 km/h (1 Bft) SO 129 0 min 0,000 mm 0,0 UV-I 0 W/m 11,6 C 3,2 km/h (1 Bft)
06.09.2016 20:54 14,1 C 14,1 C 85 % 1024,0 hPa 0,0 mm 1,6 km/h (1 Bft) SO 129 0 min 0,000 mm 0,0 UV-I 0 W/m 11,6 C 1,6 km/h (1 Bft)
06.09.2016 20:55 14,0 C 14,1 C 85 % 1024,1 hPa 0,0 mm 1,4 km/h (1 Bft) SO 129 0 min 0,000 mm 0,0 UV-I 0 W/m 11,5 C 3,2 km/h (1 Bft)
06.09.2016 20:56 14,0 C 14,0 C 85 % 1024,1 hPa 0,0 mm 1,4 km/h (1 Bft) SO 129 0 min 0,000 mm 0,0 UV-I 0 W/m 11,5 C 1,6 km/h (1 Bft)
06.09.2016 20:57 14,0 C 14,0 C 85 % 1024,1 hPa 0,0 mm 1,6 km/h (1 Bft) SO 129 0 min 0,000 mm 0,0 UV-I 0 W/m 11,5 C 3,2 km/h (1 Bft)
06.09.2016 20:58 14,0 C 14,0 C 85 % 1024,1 hPa 0,0 mm 1,1 km/h (1 Bft) SO 129 0 min 0,000 mm 0,0 UV-I 0 W/m 11,5 C 1,6 km/h (1 Bft)
06.09.2016 20:59 13,9 C 14,0 C 86 % 1024,1 hPa 0,0 mm 1,1 km/h (1 Bft) SO 129 0 min 0,000 mm 0,0 UV-I 0 W/m 11,6 C 1,6 km/h (1 Bft)
06.09.2016 21:00 13,9 C 13,9 C 85 % 1024,1 hPa 0,0 mm 0,2 km/h (0 Bft) SO 129 0 min 0,000 mm 0,0 UV-I 0 W/m 11,4 C 1,6 km/h (1 Bft)
06.09.2016 21:01 13,9 C 13,9 C 86 % 1024,1 hPa 0,0 mm 0,6 km/h (0 Bft) SO 129 0 min 0,000 mm 0,0 UV-I 0 W/m 11,6 C 1,6 km/h (1 Bft)
06.09.2016 21:02 13,9 C 13,9 C 86 % 1024,1 hPa 0,0 mm 0,2 km/h (0 Bft) SO 129 0 min 0,000 mm 0,0 UV-I 0 W/m 11,6 C 1,6 km/h (1 Bft)
06.09.2016 21:03 13,9 C 13,9 C 85 % 1024,1 hPa 0,0 mm 0,1 km/h (0 Bft) SO 129 0 min 0,000 mm 0,0 UV-I 0 W/m 11,4 C 1,6 km/h (1 Bft)
06.09.2016 21:04 13,9 C 13,9 C 86 % 1024,1 hPa 0,0 mm 0,8 km/h (0 Bft) SO 129 0 min 0,000 mm 0,0 UV-I 0 W/m 11,6 C 1,6 km/h (1 Bft)
06.09.2016 21:05 13,9 C 13,9 C 85 % 1024,1 hPa 0,0 mm 0,1 km/h (0 Bft) SO 129 0 min 0,000 mm 0,0 UV-I 0 W/m 11,4 C 1,6 km/h (1 Bft)
06.09.2016 21:06 13,9 C 13,9 C 85 % 1024,1 hPa 0,0 mm 0,8 km/h (0 Bft) SO 129 0 min 0,000 mm 0,0 UV-I 0 W/m 11,4 C 1,6 km/h (1 Bft)
06.09.2016 21:07 13,9 C 13,9 C 85 % 1024,1 hPa 0,0 mm 1,0 km/h (0 Bft) SO 129 0 min 0,000 mm 0,0 UV-I 0 W/m 11,4 C 1,6 km/h (1 Bft)
06.09.2016 21:08 13,9 C 13,9 C 85 % 1024,1 hPa 0,0 mm 1,3 km/h (1 Bft) SO 129 0 min 0,000 mm 0,0 UV-I 0 W/m 11,4 C 1,6 km/h (1 Bft)
06.09.2016 21:09 13,9 C 13,9 C 85 % 1024,1 hPa 0,0 mm 0,1 km/h (0 Bft) SO 129 0 min 0,000 mm 0,0 UV-I 0 W/m 11,4 C 1,6 km/h (1 Bft)
06.09.2016 21:10 13,9 C 13,9 C 85 % 1024,1 hPa 0,0 mm 0,8 km/h (0 Bft) SO 129 0 min 0,000 mm 0,0 UV-I 0 W/m 11,4 C 1,6 km/h (1 Bft)
06.09.2016 21:11 13,9 C 13,9 C 85 % 1024,1 hPa 0,0 mm 1,0 km/h (0 Bft) SO 129 0 min 0,000 mm 0,0 UV-I 0 W/m 11,4 C 1,6 km/h (1 Bft)
06.09.2016 21:12 13,8 C 13,9 C 86 % 1024,1 hPa 0,0 mm 0,3 km/h (0 Bft) SO 129 0 min 0,000 mm 0,0 UV-I 0 W/m 11,5 C 1,6 km/h (1 Bft)
06.09.2016 21:13 13,8 C 13,9 C 86 % 1024,1 hPa 0,0 mm 0,0 km/h (0 Bft) SO 129 0 min 0,000 mm 0,0 UV-I 0 W/m 11,5 C 0,0 km/h (0 Bft)
06.09.2016 21:14 13,8 C 13,8 C 86 % 1024,1 hPa 0,0 mm 0,2 km/h (0 Bft) SO 129 0 min 0,000 mm 0,0 UV-I 0 W/m 11,5 C 1,6 km/h (1 Bft)
06.09.2016 21:15 13,8 C 13,8 C 86 % 1024,1 hPa 0,0 mm 0,1 km/h (0 Bft) SO 129 0 min 0,000 mm 0,0 UV-I 0 W/m 11,5 C 1,6 km/h (1 Bft)
06.09.2016 21:16 13,8 C 13,8 C 86 % 1024,1 hPa 0,0 mm 0,9 km/h (0 Bft) SO 129 0 min 0,000 mm 0,0 UV-I 0 W/m 11,5 C 1,6 km/h (1 Bft)
06.09.2016 21:17 13,8 C 13,8 C 86 % 1024,1 hPa 0,0 mm 0,3 km/h (0 Bft) SO 129 0 min 0,000 mm 0,0 UV-I 0 W/m 11,5 C 1,6 km/h (1 Bft)
06.09.2016 21:18 13,8 C 13,8 C 86 % 1024,1 hPa 0,0 mm 0,3 km/h (0 Bft) SO 129 0 min 0,000 mm 0,0 UV-I 0 W/m 11,5 C 1,6 km/h (1 Bft)
06.09.2016 21:19 13,8 C 13,8 C 86 % 1024,1 hPa 0,0 mm 0,0 km/h (0 Bft) SO 129 0 min 0,000 mm 0,0 UV-I 0 W/m 11,5 C 0,0 km/h (0 Bft)
06.09.2016 21:20 13,8 C 13,8 C 86 % 1024,1 hPa 0,0 mm 0,0 km/h (0 Bft) SO 129 0 min 0,000 mm 0,0 UV-I 0 W/m 11,5 C 0,0 km/h (0 Bft)
06.09.2016 21:21 13,7 C 13,8 C 86 % 1024,1 hPa 0,0 mm 0,2 km/h (0 Bft) SO 129 0 min 0,000 mm 0,0 UV-I 0 W/m 11,4 C 1,6 km/h (1 Bft)
06.09.2016 21:22 13,8 C 13,8 C 86 % 1024,1 hPa 0,0 mm 0,4 km/h (0 Bft) SO 129 0 min 0,000 mm 0,0 UV-I 0 W/m 11,5 C 1,6 km/h (1 Bft)
06.09.2016 21:23 13,8 C 13,8 C 86 % 1024,1 hPa 0,0 mm 1,5 km/h (1 Bft) SO 129 0 min 0,000 mm 0,0 UV-I 0 W/m 11,5 C 1,6 km/h (1 Bft)
06.09.2016 21:24 13,8 C 13,8 C 86 % 1024,2 hPa 0,0 mm 0,5 km/h (0 Bft) SO 129 0 min 0,000 mm 0,0 UV-I 0 W/m 11,5 C 1,6 km/h (1 Bft)
06.09.2016 21:25 13,8 C 13,8 C 86 % 1024,2 hPa 0,0 mm 1,3 km/h (1 Bft) SO 129 0 min 0,000 mm 0,0 UV-I 0 W/m 11,5 C 1,6 km/h (1 Bft)
06.09.2016 21:26 13,8 C 13,8 C 87 % 1024,2 hPa 0,0 mm 0,1 km/h (0 Bft) SO 129 0 min 0,000 mm 0,0 UV-I 0 W/m 11,7 C 1,6 km/h (1 Bft)
06.09.2016 21:27 13,8 C 13,8 C 86 % 1024,1 hPa 0,0 mm 0,0 km/h (0 Bft) SO 129 0 min 0,000 mm 0,0 UV-I 0 W/m 11,5 C 0,0 km/h (0 Bft)
06.09.2016 21:28 13,8 C 13,8 C 86 % 1024,1 hPa 0,0 mm 1,0 km/h (0 Bft) SO 129 0 min 0,000 mm 0,0 UV-I 0 W/m 11,5 C 1,6 km/h (1 Bft)
06.09.2016 21:29 13,7 C 13,8 C 86 % 1024,2 hPa 0,0 mm 0,3 km/h (0 Bft) SO 129 0 min 0,000 mm 0,0 UV-I 0 W/m 11,4 C 1,6 km/h (1 Bft)
06.09.2016 21:30 13,7 C 13,7 C 87 % 1024,2 hPa 0,0 mm 0,7 km/h (0 Bft) SO 129 0 min 0,000 mm 0,0 UV-I 0 W/m 11,6 C 1,6 km/h (1 Bft)
06.09.2016 21:31 13,7 C 13,7 C 86 % 1024,2 hPa 0,0 mm 0,5 km/h (0 Bft) SO 129 0 min 0,000 mm 0,0 UV-I 0 W/m 11,4 C 1,6 km/h (1 Bft)
06.09.2016 21:32 13,7 C 13,7 C 85 % 1024,1 hPa 0,0 mm 1,1 km/h (1 Bft) SO 129 0 min 0,000 mm 0,0 UV-I 0 W/m 11,2 C 1,6 km/h (1 Bft)
06.09.2016 21:33 13,7 C 13,7 C 86 % 1024,2 hPa 0,0 mm 0,1 km/h (0 Bft) SO 129 0 min 0,000 mm 0,0 UV-I 0 W/m 11,4 C 1,6 km/h (1 Bft)
06.09.2016 21:34 13,7 C 13,7 C 87 % 1024,1 hPa 0,0 mm 0,1 km/h (0 Bft) SO 129 0 min 0,000 mm 0,0 UV-I 0 W/m 11,6 C 1,6 km/h (1 Bft)
06.09.2016 21:35 13,7 C 13,7 C 86 % 1024,1 hPa 0,0 mm 0,6 km/h (0 Bft) SO 129 0 min 0,000 mm 0,0 UV-I 0 W/m 11,4 C 1,6 km/h (1 Bft)
06.09.2016 21:36 13,7 C 13,7 C 86 % 1024,1 hPa 0,0 mm 0,0 km/h (0 Bft) SO 129 0 min 0,000 mm 0,0 UV-I 0 W/m 11,4 C 0,0 km/h (0 Bft)
06.09.2016 21:37 13,6 C 13,7 C 87 % 1024,1 hPa 0,0 mm 0,0 km/h (0 Bft) SO 129 0 min 0,000 mm 0,0 UV-I 0 W/m 11,5 C 0,0 km/h (0 Bft)
06.09.2016 21:38 13,6 C 13,7 C 87 % 1024,1 hPa 0,0 mm 0,1 km/h (0 Bft) SO 129 0 min 0,000 mm 0,0 UV-I 0 W/m 11,5 C 1,6 km/h (1 Bft)
06.09.2016 21:39 13,6 C 13,6 C 87 % 1024,1 hPa 0,0 mm 0,0 km/h (0 Bft) SO 129 0 min 0,000 mm 0,0 UV-I 0 W/m 11,5 C 0,0 km/h (0 Bft)
06.09.2016 21:40 13,6 C 13,6 C 87 % 1024,1 hPa 0,0 mm 0,0 km/h (0 Bft) SO 129 0 min 0,000 mm 0,0 UV-I 0 W/m 11,5 C 0,0 km/h (0 Bft)
06.09.2016 21:41 13,6 C 13,6 C 87 % 1024,1 hPa 0,0 mm 0,3 km/h (0 Bft) SO 129 0 min 0,000 mm 0,0 UV-I 0 W/m 11,5 C 1,6 km/h (1 Bft)
06.09.2016 21:42 13,5 C 13,6 C 87 % 1024,1 hPa 0,0 mm 0,1 km/h (0 Bft) SO 129 0 min 0,000 mm 0,0 UV-I 0 W/m 11,4 C 1,6 km/h (1 Bft)
06.09.2016 21:43 13,6 C 13,6 C 87 % 1024,1 hPa 0,0 mm 0,5 km/h (0 Bft) SO 129 0 min 0,000 mm 0,0 UV-I 0 W/m 11,5 C 1,6 km/h (1 Bft)
06.09.2016 21:44 13,6 C 13,6 C 87 % 1024,1 hPa 0,0 mm 0,3 km/h (0 Bft) SO 129 0 min 0,000 mm 0,0 UV-I 0 W/m 11,5 C 1,6 km/h (1 Bft)
06.09.2016 21:45 13,6 C 13,6 C 88 % 1024,1 hPa 0,0 mm 0,0 km/h (0 Bft) SO 129 0 min 0,000 mm 0,0 UV-I 0 W/m 11,6 C 0,0 km/h (0 Bft)
06.09.2016 21:46 13,6 C 13,6 C 87 % 1024,1 hPa 0,0 mm 0,3 km/h (0 Bft) SO 129 0 min 0,000 mm 0,0 UV-I 0 W/m 11,5 C 1,6 km/h (1 Bft)
06.09.2016 21:47 13,6 C 13,6 C 88 % 1024,1 hPa 0,0 mm 0,5 km/h (0 Bft) SO 129 0 min 0,000 mm 0,0 UV-I 0 W/m 11,6 C 1,6 km/h (1 Bft)
06.09.2016 21:48 13,6 C 13,6 C 88 % 1024,2 hPa 0,0 mm 0,0 km/h (0 Bft) SO 129 0 min 0,000 mm 0,0 UV-I 0 W/m 11,6 C 0,0 km/h (0 Bft)
06.09.2016 21:49 13,6 C 13,6 C 88 % 1024,1 hPa 0,0 mm 0,0 km/h (0 Bft) SO 129 0 min 0,000 mm 0,0 UV-I 0 W/m 11,6 C 0,0 km/h (0 Bft)
06.09.2016 21:50 13,5 C 13,6 C 88 % 1024,1 hPa 0,0 mm 0,0 km/h (0 Bft) SO 129 0 min 0,000 mm 0,0 UV-I 0 W/m 11,6 C 0,0 km/h (0 Bft)
06.09.2016 21:51 13,5 C 13,6 C 88 % 1024,1 hPa 0,0 mm 0,0 km/h (0 Bft) SO 129 0 min 0,000 mm 0,0 UV-I 0 W/m 11,6 C 0,0 km/h (0 Bft)
06.09.2016 21:52 13,5 C 13,6 C 88 % 1024,1 hPa 0,0 mm 0,0 km/h (0 Bft) SO 129 0 min 0,000 mm 0,0 UV-I 0 W/m 11,6 C 0,0 km/h (0 Bft)
06.09.2016 21:53 13,6 C 13,6 C 88 % 1024,1 hPa 0,0 mm 0,0 km/h (0 Bft) SO 129 0 min 0,000 mm 0,0 UV-I 0 W/m 11,6 C 0,0 km/h (0 Bft)
06.09.2016 21:54 13,6 C 13,6 C 88 % 1024,1 hPa 0,0 mm 0,0 km/h (0 Bft) SO 129 0 min 0,000 mm 0,0 UV-I 0 W/m 11,6 C 0,0 km/h (0 Bft)
06.09.2016 21:55 13,5 C 13,6 C 88 % 1024,1 hPa 0,0 mm 0,0 km/h (0 Bft) SO 129 0 min 0,000 mm 0,0 UV-I 0 W/m 11,6 C 0,0 km/h (0 Bft)
06.09.2016 21:56 13,5 C 13,5 C 88 % 1024,1 hPa 0,0 mm 0,0 km/h (0 Bft) SO 129 0 min 0,000 mm 0,0 UV-I 0 W/m 11,6 C 0,0 km/h (0 Bft)
06.09.2016 21:57 13,5 C 13,6 C 88 % 1024,1 hPa 0,0 mm 0,0 km/h (0 Bft) SO 129 0 min 0,000 mm 0,0 UV-I 0 W/m 11,6 C 0,0 km/h (0 Bft)
06.09.2016 21:58 13,5 C 13,5 C 88 % 1024,1 hPa 0,0 mm 0,0 km/h (0 Bft) SO 129 0 min 0,000 mm 0,0 UV-I 0 W/m 11,6 C 0,0 km/h (0 Bft)
06.09.2016 21:59 13,4 C 13,5 C 89 % 1024,1 hPa 0,0 mm 0,1 km/h (0 Bft) SO 129 0 min 0,000 mm 0,0 UV-I 0 W/m 11,6 C 1,6 km/h (1 Bft)
06.09.2016 22:00 13,5 C 13,5 C 88 % 1024,1 hPa 0,0 mm 0,7 km/h (0 Bft) SO 129 0 min 0,000 mm 0,0 UV-I 0 W/m 11,6 C 1,6 km/h (1 Bft)
06.09.2016 22:01 13,5 C 13,5 C 87 % 1024,1 hPa 0,0 mm 0,8 km/h (0 Bft) SO 129 0 min 0,000 mm 0,0 UV-I 0 W/m 11,4 C 1,6 km/h (1 Bft)
06.09.2016 22:02 13,5 C 13,5 C 87 % 1024,1 hPa 0,0 mm 1,0 km/h (0 Bft) SO 129 0 min 0,000 mm 0,0 UV-I 0 W/m 11,4 C 1,6 km/h (1 Bft)
06.09.2016 22:03 13,6 C 13,6 C 87 % 1024,1 hPa 0,0 mm 1,0 km/h (0 Bft) SO 129 0 min 0,000 mm 0,0 UV-I 0 W/m 11,5 C 1,6 km/h (1 Bft)
06.09.2016 22:04 13,6 C 13,6 C 87 % 1024,1 hPa 0,0 mm 1,0 km/h (0 Bft) SO 129 0 min 0,000 mm 0,0 UV-I 0 W/m 11,5 C 1,6 km/h (1 Bft)
06.09.2016 22:05 13,6 C 13,6 C 86 % 1024,1 hPa 0,0 mm 2,3 km/h (1 Bft) SO 129 0 min 0,000 mm 0,0 UV-I 0 W/m 11,3 C 3,2 km/h (1 Bft)
06.09.2016 22:06 13,6 C 13,6 C 87 % 1024,1 hPa 0,0 mm 1,6 km/h (1 Bft) SO 129 0 min 0,000 mm 0,0 UV-I 0 W/m 11,5 C 1,6 km/h (1 Bft)
06.09.2016 22:07 13,6 C 13,7 C 87 % 1024,1 hPa 0,0 mm 1,1 km/h (1 Bft) SO 129 0 min 0,000 mm 0,0 UV-I 0 W/m 11,5 C 1,6 km/h (1 Bft)
06.09.2016 22:08 13,6 C 13,6 C 86 % 1024,1 hPa 0,0 mm 1,1 km/h (1 Bft) SO 129 0 min 0,000 mm 0,0 UV-I 0 W/m 11,3 C 1,6 km/h (1 Bft)
06.09.2016 22:09 13,7 C 13,7 C 86 % 1024,1 hPa 0,0 mm 1,3 km/h (1 Bft) SO 129 0 min 0,000 mm 0,0 UV-I 0 W/m 11,4 C 1,6 km/h (1 Bft)
06.09.2016 22:10 13,6 C 13,7 C 87 % 1024,1 hPa 0,0 mm 0,5 km/h (0 Bft) SO 129 0 min 0,000 mm 0,0 UV-I 0 W/m 11,5 C 1,6 km/h (1 Bft)
06.09.2016 22:11 13,6 C 13,7 C 87 % 1024,1 hPa 0,0 mm 0,0 km/h (0 Bft) SO 129 0 min 0,000 mm 0,0 UV-I 0 W/m 11,5 C 0,0 km/h (0 Bft)
06.09.2016 22:12 13,6 C 13,6 C 87 % 1024,1 hPa 0,0 mm 0,2 km/h (0 Bft) SO 129 0 min 0,000 mm 0,0 UV-I 0 W/m 11,5 C 1,6 km/h (1 Bft)
06.09.2016 22:13 13,6 C 13,6 C 88 % 1024,1 hPa 0,0 mm 0,7 km/h (0 Bft) SO 129 0 min 0,000 mm 0,0 UV-I 0 W/m 11,6 C 1,6 km/h (1 Bft)
06.09.2016 22:14 13,6 C 13,6 C 88 % 1024,1 hPa 0,0 mm 0,8 km/h (0 Bft) SO 129 0 min 0,000 mm 0,0 UV-I 0 W/m 11,6 C 1,6 km/h (1 Bft)
06.09.2016 22:15 13,5 C 13,6 C 88 % 1024,1 hPa 0,0 mm 0,0 km/h (0 Bft) SO 129 0 min 0,000 mm 0,0 UV-I 0 W/m 11,6 C 0,0 km/h (0 Bft)
06.09.2016 22:16 13,4 C 13,5 C 87 % 1024,1 hPa 0,0 mm 0,0 km/h (0 Bft) SO 129 0 min 0,000 mm 0,0 UV-I 0 W/m 11,3 C 0,0 km/h (0 Bft)
06.09.2016 22:17 13,4 C 13,5 C 88 % 1024,1 hPa 0,0 mm 0,0 km/h (0 Bft) SO 129 0 min 0,000 mm 0,0 UV-I 0 W/m 11,5 C 0,0 km/h (0 Bft)
06.09.2016 22:18 13,4 C 13,4 C 87 % 1024,0 hPa 0,0 mm 0,0 km/h (0 Bft) SO 129 0 min 0,000 mm 0,0 UV-I 0 W/m 11,3 C 0,0 km/h (0 Bft)
06.09.2016 22:19 13,3 C 13,4 C 87 % 1024,1 hPa 0,0 mm 0,0 km/h (0 Bft) SO 129 0 min 0,000 mm 0,0 UV-I 0 W/m 11,2 C 0,0 km/h (0 Bft)
06.09.2016 22:20 13,4 C 13,4 C 86 % 1024,0 hPa 0,0 mm 0,0 km/h (0 Bft) SO 129 0 min 0,000 mm 0,0 UV-I 0 W/m 11,1 C 0,0 km/h (0 Bft)
06.09.2016 22:21 13,3 C 13,4 C 87 % 1024,0 hPa 0,0 mm 0,0 km/h (0 Bft) SO 129 0 min 0,000 mm 0,0 UV-I 0 W/m 11,2 C 0,0 km/h (0 Bft)
06.09.2016 22:22 13,3 C 13,3 C 87 % 1023,9 hPa 0,0 mm 0,3 km/h (0 Bft) SO 129 0 min 0,000 mm 0,0 UV-I 0 W/m 11,2 C 1,6 km/h (1 Bft)
06.09.2016 22:23 13,3 C 13,3 C 87 % 1024,0 hPa 0,0 mm 1,5 km/h (1 Bft) SO 129 0 min 0,000 mm 0,0 UV-I 0 W/m 11,2 C 1,6 km/h (1 Bft)
06.09.2016 22:24 13,2 C 13,3 C 87 % 1023,9 hPa 0,0 mm 0,9 km/h (0 Bft) SO 129 0 min 0,000 mm 0,0 UV-I 0 W/m 11,1 C 1,6 km/h (1 Bft)
06.09.2016 22:25 13,3 C 13,3 C 86 % 1024,0 hPa 0,0 mm 1,2 km/h (1 Bft) SO 129 0 min 0,000 mm 0,0 UV-I 0 W/m 11,0 C 1,6 km/h (1 Bft)
06.09.2016 22:26 13,2 C 13,3 C 87 % 1024,0 hPa 0,0 mm 1,9 km/h (1 Bft) SO 129 0 min 0,000 mm 0,0 UV-I 0 W/m 11,1 C 3,2 km/h (1 Bft)
06.09.2016 22:27 13,2 C 13,2 C 86 % 1024,0 hPa 0,0 mm 1,3 km/h (1 Bft) SO 129 0 min 0,000 mm 0,0 UV-I 0 W/m 10,9 C 1,6 km/h (1 Bft)
06.09.2016 22:28 13,2 C 13,2 C 86 % 1024,0 hPa 0,0 mm 0,2 km/h (0 Bft) SO 129 0 min 0,000 mm 0,0 UV-I 0 W/m 10,9 C 1,6 km/h (1 Bft)
06.09.2016 22:29 13,2 C 13,2 C 86 % 1024,0 hPa 0,0 mm 0,3 km/h (0 Bft) SO 129 0 min 0,000 mm 0,0 UV-I 0 W/m 10,9 C 1,6 km/h (1 Bft)
06.09.2016 22:30 13,2 C 13,2 C 86 % 1024,0 hPa 0,0 mm 1,6 km/h (1 Bft) SO 129 0 min 0,000 mm 0,0 UV-I 0 W/m 10,9 C 3,2 km/h (1 Bft)
06.09.2016 22:31 13,2 C 13,2 C 87 % 1024,0 hPa 0,0 mm 1,9 km/h (1 Bft) SO 129 0 min 0,000 mm 0,0 UV-I 0 W/m 11,1 C 3,2 km/h (1 Bft)
06.09.2016 22:32 13,2 C 13,2 C 87 % 1024,0 hPa 0,0 mm 1,0 km/h (0 Bft) SO 129 0 min 0,000 mm 0,0 UV-I 0 W/m 11,1 C 1,6 km/h (1 Bft)
06.09.2016 22:33 13,2 C 13,2 C 87 % 1024,0 hPa 0,0 mm 0,7 km/h (0 Bft) SO 129 0 min 0,000 mm 0,0 UV-I 0 W/m 11,1 C 1,6 km/h (1 Bft)
06.09.2016 22:34 13,2 C 13,2 C 87 % 1023,9 hPa 0,0 mm 0,7 km/h (0 Bft) SO 129 0 min 0,000 mm 0,0 UV-I 0 W/m 11,1 C 1,6 km/h (1 Bft)
06.09.2016 22:35 13,1 C 13,2 C 87 % 1023,9 hPa 0,0 mm 0,7 km/h (0 Bft) SO 129 0 min 0,000 mm 0,0 UV-I 0 W/m 11,0 C 1,6 km/h (1 Bft)
06.09.2016 22:36 13,2 C 13,2 C 86 % 1023,9 hPa 0,0 mm 0,8 km/h (0 Bft) SO 129 0 min 0,000 mm 0,0 UV-I 0 W/m 10,9 C 1,6 km/h (1 Bft)
06.09.2016 22:37 13,2 C 13,2 C 86 % 1023,8 hPa 0,0 mm 1,7 km/h (1 Bft) SO 129 0 min 0,000 mm 0,0 UV-I 0 W/m 10,9 C 3,2 km/h (1 Bft)
06.09.2016 22:38 13,1 C 13,2 C 88 % 1023,9 hPa 0,0 mm 0,9 km/h (0 Bft) SO 129 0 min 0,000 mm 0,0 UV-I 0 W/m 11,2 C 1,6 km/h (1 Bft)
06.09.2016 22:39 13,1 C 13,1 C 88 % 1023,9 hPa 0,0 mm 1,5 km/h (1 Bft) SO 129 0 min 0,000 mm 0,0 UV-I 0 W/m 11,2 C 1,6 km/h (1 Bft)
06.09.2016 22:40 13,0 C 13,1 C 87 % 1023,9 hPa 0,0 mm 1,0 km/h (0 Bft) SO 129 0 min 0,000 mm 0,0 UV-I 0 W/m 10,9 C 1,6 km/h (1 Bft)
06.09.2016 22:41 12,9 C 13,0 C 87 % 1023,9 hPa 0,0 mm 0,5 km/h (0 Bft) SO 129 0 min 0,000 mm 0,0 UV-I 0 W/m 10,8 C 1,6 km/h (1 Bft)
06.09.2016 22:42 12,9 C 12,9 C 87 % 1023,9 hPa 0,0 mm 0,7 km/h (0 Bft) SO 129 0 min 0,000 mm 0,0 UV-I 0 W/m 10,8 C 1,6 km/h (1 Bft)
06.09.2016 22:43 12,9 C 12,9 C 86 % 1023,9 hPa 0,0 mm 0,0 km/h (0 Bft) SO 129 0 min 0,000 mm 0,0 UV-I 0 W/m 10,6 C 0,0 km/h (0 Bft)
06.09.2016 22:44 12,9 C 12,9 C 87 % 1023,9 hPa 0,0 mm 0,6 km/h (0 Bft) SO 129 0 min 0,000 mm 0,0 UV-I 0 W/m 10,8 C 1,6 km/h (1 Bft)
06.09.2016 22:45 12,8 C 12,9 C 88 % 1023,9 hPa 0,0 mm 0,3 km/h (0 Bft) SO 129 0 min 0,000 mm 0,0 UV-I 0 W/m 10,9 C 1,6 km/h (1 Bft)
06.09.2016 22:46 12,7 C 12,8 C 87 % 1023,9 hPa 0,0 mm 0,1 km/h (0 Bft) SO 129 0 min 0,000 mm 0,0 UV-I 0 W/m 10,6 C 1,6 km/h (1 Bft)
06.09.2016 22:47 12,6 C 12,7 C 87 % 1023,9 hPa 0,0 mm 0,0 km/h (0 Bft) SO 129 0 min 0,000 mm 0,0 UV-I 0 W/m 10,5 C 0,0 km/h (0 Bft)
06.09.2016 22:48 12,6 C 12,7 C 87 % 1023,9 hPa 0,0 mm 0,0 km/h (0 Bft) SO 129 0 min 0,000 mm 0,0 UV-I 0 W/m 10,5 C 0,0 km/h (0 Bft)
06.09.2016 22:49 12,6 C 12,6 C 87 % 1023,8 hPa 0,0 mm 0,0 km/h (0 Bft) SO 129 0 min 0,000 mm 0,0 UV-I 0 W/m 10,5 C 0,0 km/h (0 Bft)
06.09.2016 22:50 12,6 C 12,6 C 87 % 1023,9 hPa 0,0 mm 0,0 km/h (0 Bft) SO 129 0 min 0,000 mm 0,0 UV-I 0 W/m 10,5 C 0,0 km/h (0 Bft)
06.09.2016 22:51 12,4 C 12,6 C 87 % 1023,9 hPa 0,0 mm 0,5 km/h (0 Bft) SO 129 0 min 0,000 mm 0,0 UV-I 0 W/m 10,3 C 1,6 km/h (1 Bft)
06.09.2016 22:52 12,4 C 12,5 C 87 % 1023,9 hPa 0,0 mm 0,3 km/h (0 Bft) SO 129 0 min 0,000 mm 0,0 UV-I 0 W/m 10,3 C 1,6 km/h (1 Bft)
06.09.2016 22:53 12,4 C 12,4 C 86 % 1023,9 hPa 0,0 mm 0,0 km/h (0 Bft) SO 129 0 min 0,000 mm 0,0 UV-I 0 W/m 10,1 C 0,0 km/h (0 Bft)
06.09.2016 22:54 12,4 C 12,4 C 87 % 1023,9 hPa 0,0 mm 0,0 km/h (0 Bft) SO 129 0 min 0,000 mm 0,0 UV-I 0 W/m 10,3 C 0,0 km/h (0 Bft)
06.09.2016 22:55 12,4 C 12,4 C 87 % 1023,9 hPa 0,0 mm 0,0 km/h (0 Bft) SO 129 0 min 0,000 mm 0,0 UV-I 0 W/m 10,3 C 0,0 km/h (0 Bft)
06.09.2016 22:56 12,3 C 12,4 C 87 % 1023,9 hPa 0,0 mm 0,0 km/h (0 Bft) SO 129 0 min 0,000 mm 0,0 UV-I 0 W/m 10,2 C 0,0 km/h (0 Bft)
06.09.2016 22:57 12,2 C 12,3 C 88 % 1023,9 hPa 0,0 mm 0,2 km/h (0 Bft) SO 129 0 min 0,000 mm 0,0 UV-I 0 W/m 10,3 C 1,6 km/h (1 Bft)
06.09.2016 22:58 12,1 C 12,2 C 88 % 1023,8 hPa 0,0 mm 0,0 km/h (0 Bft) SO 129 0 min 0,000 mm 0,0 UV-I 0 W/m 10,2 C 0,0 km/h (0 Bft)
06.09.2016 22:59 12,2 C 12,2 C 88 % 1023,8 hPa 0,0 mm 0,0 km/h (0 Bft) SO 129 0 min 0,000 mm 0,0 UV-I 0 W/m 10,3 C 0,0 km/h (0 Bft)
06.09.2016 23:00 12,2 C 12,2 C 88 % 1023,8 hPa 0,0 mm 0,0 km/h (0 Bft) SO 129 0 min 0,000 mm 0,0 UV-I 0 W/m 10,3 C 0,0 km/h (0 Bft)
06.09.2016 23:01 12,1 C 12,2 C 88 % 1023,8 hPa 0,0 mm 0,0 km/h (0 Bft) SO 129 0 min 0,000 mm 0,0 UV-I 0 W/m 10,2 C 0,0 km/h (0 Bft)
06.09.2016 23:02 12,0 C 12,1 C 88 % 1023,8 hPa 0,0 mm 0,0 km/h (0 Bft) SO 129 0 min 0,000 mm 0,0 UV-I 0 W/m 10,1 C 0,0 km/h (0 Bft)
06.09.2016 23:03 11,9 C 12,0 C 89 % 1023,7 hPa 0,0 mm 0,0 km/h (0 Bft) SO 129 0 min 0,000 mm 0,0 UV-I 0 W/m 10,1 C 0,0 km/h (0 Bft)
06.09.2016 23:04 11,9 C 11,9 C 89 % 1023,8 hPa 0,0 mm 0,3 km/h (0 Bft) SO 129 0 min 0,000 mm 0,0 UV-I 0 W/m 10,1 C 1,6 km/h (1 Bft)
06.09.2016 23:05 11,9 C 11,9 C 89 % 1023,8 hPa 0,0 mm 0,0 km/h (0 Bft) SO 129 0 min 0,000 mm 0,0 UV-I 0 W/m 10,1 C 0,0 km/h (0 Bft)
06.09.2016 23:06 12,0 C 12,0 C 88 % 1023,8 hPa 0,0 mm 0,0 km/h (0 Bft) SO 129 0 min 0,000 mm 0,0 UV-I 0 W/m 10,1 C 0,0 km/h (0 Bft)
06.09.2016 23:07 12,1 C 12,1 C 88 % 1023,8 hPa 0,0 mm 0,0 km/h (0 Bft) SO 129 0 min 0,000 mm 0,0 UV-I 0 W/m 10,2 C 0,0 km/h (0 Bft)
06.09.2016 23:08 12,1 C 12,1 C 88 % 1023,7 hPa 0,0 mm 0,0 km/h (0 Bft) SO 129 0 min 0,000 mm 0,0 UV-I 0 W/m 10,2 C 0,0 km/h (0 Bft)
06.09.2016 23:09 12,1 C 12,1 C 88 % 1023,8 hPa 0,0 mm 0,0 km/h (0 Bft) SO 129 0 min 0,000 mm 0,0 UV-I 0 W/m 10,2 C 0,0 km/h (0 Bft)
06.09.2016 23:10 12,0 C 12,1 C 87 % 1023,7 hPa 0,0 mm 0,3 km/h (0 Bft) SO 129 0 min 0,000 mm 0,0 UV-I 0 W/m 9,9 C 1,6 km/h (1 Bft)
06.09.2016 23:11 11,9 C 12,0 C 87 % 1023,7 hPa 0,0 mm 0,1 km/h (0 Bft) SO 129 0 min 0,000 mm 0,0 UV-I 0 W/m 9,8 C 1,6 km/h (1 Bft)
06.09.2016 23:12 11,8 C 11,9 C 88 % 1023,7 hPa 0,0 mm 0,0 km/h (0 Bft) SO 129 0 min 0,000 mm 0,0 UV-I 0 W/m 9,9 C 0,0 km/h (0 Bft)
06.09.2016 23:13 11,7 C 11,8 C 88 % 1023,6 hPa 0,0 mm 0,0 km/h (0 Bft) SO 129 0 min 0,000 mm 0,0 UV-I 0 W/m 9,8 C 0,0 km/h (0 Bft)
06.09.2016 23:14 11,7 C 11,7 C 88 % 1023,6 hPa 0,0 mm 0,0 km/h (0 Bft) SO 129 0 min 0,000 mm 0,0 UV-I 0 W/m 9,8 C 0,0 km/h (0 Bft)
06.09.2016 23:15 11,7 C 11,7 C 89 % 1023,6 hPa 0,0 mm 0,5 km/h (0 Bft) SO 129 0 min 0,000 mm 0,0 UV-I 0 W/m 9,9 C 1,6 km/h (1 Bft)
06.09.2016 23:16 11,7 C 11,7 C 89 % 1023,6 hPa 0,0 mm 1,1 km/h (1 Bft) SO 129 0 min 0,000 mm 0,0 UV-I 0 W/m 9,9 C 1,6 km/h (1 Bft)
06.09.2016 23:17 11,7 C 11,7 C 88 % 1023,6 hPa 0,0 mm 1,2 km/h (1 Bft) SO 129 0 min 0,000 mm 0,0 UV-I 0 W/m 9,8 C 1,6 km/h (1 Bft)
06.09.2016 23:18 11,7 C 11,7 C 89 % 1023,7 hPa 0,0 mm 1,5 km/h (1 Bft) SO 129 0 min 0,000 mm 0,0 UV-I 0 W/m 9,9 C 1,6 km/h (1 Bft)
06.09.2016 23:19 11,7 C 11,7 C 88 % 1023,7 hPa 0,0 mm 1,1 km/h (1 Bft) SO 129 0 min 0,000 mm 0,0 UV-I 0 W/m 9,8 C 1,6 km/h (1 Bft)
06.09.2016 23:20 11,7 C 11,7 C 89 % 1023,7 hPa 0,0 mm 0,0 km/h (0 Bft) SO 129 0 min 0,000 mm 0,0 UV-I 0 W/m 9,9 C 0,0 km/h (0 Bft)
06.09.2016 23:21 11,7 C 11,7 C 88 % 1023,7 hPa 0,0 mm 0,0 km/h (0 Bft) SO 129 0 min 0,000 mm 0,0 UV-I 0 W/m 9,8 C 0,0 km/h (0 Bft)
06.09.2016 23:22 11,7 C 11,7 C 88 % 1023,7 hPa 0,0 mm 0,0 km/h (0 Bft) SO 129 0 min 0,000 mm 0,0 UV-I 0 W/m 9,8 C 0,0 km/h (0 Bft)
06.09.2016 23:23 11,7 C 11,7 C 88 % 1023,6 hPa 0,0 mm 0,0 km/h (0 Bft) SO 129 0 min 0,000 mm 0,0 UV-I 0 W/m 9,8 C 0,0 km/h (0 Bft)
06.09.2016 23:24 11,7 C 11,7 C 89 % 1023,7 hPa 0,0 mm 0,0 km/h (0 Bft) SO 129 0 min 0,000 mm 0,0 UV-I 0 W/m 9,9 C 0,0 km/h (0 Bft)
06.09.2016 23:25 11,7 C 11,7 C 89 % 1023,6 hPa 0,0 mm 0,0 km/h (0 Bft) SO 129 0 min 0,000 mm 0,0 UV-I 0 W/m 9,9 C 0,0 km/h (0 Bft)
06.09.2016 23:26 11,6 C 11,7 C 88 % 1023,6 hPa 0,0 mm 0,0 km/h (0 Bft) SO 129 0 min 0,000 mm 0,0 UV-I 0 W/m 9,7 C 0,0 km/h (0 Bft)
06.09.2016 23:27 11,4 C 11,6 C 87 % 1023,6 hPa 0,0 mm 0,0 km/h (0 Bft) SO 129 0 min 0,000 mm 0,0 UV-I 0 W/m 9,3 C 0,0 km/h (0 Bft)
06.09.2016 23:28 11,4 C 11,4 C 88 % 1023,6 hPa 0,0 mm 0,0 km/h (0 Bft) SO 129 0 min 0,000 mm 0,0 UV-I 0 W/m 9,5 C 0,0 km/h (0 Bft)
06.09.2016 23:29 11,3 C 11,4 C 89 % 1023,6 hPa 0,0 mm 0,0 km/h (0 Bft) SO 129 0 min 0,000 mm 0,0 UV-I 0 W/m 9,6 C 0,0 km/h (0 Bft)
06.09.2016 23:30 11,3 C 11,3 C 88 % 1023,6 hPa 0,0 mm 0,0 km/h (0 Bft) SO 129 0 min 0,000 mm 0,0 UV-I 0 W/m 9,4 C 0,0 km/h (0 Bft)
06.09.2016 23:31 11,3 C 11,3 C 89 % 1023,6 hPa 0,0 mm 0,0 km/h (0 Bft) SO 129 0 min 0,000 mm 0,0 UV-I 0 W/m 9,6 C 0,0 km/h (0 Bft)
06.09.2016 23:32 11,3 C 11,3 C 89 % 1023,6 hPa 0,0 mm 0,0 km/h (0 Bft) SO 129 0 min 0,000 mm 0,0 UV-I 0 W/m 9,6 C 0,0 km/h (0 Bft)
06.09.2016 23:33 11,3 C 11,3 C 89 % 1023,6 hPa 0,0 mm 0,0 km/h (0 Bft) SO 129 0 min 0,000 mm 0,0 UV-I 0 W/m 9,6 C 0,0 km/h (0 Bft)
06.09.2016 23:34 11,3 C 11,3 C 89 % 1023,6 hPa 0,0 mm 0,0 km/h (0 Bft) SO 129 0 min 0,000 mm 0,0 UV-I 0 W/m 9,6 C 0,0 km/h (0 Bft)
06.09.2016 23:35 11,2 C 11,3 C 89 % 1023,6 hPa 0,0 mm 0,0 km/h (0 Bft) SO 129 0 min 0,000 mm 0,0 UV-I 0 W/m 9,5 C 0,0 km/h (0 Bft)
06.09.2016 23:36 11,2 C 11,2 C 89 % 1023,6 hPa 0,0 mm 0,0 km/h (0 Bft) SO 129 0 min 0,000 mm 0,0 UV-I 0 W/m 9,5 C 0,0 km/h (0 Bft)
06.09.2016 23:37 11,3 C 11,3 C 89 % 1023,6 hPa 0,0 mm 0,9 km/h (0 Bft) SO 130 0 min 0,000 mm 0,0 UV-I 0 W/m 9,6 C 1,6 km/h (1 Bft)
06.09.2016 23:38 11,3 C 11,3 C 89 % 1023,6 hPa 0,0 mm 2,3 km/h (1 Bft) SO 142 0 min 0,000 mm 0,0 UV-I 0 W/m 9,6 C 3,2 km/h (1 Bft)
06.09.2016 23:39 11,3 C 11,3 C 88 % 1023,6 hPa 0,0 mm 3,2 km/h (1 Bft) SO 142 0 min 0,000 mm 0,0 UV-I 0 W/m 9,4 C 4,8 km/h (1 Bft)
06.09.2016 23:40 11,3 C 11,3 C 89 % 1023,6 hPa 0,0 mm 3,5 km/h (1 Bft) SO 142 0 min 0,000 mm 0,0 UV-I 0 W/m 9,6 C 4,8 km/h (1 Bft)
06.09.2016 23:41 11,4 C 11,4 C 88 % 1023,5 hPa 0,0 mm 2,3 km/h (1 Bft) SO 142 0 min 0,000 mm 0,0 UV-I 0 W/m 9,5 C 3,2 km/h (1 Bft)
06.09.2016 23:42 11,3 C 11,4 C 88 % 1023,5 hPa 0,0 mm 2,1 km/h (1 Bft) SO 142 0 min 0,000 mm 0,0 UV-I 0 W/m 9,4 C 3,2 km/h (1 Bft)
06.09.2016 23:43 11,4 C 11,4 C 88 % 1023,5 hPa 0,0 mm 2,8 km/h (1 Bft) SO 142 0 min 0,000 mm 0,0 UV-I 0 W/m 9,5 C 3,2 km/h (1 Bft)
06.09.2016 23:44 11,3 C 11,4 C 88 % 1023,5 hPa 0,0 mm 2,3 km/h (1 Bft) SO 142 0 min 0,000 mm 0,0 UV-I 0 W/m 9,4 C 3,2 km/h (1 Bft)
06.09.2016 23:45 11,3 C 11,3 C 88 % 1023,5 hPa 0,0 mm 1,8 km/h (1 Bft) SO 142 0 min 0,000 mm 0,0 UV-I 0 W/m 9,4 C 3,2 km/h (1 Bft)
06.09.2016 23:46 11,2 C 11,3 C 88 % 1023,5 hPa 0,0 mm 2,2 km/h (1 Bft) SO 142 0 min 0,000 mm 0,0 UV-I 0 W/m 9,3 C 3,2 km/h (1 Bft)
06.09.2016 23:47 11,2 C 11,2 C 88 % 1023,5 hPa 0,0 mm 1,3 km/h (1 Bft) SO 142 0 min 0,000 mm 0,0 UV-I 0 W/m 9,3 C 3,2 km/h (1 Bft)
06.09.2016 23:48 11,1 C 11,2 C 89 % 1023,5 hPa 0,0 mm 2,1 km/h (1 Bft) SO 142 0 min 0,000 mm 0,0 UV-I 0 W/m 9,4 C 3,2 km/h (1 Bft)
06.09.2016 23:49 11,1 C 11,1 C 89 % 1023,5 hPa 0,0 mm 2,9 km/h (1 Bft) SO 142 0 min 0,000 mm 0,0 UV-I 0 W/m 9,4 C 3,2 km/h (1 Bft)
06.09.2016 23:50 11,1 C 11,1 C 89 % 1023,5 hPa 0,0 mm 1,1 km/h (1 Bft) SO 142 0 min 0,000 mm 0,0 UV-I 0 W/m 9,4 C 1,6 km/h (1 Bft)
06.09.2016 23:51 11,1 C 11,1 C 88 % 1023,5 hPa 0,0 mm 1,2 km/h (1 Bft) SO 142 0 min 0,000 mm 0,0 UV-I 0 W/m 9,2 C 3,2 km/h (1 Bft)
06.09.2016 23:52 11,1 C 11,1 C 89 % 1023,5 hPa 0,0 mm 1,1 km/h (1 Bft) SO 142 0 min 0,000 mm 0,0 UV-I 0 W/m 9,4 C 1,6 km/h (1 Bft)
06.09.2016 23:53 10,9 C 11,1 C 88 % 1023,5 hPa 0,0 mm 0,2 km/h (0 Bft) SO 142 0 min 0,000 mm 0,0 UV-I 0 W/m 9,0 C 1,6 km/h (1 Bft)
06.09.2016 23:54 10,9 C 10,9 C 88 % 1023,5 hPa 0,0 mm 0,9 km/h (0 Bft) SO 142 0 min 0,000 mm 0,0 UV-I 0 W/m 9,0 C 1,6 km/h (1 Bft)
06.09.2016 23:55 10,8 C 10,9 C 90 % 1023,5 hPa 0,0 mm 0,2 km/h (0 Bft) SO 142 0 min 0,000 mm 0,0 UV-I 0 W/m 9,2 C 1,6 km/h (1 Bft)
06.09.2016 23:56 10,8 C 10,9 C 89 % 1023,5 hPa 0,0 mm 0,9 km/h (0 Bft) SO 142 0 min 0,000 mm 0,0 UV-I 0 W/m 9,1 C 1,6 km/h (1 Bft)
06.09.2016 23:57 10,7 C 10,8 C 89 % 1023,5 hPa 0,0 mm 0,0 km/h (0 Bft) SO 142 0 min 0,000 mm 0,0 UV-I 0 W/m 9,0 C 0,0 km/h (0 Bft)
06.09.2016 23:58 10,7 C 10,7 C 89 % 1023,4 hPa 0,0 mm 0,0 km/h (0 Bft) SO 142 0 min 0,000 mm 0,0 UV-I 0 W/m 9,0 C 0,0 km/h (0 Bft)
06.09.2016 23:59 10,6 C 10,7 C 90 % 1023,4 hPa 0,0 mm 0,0 km/h (0 Bft) SO 142 0 min 0,000 mm 0,0 UV-I 0 W/m 9,0 C 0,0 km/h (0 Bft)
_ Min-Zeit 23:59 23:59 18:12 00:41 - 23:59 - - - - - - 23:58 23:59
Minimum _ 10,6 C 10,7 C 58 % 1023,0 hPa - 0,0 km/h (0 Bft) - - - - - - 9,0 C 0,0 km/h (0 Bft)
_ Max-Zeit 17:07 17:08 08:28 11:34 09:22 16:55 - - 19:36 16:01 13:42 12:46 13:56 01:04
Maximum _ 17,9 C 17,9 C 95 % 1025,1 hPa 0,2 mm 11,4 km/h
N (2 Bft)
- - 1 min 0,254 mm 6,1 UV-I 1013 W/m 13,7 C 17,7 km/h
W (3 Bft)
Durchschnitt _ 14,2 C 14,3 C 84 % 1024,0 hPa #2,2 mm 2,5 km/h (1 Bft) W-SW - #1:39 h #1,473 mm 2,1 UV-I 101 W/m 11,4 C 4,3 km/h (1 Bft)